Provisional Data: Susquehanna River at Kirkwood, NY


Please select a monitoring station.
Please select start date.
Please select start date.

Toggle Unit: C/F Toggle Unit: C/F
Sample Time Temperature (C) Temperature (F) Specific Conductivity (mS/cm) pH   Turbidity (NTU+) DO (mg/L)
2/4/2021 12:00:00 AM -0.08 31.856 0.239 7.23 90.94 11.46
2/4/2021 12:15:00 AM -0.08 31.856 0.239 7.23 91.36 11.29
2/4/2021 12:30:00 AM -0.08 31.856 0.239 7.23 91.91 11.33
2/4/2021 12:45:00 AM -0.08 31.856 0.239 7.23 91.97 11.78
2/4/2021 1:00:00 AM -0.08 31.856 0.239 7.23 92.14 11.62
2/4/2021 1:15:00 AM -0.08 31.856 0.239 7.23 93.71 11.67
2/4/2021 1:30:00 AM -0.08 31.856 0.239 7.23 93.14 11.65
2/4/2021 1:45:00 AM -0.08 31.856 0.239 7.23 93.13 11.15
2/4/2021 2:00:00 AM -0.08 31.856 0.239 7.23 93.67 11.38
2/4/2021 2:15:00 AM -0.08 31.856 0.238 7.23 93.81 11.7
2/4/2021 2:30:00 AM -0.08 31.856 0.238 7.23 93.26 11.62
2/4/2021 2:45:00 AM -0.08 31.856 0.238 7.23 92.94 11.45
2/4/2021 3:00:00 AM -0.08 31.856 0.238 7.23 92.41 11.42
2/4/2021 3:15:00 AM -0.08 31.856 0.238 7.23 92.3 11.59
2/4/2021 3:30:00 AM -0.08 31.856 0.238 7.23 93.06 11.81
2/4/2021 3:45:00 AM -0.08 31.856 0.238 7.23 93.13 11.7
2/4/2021 4:00:00 AM -0.08 31.856 0.238 7.23 92.93 11.63
2/4/2021 4:15:00 AM -0.08 31.856 0.238 7.23 92.85 11.93
2/4/2021 4:30:00 AM -0.08 31.856 0.238 7.23 93.73 11.46
2/4/2021 4:45:00 AM -0.08 31.856 0.238 7.24 92.95 11.69
2/4/2021 5:00:00 AM -0.08 31.856 0.238 7.23 92.77 11.69
2/4/2021 5:15:00 AM -0.08 31.856 0.238 7.23 92.9 11.73
2/4/2021 5:30:00 AM -0.08 31.856 0.238 7.23 93.05 11.48
2/4/2021 5:45:00 AM -0.08 31.856 0.238 7.24 92.31 11.41
2/4/2021 6:00:00 AM -0.08 31.856 0.238 7.24 93.01 11.83
2/4/2021 6:15:00 AM -0.08 31.856 0.238 7.24 92.86 11.69
2/4/2021 6:30:00 AM -0.08 31.856 0.238 7.24 92.36 11.31
2/4/2021 6:45:00 AM -0.08 31.856 0.237 7.24 93.3 11.2
2/4/2021 7:00:00 AM -0.08 31.856 0.237 7.24 93.02 11.14
2/4/2021 7:15:00 AM -0.08 31.856 0.237 7.24 93.87 10.98
2/4/2021 7:30:00 AM -0.08 31.856 0.237 7.24 93.01 11.06
2/4/2021 7:45:00 AM -0.08 31.856 0.237 7.24 92.55 10.94
2/4/2021 8:00:00 AM -0.08 31.856 0.237 7.24 92.54 11.13
2/4/2021 8:15:00 AM -0.08 31.856 0.237 7.24 92.06 10.81
2/4/2021 8:30:00 AM -0.08 31.856 0.237 7.24 91.89 11.11
2/4/2021 8:45:00 AM -0.08 31.856 0.237 7.24 91.53 10.63
2/4/2021 9:00:00 AM -0.08 31.856 0.237 7.24 91.92 10.7
2/4/2021 9:15:00 AM -0.08 31.856 0.237 7.24 91.59 10.79
2/4/2021 9:30:00 AM -0.08 31.856 0.237 7.24 91.49 10.8
2/4/2021 9:45:00 AM -0.08 31.856 0.237 7.24 91.61 10.77
2/4/2021 10:00:00 AM -0.08 31.856 0.237 7.24 92.18 10.62
2/4/2021 10:15:00 AM -0.08 31.856 0.237 7.24 91.87 10.72
2/4/2021 10:30:00 AM -0.08 31.856 0.237 7.24 91.07 10.81
2/4/2021 10:45:00 AM -0.07 31.874 0.237 7.24 91.21 10.75
2/4/2021 11:00:00 AM -0.07 31.874 0.237 7.24 90.69 10.78
2/4/2021 11:15:00 AM -0.07 31.874 0.237 7.24 89.66 10.92
2/4/2021 11:30:00 AM -0.07 31.874 0.237 7.24 90 11.16
2/4/2021 11:45:00 AM -0.07 31.874 0.237 7.24 89.52 10.8
2/4/2021 12:00:00 PM -0.07 31.874 0.237 7.24 88.76 10.75
2/4/2021 12:15:00 PM -0.07 31.874 0.237 7.24 89.41 10.87
2/4/2021 12:30:00 PM -0.07 31.874 0.237 7.24 89.93 10.92
2/4/2021 12:45:00 PM -0.07 31.874 0.237 7.24 89.69 11.14
2/4/2021 1:00:00 PM -0.07 31.874 0.237 7.24 90.78 11.33
2/4/2021 1:15:00 PM -0.07 31.874 0.236 7.24 89.68 11.22
2/4/2021 1:30:00 PM -0.07 31.874 0.236 7.24 90.33 11.07
2/4/2021 1:45:00 PM -0.07 31.874 0.236 7.24 91.1 10.96
2/4/2021 2:00:00 PM -0.07 31.874 0.236 7.24 91.93 11.29
2/4/2021 2:15:00 PM -0.07 31.874 0.236 7.24 91.14 11.12
2/4/2021 2:30:00 PM -0.07 31.874 0.236 7.24 91.72 11.19
2/4/2021 2:45:00 PM -0.07 31.874 0.236 7.24 92.36 11.04
2/4/2021 3:00:00 PM -0.07 31.874 0.236 7.24 91.8 10.91
2/4/2021 3:15:00 PM -0.07 31.874 0.236 7.24 92.04 10.76
2/4/2021 3:30:00 PM -0.07 31.874 0.236 7.24 91.64 11.04
2/4/2021 3:45:00 PM -0.07 31.874 0.236 7.24 91.67 11.13
2/4/2021 4:00:00 PM -0.07 31.874 0.236 7.25 90.37 10.91
2/4/2021 4:15:00 PM -0.07 31.874 0.236 7.25 90.51 10.85
2/4/2021 4:30:00 PM -0.07 31.874 0.236 7.25 90.79 10.71
2/4/2021 4:45:00 PM -0.07 31.874 0.236 7.25 91.05 10.66
2/4/2021 5:00:00 PM -0.07 31.874 0.236 7.25 90.96 11.05
2/4/2021 5:15:00 PM -0.08 31.856 0.236 7.25 90.9 10.76
2/4/2021 5:30:00 PM -0.08 31.856 0.236 7.25 90.65 10.42
2/4/2021 5:45:00 PM -0.08 31.856 0.236 7.25 90.76 10.35
2/4/2021 6:00:00 PM -0.08 31.856 0.236 7.25 90.17 10.37
2/4/2021 6:15:00 PM -0.08 31.856 0.236 7.25 90.73 10.59
2/4/2021 6:30:00 PM -0.08 31.856 0.236 7.25 90.13 10.24
2/4/2021 6:45:00 PM -0.08 31.856 0.236 7.25 89.73 11.02
2/4/2021 7:00:00 PM -0.08 31.856 0.236 7.25 90.27 10.51
2/4/2021 7:15:00 PM -0.08 31.856 0.236 7.25 90.48 10.27
2/4/2021 7:30:00 PM -0.08 31.856 0.236 7.25 90.53 10.78
2/4/2021 7:45:00 PM -0.08 31.856 0.236 7.25 90.68 10.74
2/4/2021 8:00:00 PM -0.08 31.856 0.236 7.25 89.85 10.43
2/4/2021 8:15:00 PM -0.08 31.856 0.236 7.25 90.36 10.5
2/4/2021 8:30:00 PM -0.08 31.856 0.236 7.25 90.07 10.79
2/4/2021 8:45:00 PM -0.08 31.856 0.236 7.25 90.74 10.47
2/4/2021 9:00:00 PM -0.08 31.856 0.236 7.26 89.8 10.5
2/4/2021 9:15:00 PM -0.08 31.856 0.235 7.26 90.12 10.76
2/4/2021 9:30:00 PM -0.08 31.856 0.235 7.26 90.54 10.75
2/4/2021 9:45:00 PM -0.08 31.856 0.235 7.26 91.26 10.29
2/4/2021 10:00:00 PM -0.08 31.856 0.235 7.26 90.43 10.65
2/4/2021 10:15:00 PM -0.08 31.856 0.235 7.26 90.08 10.47
2/4/2021 10:30:00 PM -0.06 31.892 0.235 7.26 89.99 10.07
2/4/2021 10:45:00 PM -0.07 31.874 0.235 7.26 88.87 10.63
2/4/2021 11:00:00 PM -0.08 31.856 0.235 7.26 88.69 9.96
2/4/2021 11:15:00 PM -0.08 31.856 0.235 7.26 88.43 9.24
2/4/2021 11:30:00 PM -0.08 31.856 0.235 7.26 88.99 9.22
2/4/2021 11:45:00 PM -0.08 31.856 0.235 7.26 89.6 9.34
2/5/2021 12:00:00 AM -0.08 31.856 0.235 7.26 89.77 9.97
2/5/2021 12:15:00 AM -0.08 31.856 0.235 7.26 90.09 9.73
2/5/2021 12:30:00 AM -0.08 31.856 0.235 7.26 89.95 9.78
2/5/2021 12:45:00 AM -0.08 31.856 0.235 7.26 90.34 9.85
2/5/2021 1:00:00 AM -0.08 31.856 0.234 7.26 90.49 9.99
2/5/2021 1:15:00 AM -0.08 31.856 0.234 7.26 91.5 10.19
2/5/2021 1:30:00 AM -0.08 31.856 0.234 7.26 91.6 10.3
2/5/2021 1:45:00 AM -0.08 31.856 0.234 7.26 91.75 10.44
2/5/2021 2:00:00 AM -0.08 31.856 0.234 7.26 91.5 10.18
2/5/2021 2:15:00 AM -0.08 31.856 0.234 7.26 91.35 10.12
2/5/2021 2:30:00 AM -0.08 31.856 0.234 7.26 92.16 10.07
2/5/2021 2:45:00 AM -0.08 31.856 0.234 7.26 92.1 9.86
2/5/2021 3:00:00 AM -0.08 31.856 0.234 7.26 92.17 9.78
2/5/2021 3:15:00 AM -0.08 31.856 0.234 7.26 92.01 9.66
2/5/2021 3:30:00 AM -0.08 31.856 0.234 7.26 92.4 9.88
2/5/2021 3:45:00 AM -0.08 31.856 0.234 7.26 92.52 9.87
2/5/2021 4:00:00 AM -0.08 31.856 0.234 7.26 92.28 9.51
2/5/2021 4:15:00 AM -0.08 31.856 0.234 7.26 92.64 9.65
2/5/2021 4:30:00 AM -0.08 31.856 0.234 7.26 93.38 9.72
2/5/2021 4:45:00 AM -0.08 31.856 0.234 7.26 93.98 9.62
2/5/2021 5:00:00 AM -0.08 31.856 0.234 7.26 93.21 9.33
2/5/2021 5:15:00 AM -0.08 31.856 0.233 7.26 93.75 9.2
2/5/2021 5:30:00 AM -0.08 31.856 0.233 7.26 93.87 9.55
2/5/2021 5:45:00 AM -0.08 31.856 0.233 7.26 93.38 9.18
2/5/2021 6:00:00 AM -0.08 31.856 0.233 7.26 93.34 9.07
2/5/2021 6:15:00 AM -0.08 31.856 0.233 7.26 94.47 9.25
2/5/2021 6:30:00 AM -0.08 31.856 0.233 7.26 94.61 8.97
2/5/2021 6:45:00 AM -0.08 31.856 0.233 7.26 93.97 9.02
2/5/2021 7:00:00 AM -0.08 31.856 0.233 7.26 94.38 9.02
2/5/2021 7:15:00 AM -0.08 31.856 0.233 7.26 93.81 9.41
2/5/2021 7:30:00 AM -0.08 31.856 0.233 7.26 94.35 9.22
2/5/2021 7:45:00 AM -0.08 31.856 0.233 7.26 93.84 8.97
2/5/2021 8:00:00 AM -0.08 31.856 0.233 7.26 94.33 9.7
2/5/2021 8:15:00 AM -0.08 31.856 0.233 7.26 94.24 9.7
2/5/2021 8:30:00 AM -0.08 31.856 0.232 7.26 94.76 9.16
2/5/2021 8:45:00 AM -0.08 31.856 0.232 7.26 93.91 9
2/5/2021 9:00:00 AM -0.08 31.856 0.232 7.26 94.65 8.76
2/5/2021 9:15:00 AM -0.08 31.856 0.232 7.26 94.69 9.11
2/5/2021 9:30:00 AM -0.08 31.856 0.232 7.26 94.58 9.34
2/5/2021 9:45:00 AM -0.08 31.856 0.232 7.26 93.81 9.23
2/5/2021 10:00:00 AM -0.08 31.856 0.232 7.26 94.26 9.1
2/5/2021 10:15:00 AM -0.08 31.856 0.232 7.26 94.11 9.14
2/5/2021 10:30:00 AM -0.08 31.856 0.232 7.26 94.55 9.04
2/5/2021 10:45:00 AM -0.08 31.856 0.231 7.26 95.01 9.06
2/5/2021 11:00:00 AM -0.07 31.874 0.231 7.26 94.91 9.33
2/5/2021 11:15:00 AM -0.07 31.874 0.231 7.26 95.48 9.33
2/5/2021 11:30:00 AM -0.07 31.874 0.231 7.26 95.56 9.37
2/5/2021 11:45:00 AM -0.07 31.874 0.231 7.26 97.21 9.38
2/5/2021 12:00:00 PM -0.07 31.874 0.231 7.26 96.89 8.99
2/5/2021 12:15:00 PM -0.07 31.874 0.23 7.26 96.82 8.56
2/5/2021 12:30:00 PM -0.07 31.874 0.23 7.26 96.4 8.47
2/5/2021 12:45:00 PM -0.07 31.874 0.23 7.26 96.42 8.41
2/5/2021 1:00:00 PM -0.07 31.874 0.23 7.26 96.62 8.4
2/5/2021 1:15:00 PM -0.07 31.874 0.23 7.26 98.67 8.22
2/5/2021 1:30:00 PM -0.07 31.874 0.23 7.26 98.53 7.97
2/5/2021 1:45:00 PM -0.07 31.874 0.23 7.26 98 8.06
2/5/2021 2:00:00 PM -0.06 31.892 0.229 7.26 98.64 7.78
2/5/2021 2:15:00 PM -0.06 31.892 0.229 7.26 98.19 7.61
2/5/2021 2:30:00 PM -0.07 31.874 0.229 7.26 97.76 7.73
2/5/2021 2:45:00 PM -0.07 31.874 0.229 7.26 97.38 7.84
2/5/2021 3:00:00 PM -0.07 31.874 0.229 7.26 97.88 7.56
2/5/2021 3:15:00 PM -0.07 31.874 0.229 7.26 97.82 7.97
2/5/2021 3:30:00 PM -0.07 31.874 0.228 7.27 98.7 7.97
2/5/2021 3:45:00 PM -0.07 31.874 0.228 7.27 97.69 7.9
2/5/2021 4:00:00 PM -0.07 31.874 0.228 7.27 97.17 7.38
2/5/2021 4:15:00 PM -0.07 31.874 0.228 7.27 97.4 7.97
2/5/2021 4:30:00 PM -0.07 31.874 0.227 7.27 97.66 7.8
2/5/2021 4:45:00 PM -0.07 31.874 0.227 7.27 97.03 7.08
2/5/2021 5:00:00 PM -0.07 31.874 0.226 7.27 97.27 6.86
2/5/2021 5:15:00 PM -0.07 31.874 0.225 7.27 97.73 6.39
2/5/2021 5:30:00 PM -0.07 31.874 0.225 7.27 98 6.17
2/5/2021 5:45:00 PM -0.07 31.874 0.224 7.27 98.57 5.98
2/5/2021 6:00:00 PM -0.07 31.874 0.224 7.27 98.98 5.76
2/5/2021 6:15:00 PM -0.07 31.874 0.223 7.27 98.8 5.55
2/5/2021 6:30:00 PM -0.07 31.874 0.223 7.27 98.54 6.74
2/5/2021 6:45:00 PM -0.07 31.874 0.223 7.27 98.61 5.68
2/5/2021 7:00:00 PM -0.07 31.874 0.222 7.27 100.16 5.59
2/5/2021 7:15:00 PM -0.08 31.856 0.221 7.27 99.42 5.77
2/5/2021 7:30:00 PM -0.07 31.874 0.221 7.27 99.94 5.7
2/5/2021 7:45:00 PM -0.07 31.874 0.22 7.27 100.49 5.07
2/5/2021 8:00:00 PM -0.07 31.874 0.22 7.27 100.07 5.14
2/5/2021 8:15:00 PM -0.07 31.874 0.22 7.27 101.96 4.98
2/5/2021 8:30:00 PM -0.07 31.874 0.219 7.27 102.65 4.76
2/5/2021 8:45:00 PM -0.07 31.874 0.219 7.27 100.93 4.58
2/5/2021 9:00:00 PM -0.07 31.874 0.219 7.27 100.41 4.55
2/5/2021 9:15:00 PM -0.07 31.874 0.219 7.27 99.78 4.3
2/5/2021 9:30:00 PM -0.07 31.874 0.218 7.27 100.16 4.41
2/5/2021 9:45:00 PM -0.07 31.874 0.218 7.27 101.41 4.06
2/5/2021 10:00:00 PM -0.07 31.874 0.218 7.27 101.07 4.29
2/5/2021 10:15:00 PM -0.08 31.856 0.218 7.27 101.04 4.23
2/5/2021 10:30:00 PM 0.02 32.036 0.219 7.27 101.6 3.8
2/5/2021 10:45:00 PM -0.03 31.946 0.219 7.27 101.56 3.14
2/5/2021 11:00:00 PM -0.06 31.892 0.222 7.27 101.85 4.35
2/5/2021 11:15:00 PM -0.06 31.892 0.251 7.25 84.17 4.46
2/5/2021 11:30:00 PM -0.07 31.874 0.251 7.26 83.74 5.77
2/5/2021 11:45:00 PM -0.07 31.874 0.251 7.26 83.58 4.54
2/6/2021 12:00:00 AM -0.07 31.874 0.251 7.26 83.58 4.32
2/6/2021 12:15:00 AM -0.07 31.874 0.251 7.26 83.64 4.37
2/6/2021 12:30:00 AM -0.07 31.874 0.251 7.25 83.71 4.67
2/6/2021 12:45:00 AM -0.07 31.874 0.251 7.25 83.73 4.99
2/6/2021 1:00:00 AM -0.07 31.874 0.25 7.25 83.7 5.4
2/6/2021 1:15:00 AM -0.07 31.874 0.25 7.25 83.73 5.59
2/6/2021 1:30:00 AM -0.07 31.874 0.25 7.25 83.94 5.81
2/6/2021 1:45:00 AM -0.07 31.874 0.25 7.25 84.14 6.01
2/6/2021 2:00:00 AM -0.07 31.874 0.25 7.25 84.05 6.2
2/6/2021 2:15:00 AM -0.07 31.874 0.25 7.24 84.11 6.44
2/6/2021 2:30:00 AM -0.07 31.874 0.249 7.24 84.16 6.44
2/6/2021 2:45:00 AM -0.07 31.874 0.249 7.24 84.16 6.51
2/6/2021 3:00:00 AM -0.07 31.874 0.249 7.24 84.18 7.33
2/6/2021 3:15:00 AM -0.07 31.874 0.249 7.24 83.67 7.29
2/6/2021 3:30:00 AM -0.07 31.874 0.249 7.24 83.63 7.34
2/6/2021 3:45:00 AM -0.07 31.874 0.249 7.24 83.63 7.44
2/6/2021 4:00:00 AM -0.07 31.874 0.249 7.24 83.71 7.5
2/6/2021 4:15:00 AM -0.07 31.874 0.249 7.24 83.7 7.52
2/6/2021 4:30:00 AM -0.07 31.874 0.249 7.24 83.76 7.75
2/6/2021 4:45:00 AM -0.07 31.874 0.248 7.24 83.74 7.75
2/6/2021 5:00:00 AM -0.07 31.874 0.248 7.24 83.91 7.96
2/6/2021 5:15:00 AM -0.07 31.874 0.248 7.24 83.78 7.89
2/6/2021 5:30:00 AM -0.07 31.874 0.248 7.24 83.4 8.09
2/6/2021 5:45:00 AM -0.07 31.874 0.248 7.24 83.31 8.23
2/6/2021 6:00:00 AM -0.07 31.874 0.248 7.24 83.39 8.32
2/6/2021 6:15:00 AM -0.07 31.874 0.248 7.24 83.29 8.4
2/6/2021 6:30:00 AM -0.07 31.874 0.248 7.24 83.16 8.31
2/6/2021 6:45:00 AM -0.07 31.874 0.248 7.24 83.15 8.82
2/6/2021 7:00:00 AM -0.07 31.874 0.248 7.24 83.05 8.44
2/6/2021 7:15:00 AM -0.07 31.874 0.248 7.24 82.92 8.16
2/6/2021 7:30:00 AM -0.07 31.874 0.248 7.24 83.11 8.24
2/6/2021 7:45:00 AM -0.07 31.874 0.248 7.24 83.3 8.29
2/6/2021 8:00:00 AM -0.07 31.874 0.248 7.24 83.23 8.42
2/6/2021 8:15:00 AM -0.07 31.874 0.248 7.23 83.11 8.41
2/6/2021 8:30:00 AM -0.07 31.874 0.248 7.23 83.05 8.47
2/6/2021 8:45:00 AM -0.07 31.874 0.248 7.23 82.92 8.45
2/6/2021 9:00:00 AM -0.07 31.874 0.248 7.23 83.26 8.5
2/6/2021 9:15:00 AM -0.07 31.874 0.248 7.23 83.08 8.53
2/6/2021 9:30:00 AM -0.07 31.874 0.248 7.23 83.06 8.51
2/6/2021 9:45:00 AM -0.07 31.874 0.248 7.23 82.97 8.41
2/6/2021 10:00:00 AM -0.07 31.874 0.248 7.23 83 8.57
2/6/2021 10:15:00 AM -0.07 31.874 0.248 7.23 82.81 8.6
2/6/2021 10:30:00 AM -0.07 31.874 0.248 7.23 82.92 8.56
2/6/2021 10:45:00 AM -0.07 31.874 0.247 7.23 82.96 8.7
2/6/2021 11:00:00 AM -0.06 31.892 0.247 7.23 82.7 8.94
2/6/2021 11:15:00 AM -0.06 31.892 0.248 7.23 82.86 9.23
2/6/2021 11:30:00 AM -0.06 31.892 0.248 7.23 82.73 9.14
2/6/2021 11:45:00 AM -0.06 31.892 0.247 7.23 82.66 8.92
2/6/2021 12:00:00 PM -0.06 31.892 0.247 7.23 82.83 8.86
2/6/2021 12:15:00 PM -0.06 31.892 0.247 7.23 82.82 8.86
2/6/2021 12:30:00 PM -0.06 31.892 0.247 7.23 82.72 9.29
2/6/2021 12:45:00 PM -0.06 31.892 0.247 7.23 82.61 8.97
2/6/2021 1:00:00 PM -0.06 31.892 0.247 7.23 82.47 8.53
2/6/2021 1:15:00 PM -0.05 31.91 0.247 7.23 82.59 8.7
2/6/2021 1:30:00 PM -0.05 31.91 0.247 7.23 82.48 8.83
2/6/2021 1:45:00 PM -0.05 31.91 0.247 7.23 82.65 8.4
2/6/2021 2:00:00 PM -0.05 31.91 0.247 7.23 82.82 7.89
2/6/2021 2:15:00 PM -0.05 31.91 0.247 7.23 82.7 7.8
2/6/2021 2:30:00 PM -0.05 31.91 0.247 7.23 82.6 7.84
2/6/2021 2:45:00 PM -0.05 31.91 0.247 7.23 82.73 8.14
2/6/2021 3:00:00 PM -0.05 31.91 0.247 7.23 82.69 11.55
2/6/2021 3:15:00 PM -0.05 31.91 0.247 7.23 82.53 10.57
2/6/2021 3:30:00 PM -0.04 31.928 0.248 7.23 82.36 9.45
2/6/2021 3:45:00 PM -0.04 31.928 0.248 7.23 82.28 9.9
2/6/2021 4:00:00 PM -0.03 31.946 0.248 7.23 82.25 9.06
2/6/2021 4:15:00 PM -0.03 31.946 0.248 7.23 82.19 8.36
2/6/2021 4:30:00 PM -0.03 31.946 0.248 7.23 82.33 7.69
2/6/2021 4:45:00 PM -0.03 31.946 0.248 7.23 82.24 7.03
2/6/2021 5:00:00 PM -0.01 31.982 0.248 7.23 82.03 7.76
2/6/2021 5:15:00 PM 0 32 0.248 7.23 82.15 7.48
2/6/2021 5:30:00 PM 0 32 0.249 7.23 81.84 7.12
2/6/2021 5:45:00 PM 0.01 32.018 0.249 7.23 82.09 7.01
2/6/2021 6:00:00 PM 0 32 0.249 7.23 82.05 7
2/6/2021 6:15:00 PM 0 32 0.249 7.23 82.26 6.8
2/6/2021 6:30:00 PM 0.05 32.09 0.249 7.23 82.18 7.2
2/6/2021 6:45:00 PM 0.13 32.234 0.249 7.24 82.38 7.14
2/6/2021 7:00:00 PM 0.17 32.306 0.25 7.24 82.17 6.61
2/6/2021 7:15:00 PM 0.14 32.252 0.25 7.24 81.97 8.39
2/6/2021 7:30:00 PM 0.13 32.234 0.25 7.24 82.04 8.04
2/6/2021 7:45:00 PM 0.11 32.198 0.25 7.24 82.02 7.44
2/6/2021 8:00:00 PM 0.1 32.18 0.25 7.24 82.06 8.01
2/6/2021 8:15:00 PM 0.08 32.144 0.25 7.24 81.96 8.58
2/6/2021 8:30:00 PM 0.07 32.126 0.251 7.24 81.82 8
2/6/2021 8:45:00 PM 0.06 32.108 0.251 7.24 81.77 8.08
2/6/2021 9:00:00 PM 0.05 32.09 0.251 7.24 81.61 7.44
2/6/2021 9:15:00 PM 0.05 32.09 0.251 7.24 81.77 6.82
2/6/2021 9:30:00 PM 0.05 32.09 0.251 7.24 81.75 6.25
2/6/2021 9:45:00 PM 0.05 32.09 0.251 7.24 81.57 5.9
2/6/2021 10:00:00 PM 0.04 32.072 0.252 7.24 81.5 5.6
2/6/2021 10:15:00 PM 0.04 32.072 0.252 7.24 81.49 5.24
2/6/2021 10:30:00 PM 0.02 32.036 0.252 7.24 81.43 4.99
2/6/2021 10:45:00 PM 0.01 32.018 0.252 7.24 81.33 5.05
2/6/2021 11:00:00 PM 0.01 32.018 0.252 7.24 81.4 6.52
2/6/2021 11:15:00 PM 0.01 32.018 0.252 7.24 81.29 6.85
2/6/2021 11:30:00 PM 0.01 32.018 0.253 7.24 81.5 6.44
2/6/2021 11:45:00 PM 0 32 0.253 7.24 81.42 6.02
2/7/2021 12:00:00 AM 0 32 0.253 7.24 81.52 6.84
2/7/2021 12:15:00 AM 0 32 0.253 7.24 81.57 6.81
2/7/2021 12:30:00 AM 0 32 0.253 7.24 81.35 7.17
2/7/2021 12:45:00 AM 0 32 0.253 7.24 81.4 8.49
2/7/2021 1:00:00 AM -0.01 31.982 0.253 7.24 81.35 7.32
2/7/2021 1:15:00 AM -0.01 31.982 0.253 7.24 81.21 7.08
2/7/2021 1:30:00 AM -0.01 31.982 0.253 7.24 81.27 6.45
2/7/2021 1:45:00 AM -0.01 31.982 0.253 7.24 81.3 6.05
2/7/2021 2:00:00 AM -0.01 31.982 0.253 7.24 81.23 5.51
2/7/2021 2:15:00 AM -0.01 31.982 0.253 7.24 80.99 5.02
2/7/2021 2:30:00 AM -0.02 31.964 0.253 7.24 81.06 5.54
2/7/2021 2:45:00 AM -0.02 31.964 0.253 7.24 81.05 5.64
2/7/2021 3:00:00 AM -0.03 31.946 0.253 7.24 81.07 5.54
2/7/2021 3:15:00 AM -0.03 31.946 0.253 7.24 81.06 5.35
2/7/2021 3:30:00 AM -0.02 31.964 0.253 7.24 81.12 5.16
2/7/2021 3:45:00 AM -0.02 31.964 0.253 7.24 81.22 5.82
2/7/2021 4:00:00 AM -0.02 31.964 0.253 7.24 81.13 5.78
2/7/2021 4:15:00 AM -0.02 31.964 0.254 7.24 81.14 5.32
2/7/2021 4:30:00 AM -0.02 31.964 0.254 7.25 81.24 4.78
2/7/2021 4:45:00 AM -0.01 31.982 0.254 7.25 81.12 4.53
2/7/2021 5:00:00 AM -0.01 31.982 0.254 7.25 80.95 4.12
2/7/2021 5:15:00 AM -0.01 31.982 0.254 7.25 80.93 4.36
2/7/2021 5:30:00 AM -0.01 31.982 0.254 7.25 80.74 4.17
2/7/2021 5:45:00 AM -0.01 31.982 0.254 7.25 80.83 3.97
2/7/2021 6:00:00 AM -0.02 31.964 0.254 7.25 81 3.74
2/7/2021 6:15:00 AM -0.02 31.964 0.254 7.25 81.03 3.64
2/7/2021 6:30:00 AM -0.02 31.964 0.254 7.25 81.16 3.68
2/7/2021 6:45:00 AM -0.02 31.964 0.255 7.25 81.08 3.57
2/7/2021 7:00:00 AM -0.02 31.964 0.255 7.25 81.23 3.41
2/7/2021 7:15:00 AM -0.02 31.964 0.255 7.25 81.38 3.34
2/7/2021 7:30:00 AM -0.02 31.964 0.255 7.25 81.23 3.24
2/7/2021 7:45:00 AM -0.02 31.964 0.255 7.25 81.09 3.2
2/7/2021 8:00:00 AM -0.02 31.964 0.256 7.25 81.18 3.07
2/7/2021 8:15:00 AM -0.02 31.964 0.256 7.25 81.15 3.04
2/7/2021 8:30:00 AM -0.02 31.964 0.256 7.25 81.04 2.94
2/7/2021 8:45:00 AM -0.02 31.964 0.256 7.25 81.09 2.9
2/7/2021 9:00:00 AM -0.02 31.964 0.256 7.25 81.08 2.88
2/7/2021 9:15:00 AM -0.02 31.964 0.256 7.25 80.9 2.73
2/7/2021 9:30:00 AM -0.02 31.964 0.256 7.25 80.95 2.85
2/7/2021 9:45:00 AM -0.02 31.964 0.256 7.25 80.96 2.87
2/7/2021 10:00:00 AM -0.03 31.946 0.257 7.25 80.85 3.33
2/7/2021 10:15:00 AM -0.03 31.946 0.257 7.25 81 6.58
2/7/2021 10:30:00 AM -0.03 31.946 0.257 7.25 80.97 5.76
2/7/2021 10:45:00 AM -0.03 31.946 0.257 7.25 80.96 5.17
2/7/2021 11:00:00 AM -0.02 31.964 0.257 7.25 80.73 4.61
2/7/2021 11:15:00 AM -0.02 31.964 0.257 7.25 81 4.38
2/7/2021 11:30:00 AM -0.02 31.964 0.257 7.25 80.84 3.94
2/7/2021 11:45:00 AM 0.07 32.126 0.258 7.25 80.69 4.23
2/7/2021 12:00:00 PM 0.16 32.288 0.258 7.25 80.77 4.07
2/7/2021 12:15:00 PM 0.17 32.306 0.258 7.25 80.84 3.75
2/7/2021 12:30:00 PM 0.16 32.288 0.258 7.25 80.72 3.45
2/7/2021 12:45:00 PM 0.14 32.252 0.258 7.25 80.79 3.43
2/7/2021 1:00:00 PM 0.12 32.216 0.259 7.25 80.67 3.19
2/7/2021 1:15:00 PM 0.09 32.162 0.259 7.25 80.58 3.16
2/7/2021 1:30:00 PM 0.08 32.144 0.259 7.25 80.7 3.02
2/7/2021 1:45:00 PM 0.07 32.126 0.259 7.25 80.46 3.11
2/7/2021 2:00:00 PM 0.06 32.108 0.259 7.25 80.52 2.83
2/7/2021 2:15:00 PM 0.05 32.09 0.26 7.25 80.58 2.82
2/7/2021 2:30:00 PM 0.04 32.072 0.26 7.25 80.64 2.87
2/7/2021 2:45:00 PM 0.04 32.072 0.261 7.26 80.65 2.98
2/7/2021 3:00:00 PM 0.03 32.054 0.261 7.25 80.6 3
2/7/2021 3:15:00 PM 0.03 32.054 0.262 7.25 80.76 2.88
2/7/2021 3:30:00 PM 0.03 32.054 0.262 7.26 80.65 2.7
2/7/2021 3:45:00 PM 0.03 32.054 0.262 7.26 80.63 2.52
2/7/2021 4:00:00 PM 0.03 32.054 0.263 7.26 80.66 2.67
2/7/2021 4:15:00 PM 0.02 32.036 0.263 7.26 80.66 3.82
2/7/2021 4:30:00 PM 0.02 32.036 0.264 7.26 80.67 3.5
2/7/2021 4:45:00 PM 0.01 32.018 0.264 7.26 80.85 3.97
2/7/2021 5:00:00 PM 0.01 32.018 0.265 7.26 81.01 3.71
2/7/2021 5:15:00 PM 0 32 0.266 7.26 80.98 3.6
2/7/2021 5:30:00 PM 0 32 0.267 7.26 81.11 3.34
2/7/2021 5:45:00 PM 0 32 0.268 7.26 80.96 3.09
2/7/2021 6:00:00 PM 0.01 32.018 0.269 7.26 81.17 2.85
2/7/2021 6:15:00 PM 0.01 32.018 0.27 7.26 81.07 2.78
2/7/2021 6:30:00 PM 0.01 32.018 0.272 7.26 81.1 2.5
2/7/2021 6:45:00 PM 0.01 32.018 0.273 7.26 81.24 2.65
2/7/2021 7:00:00 PM 0 32 0.275 7.26 81.17 2.13
2/7/2021 7:15:00 PM 0 32 0.272 7.26 81.07 3.45
2/7/2021 7:30:00 PM 0.01 32.018 0.271 7.2 78.97 5.85
2/7/2021 7:45:00 PM 0 32 0.27 7.23 78.96 4.51
2/7/2021 8:00:00 PM 0 32 0.269 7.22 79.05 3.33
2/7/2021 8:15:00 PM 0 32 0.268 7.23 79.12 2.49
2/7/2021 8:30:00 PM 0 32 0.268 7.23 79.41 2.09
2/7/2021 8:45:00 PM 0 32 0.267 7.24 79.53 1.91
2/7/2021 9:00:00 PM 0 32 0.266 7.24 79.5 2.14
2/7/2021 9:15:00 PM -0.01 31.982 0.266 7.24 79.55 2.22
2/7/2021 9:30:00 PM -0.01 31.982 0.265 7.24 79.38 4.36
2/7/2021 9:45:00 PM -0.02 31.964 0.265 7.25 79.51 4.56
2/7/2021 10:00:00 PM -0.02 31.964 0.265 7.24 79.55 4.45
2/7/2021 10:15:00 PM -0.02 31.964 0.265 7.25 79.52 4.72
2/7/2021 10:30:00 PM -0.02 31.964 0.265 7.25 79.5 4.57
2/7/2021 10:45:00 PM -0.02 31.964 0.264 7.25 79.54 4.44
2/7/2021 11:00:00 PM -0.02 31.964 0.264 7.25 79.55 3.94
2/7/2021 11:15:00 PM -0.02 31.964 0.264 7.25 79.54 3.88
2/7/2021 11:30:00 PM -0.02 31.964 0.264 7.25 79.65 3.83
2/7/2021 11:45:00 PM -0.02 31.964 0.263 7.25 79.57 4.08
2/8/2021 12:00:00 AM -0.02 31.964 0.263 7.25 79.52 4.04
2/8/2021 12:15:00 AM -0.02 31.964 0.263 7.25 79.58 3.98
2/8/2021 12:30:00 AM -0.02 31.964 0.262 7.25 79.72 4.06
2/8/2021 12:45:00 AM -0.02 31.964 0.262 7.25 79.77 3.94
2/8/2021 1:00:00 AM -0.02 31.964 0.262 7.25 79.58 3.66
2/8/2021 1:15:00 AM -0.02 31.964 0.261 7.25 79.85 3.7
2/8/2021 1:30:00 AM -0.03 31.946 0.261 7.25 79.73 3.47
2/8/2021 1:45:00 AM -0.03 31.946 0.26 7.25 79.78 4.01
2/8/2021 2:00:00 AM -0.03 31.946 0.26 7.25 79.78 4.68
2/8/2021 2:15:00 AM -0.03 31.946 0.259 7.25 79.89 5.63
2/8/2021 2:30:00 AM -0.03 31.946 0.259 7.25 79.74 5.47
2/8/2021 2:45:00 AM -0.03 31.946 0.258 7.25 79.97 5.33
2/8/2021 3:00:00 AM -0.03 31.946 0.257 7.25 79.85 5.32
2/8/2021 3:15:00 AM -0.03 31.946 0.257 7.25 79.67 5.04
2/8/2021 3:30:00 AM -0.03 31.946 0.256 7.24 79.85 5.04
2/8/2021 3:45:00 AM -0.03 31.946 0.255 7.24 79.88 5.01
2/8/2021 4:00:00 AM -0.03 31.946 0.254 7.24 79.8 4.97
2/8/2021 4:15:00 AM -0.03 31.946 0.253 7.24 79.92 4.98
2/8/2021 4:30:00 AM -0.03 31.946 0.252 7.24 80.09 4.76
2/8/2021 4:45:00 AM -0.03 31.946 0.25 7.24 80.1 4.85
2/8/2021 5:00:00 AM -0.03 31.946 0.249 7.24 80.09 4.79
2/8/2021 5:15:00 AM -0.04 31.928 0.248 7.24 79.79 5.37
2/8/2021 5:30:00 AM -0.04 31.928 0.246 7.24 79.82 5.46
2/8/2021 5:45:00 AM -0.04 31.928 0.243 7.24 79.73 5.32
2/8/2021 6:00:00 AM -0.04 31.928 0.24 7.24 79.78 5.43
2/8/2021 6:15:00 AM -0.04 31.928 0.236 7.24 79.73 5.46
2/8/2021 6:30:00 AM -0.04 31.928 0.269 7.26 78.67 6.37
2/8/2021 6:45:00 AM -0.04 31.928 0.268 7.17 78.47 7.26
2/8/2021 7:00:00 AM -0.04 31.928 0.267 7.15 78.38 7.14
2/8/2021 7:15:00 AM -0.04 31.928 0.266 7.14 78.55 6.62
2/8/2021 7:30:00 AM -0.04 31.928 0.265 7.13 78.5 6.31
2/8/2021 7:45:00 AM -0.04 31.928 0.265 7.13 78.62 6.29
2/8/2021 8:00:00 AM -0.04 31.928 0.264 7.12 78.76 6.06
2/8/2021 8:15:00 AM -0.04 31.928 0.263 7.11 78.6 6.33
2/8/2021 8:30:00 AM -0.05 31.91 0.262 7.11 78.54 7.59
2/8/2021 8:45:00 AM -0.04 31.928 0.262 7.11 78.59 7.26
2/8/2021 9:00:00 AM -0.04 31.928 0.261 7.11 78.53 7.13
2/8/2021 9:15:00 AM -0.04 31.928 0.26 7.11 78.5 7.68
2/8/2021 9:30:00 AM -0.04 31.928 0.259 7.1 78.49 11.26
2/8/2021 9:45:00 AM -0.04 31.928 0.258 7.1 78.32 12.17
2/8/2021 10:00:00 AM -0.04 31.928 0.258 7.09 78.11 12.14
2/8/2021 10:15:00 AM -0.04 31.928 0.257 7.09 78.45 12.24
2/8/2021 10:30:00 AM -0.05 31.91 0.257 7.09 78.36 12.35
2/8/2021 10:45:00 AM -0.05 31.91 0.256 7.08 78.44 12.03
2/8/2021 11:00:00 AM -0.04 31.928 0.255 7.07 78.39 11.72
2/8/2021 11:15:00 AM -0.04 31.928 0.254 7.08 78.55 11.62
2/8/2021 11:30:00 AM -0.03 31.946 0.253 7.07 78.41 11.62
2/8/2021 11:45:00 AM -0.02 31.964 0.253 7.07 78.67 11.4
2/8/2021 12:00:00 PM -0.02 31.964 0.252 7.07 78.7 11.61
2/8/2021 12:15:00 PM -0.01 31.982 0.251 7.07 78.81 11.48
2/8/2021 12:30:00 PM 0 32 0.25 7.07 78.77 11.4
2/8/2021 12:45:00 PM 0 32 0.249 7.07 79.12 11.13
2/8/2021 1:00:00 PM 0.01 32.018 0.249 7.07 79.02 10.93
2/8/2021 1:15:00 PM 0.01 32.018 0.248 7.07 78.93 10.88
2/8/2021 1:30:00 PM 0 32 0.247 7.07 78.97 11.35
2/8/2021 1:45:00 PM 0.01 32.018 0.246 7.07 79.1 11.17
2/8/2021 2:00:00 PM 0.01 32.018 0.245 7.07 79.32 10.86
2/8/2021 2:15:00 PM 0.01 32.018 0.244 7.07 79.97 10.37
2/8/2021 2:30:00 PM 0.01 32.018 0.244 7.07 80.24 12.01
2/8/2021 2:45:00 PM 0 32 0.243 7.08 80.42 12.28
2/8/2021 3:00:00 PM 0 32 0.242 7.08 80.74 11.57
2/8/2021 3:15:00 PM 0 32 0.242 7.08 80.99 11.21
2/8/2021 3:30:00 PM 0 32 0.241 7.08 81.18 11.31
2/8/2021 3:45:00 PM 0 32 0.241 7.08 81.29 11.01
2/8/2021 4:00:00 PM -0.01 31.982 0.24 7.08 81.34 11.25
2/8/2021 4:15:00 PM -0.01 31.982 0.24 7.09 81.61 11.26
2/8/2021 4:30:00 PM -0.01 31.982 0.239 7.09 81.57 11.14
2/8/2021 4:45:00 PM -0.01 31.982 0.238 7.09 81.54 11.09
2/8/2021 5:00:00 PM -0.02 31.964 0.238 7.09 81.65 10.84
2/8/2021 5:15:00 PM -0.02 31.964 0.237 7.09 81.65 10.68
2/8/2021 5:30:00 PM -0.03 31.946 0.236 7.09 81.88 10.53
2/8/2021 5:45:00 PM -0.03 31.946 0.236 7.09 82.01 10.34
2/8/2021 6:00:00 PM -0.03 31.946 0.235 7.09 82.28 9.51
2/8/2021 6:15:00 PM -0.03 31.946 0.235 7.09 82.49 10.56
2/8/2021 6:30:00 PM -0.04 31.928 0.234 7.1 82.77 10.93
2/8/2021 6:45:00 PM -0.04 31.928 0.233 7.1 83.1 10.65
2/8/2021 7:00:00 PM -0.04 31.928 0.232 7.1 82.99 10.57
2/8/2021 7:15:00 PM -0.04 31.928 0.232 7.1 83.39 10.56
2/8/2021 7:30:00 PM -0.04 31.928 0.231 7.1 83.68 10.63
2/8/2021 7:45:00 PM -0.04 31.928 0.23 7.1 83.73 10.57
2/8/2021 8:00:00 PM -0.04 31.928 0.229 7.11 83.86 10.63
2/8/2021 8:15:00 PM -0.04 31.928 0.227 7.11 84.08 10.69
2/8/2021 8:30:00 PM -0.05 31.91 0.226 7.11 84.27 10.63
2/8/2021 8:45:00 PM -0.05 31.91 0.225 7.11 84.42 11.57
2/8/2021 9:00:00 PM -0.05 31.91 0.225 7.12 84.23 11.38
2/8/2021 9:15:00 PM -0.05 31.91 0.224 7.12 84.31 11.22
2/8/2021 9:30:00 PM -0.05 31.91 0.224 7.12 84 11.09
2/8/2021 9:45:00 PM -0.05 31.91 0.259 7.18 79.99 9
2/8/2021 10:00:00 PM -0.05 31.91 0.26 7.17 80.01 7.72
2/8/2021 10:15:00 PM -0.05 31.91 0.26 7.16 79.83 7.95
2/8/2021 10:30:00 PM 0.04 32.072 0.259 7.15 79.82 10.83
2/8/2021 10:45:00 PM 0.28 32.504 0.258 7.16 79.65 9.86
2/8/2021 11:00:00 PM 0.23 32.414 0.257 7.16 79.66 10.57
2/8/2021 11:15:00 PM 0.13 32.234 0.256 7.16 79.35 11
2/8/2021 11:30:00 PM 0.07 32.126 0.256 7.16 79.55 10.62
2/8/2021 11:45:00 PM 0.03 32.054 0.255 7.16 79.44 10.43
2/9/2021 12:00:00 AM 0 32 0.255 7.16 79.27 10.09
2/9/2021 12:15:00 AM -0.01 31.982 0.255 7.16 79.14 11.45
2/9/2021 12:30:00 AM -0.02 31.964 0.254 7.16 79.07 10.83
2/9/2021 12:45:00 AM -0.03 31.946 0.254 7.16 78.92 10.5
2/9/2021 1:00:00 AM -0.03 31.946 0.253 7.16 79.12 9.55
2/9/2021 1:15:00 AM -0.04 31.928 0.253 7.16 79.1 9.47
2/9/2021 1:30:00 AM -0.04 31.928 0.252 7.16 78.98 9.37
2/9/2021 1:45:00 AM -0.04 31.928 0.252 7.16 78.68 11.41
2/9/2021 2:00:00 AM -0.04 31.928 0.251 7.16 78.73 10.75
2/9/2021 2:15:00 AM -0.04 31.928 0.25 7.15 78.74 10.76
2/9/2021 2:30:00 AM -0.05 31.91 0.25 7.15 78.58 12.42
2/9/2021 2:45:00 AM -0.05 31.91 0.25 7.15 78.65 11.68
2/9/2021 3:00:00 AM -0.05 31.91 0.249 7.15 78.79 10.73
2/9/2021 3:15:00 AM -0.05 31.91 0.248 7.15 78.95 10.61
2/9/2021 3:30:00 AM -0.05 31.91 0.248 7.15 79.14 10.54
2/9/2021 3:45:00 AM -0.05 31.91 0.247 7.15 79.11 10
2/9/2021 4:00:00 AM -0.05 31.91 0.246 7.15 79.09 9.85
2/9/2021 4:15:00 AM -0.05 31.91 0.245 7.15 79.13 9.68
2/9/2021 4:30:00 AM -0.05 31.91 0.244 7.15 79.35 9.75
2/9/2021 4:45:00 AM -0.05 31.91 0.243 7.15 79.31 9.62
2/9/2021 5:00:00 AM -0.05 31.91 0.242 7.15 79.43 9.61
2/9/2021 5:15:00 AM -0.05 31.91 0.241 7.15 79.64 9.94
2/9/2021 5:30:00 AM -0.05 31.91 0.24 7.15 79.77 9.74
2/9/2021 5:45:00 AM -0.05 31.91 0.239 7.15 79.73 9.76
2/9/2021 6:00:00 AM -0.05 31.91 0.238 7.15 79.73 9.64
2/9/2021 6:15:00 AM -0.05 31.91 0.237 7.15 80.08 9.56
2/9/2021 6:30:00 AM -0.05 31.91 0.236 7.15 80.22 9.55
2/9/2021 6:45:00 AM -0.05 31.91 0.235 7.16 80.46 9.6
2/9/2021 7:00:00 AM -0.05 31.91 0.233 7.16 80.99 9.58
2/9/2021 7:15:00 AM -0.05 31.91 0.232 7.16 81.24 9.65
2/9/2021 7:30:00 AM -0.05 31.91 0.231 7.15 81.37 9.56
2/9/2021 7:45:00 AM -0.05 31.91 0.23 7.15 81.91 9.77
2/9/2021 8:00:00 AM -0.05 31.91 0.228 7.16 82.23 10.96
2/9/2021 8:15:00 AM -0.05 31.91 0.226 7.15 82.28 10.33
2/9/2021 8:30:00 AM -0.05 31.91 0.224 7.15 82.29 9.7
2/9/2021 8:45:00 AM -0.05 31.91 0.222 7.15 82.41 8.92
2/9/2021 9:00:00 AM -0.05 31.91 0.22 7.15 82.55 9.26
2/9/2021 9:15:00 AM -0.05 31.91 0.252 7.25 79 6.86
2/9/2021 9:30:00 AM -0.05 31.91 0.252 7.17 78.64 5.3
2/9/2021 9:45:00 AM -0.05 31.91 0.251 7.19 78.7 4.84
2/9/2021 10:00:00 AM -0.05 31.91 0.25 7.19 78.73 4.36
2/9/2021 10:15:00 AM -0.05 31.91 0.249 7.18 78.7 4.68
2/9/2021 10:30:00 AM -0.05 31.91 0.248 7.18 78.72 5.72
2/9/2021 10:45:00 AM -0.05 31.91 0.248 7.17 78.92 6.18
2/9/2021 11:00:00 AM -0.05 31.91 0.247 7.17 78.85 6.65
2/9/2021 11:15:00 AM -0.05 31.91 0.246 7.16 78.86 7.15
2/9/2021 11:30:00 AM -0.05 31.91 0.245 7.16 78.85 7.41
2/9/2021 11:45:00 AM -0.05 31.91 0.244 7.15 78.82 7.18
2/9/2021 12:00:00 PM -0.05 31.91 0.243 7.15 78.99 7.32
2/9/2021 12:15:00 PM -0.05 31.91 0.243 7.15 78.92 7.07
2/9/2021 12:30:00 PM -0.05 31.91 0.242 7.15 78.92 6.69
2/9/2021 12:45:00 PM -0.05 31.91 0.241 7.15 79.35 7.01
2/9/2021 1:00:00 PM -0.05 31.91 0.24 7.15 79.51 7.16
2/9/2021 1:15:00 PM -0.05 31.91 0.239 7.14 79.7 7.34
2/9/2021 1:30:00 PM -0.05 31.91 0.239 7.14 79.93 7.09
2/9/2021 1:45:00 PM -0.05 31.91 0.238 7.14 79.76 6.74
2/9/2021 2:00:00 PM -0.05 31.91 0.237 7.14 80.18 6.52
2/9/2021 2:15:00 PM -0.05 31.91 0.237 7.14 80.49 6.48
2/9/2021 2:30:00 PM -0.05 31.91 0.236 7.14 80.39 6.65
2/9/2021 2:45:00 PM -0.05 31.91 0.235 7.14 80.4 6.5
2/9/2021 3:00:00 PM -0.05 31.91 0.234 7.13 80.53 6.38
2/9/2021 3:15:00 PM -0.05 31.91 0.233 7.13 80.62 6.75
2/9/2021 3:30:00 PM -0.05 31.91 0.232 7.13 80.71 6.94
2/9/2021 3:45:00 PM -0.05 31.91 0.232 7.13 80.65 6.55
2/9/2021 4:00:00 PM -0.05 31.91 0.23 7.13 80.86 7.22
2/9/2021 4:15:00 PM -0.05 31.91 0.229 7.13 81.31 9.56
2/9/2021 4:30:00 PM -0.05 31.91 0.228 7.13 81.68 9.59
2/9/2021 4:45:00 PM -0.05 31.91 0.227 7.13 81.8 8.12
2/9/2021 5:00:00 PM -0.05 31.91 0.225 7.14 82 7.53
2/9/2021 5:15:00 PM -0.05 31.91 0.223 7.13 82.14 7.54
2/9/2021 5:30:00 PM -0.05 31.91 0.219 7.14 81.76 7.21
2/9/2021 5:45:00 PM -0.05 31.91 0.242 7.24 78.37 6.48
2/9/2021 6:00:00 PM -0.05 31.91 0.241 7.18 78.28 6.04
2/9/2021 6:15:00 PM -0.05 31.91 0.239 7.15 78.2 5.9
2/9/2021 6:30:00 PM -0.05 31.91 0.238 7.13 78.13 6.52
2/9/2021 6:45:00 PM -0.05 31.91 0.237 7.12 78.28 6.85
2/9/2021 7:00:00 PM -0.05 31.91 0.236 7.11 78.12 7.79
2/9/2021 7:15:00 PM -0.05 31.91 0.235 7.1 78.57 8.15
2/9/2021 7:30:00 PM -0.05 31.91 0.234 7.09 78.93 8.21
2/9/2021 7:45:00 PM -0.05 31.91 0.233 7.08 79.08 8.65
2/9/2021 8:00:00 PM -0.05 31.91 0.231 7.08 79.41 8.6
2/9/2021 8:15:00 PM -0.05 31.91 0.23 7.08 79.61 8.48
2/9/2021 8:30:00 PM -0.05 31.91 0.229 7.08 79.47 8.63
2/9/2021 8:45:00 PM -0.05 31.91 0.228 7.08 79.78 8.72
2/9/2021 9:00:00 PM -0.05 31.91 0.227 7.08 80.19 8.72
2/9/2021 9:15:00 PM -0.05 31.91 0.226 7.08 80.26 7.74
2/9/2021 9:30:00 PM -0.05 31.91 0.225 7.08 80.09 7.68
2/9/2021 9:45:00 PM -0.05 31.91 0.223 7.08 80.07 8.69
2/9/2021 10:00:00 PM -0.05 31.91 0.222 7.08 80.13 8.48
2/9/2021 10:15:00 PM -0.05 31.91 0.221 7.09 80.36 9.03
2/9/2021 10:30:00 PM 0.11 32.198 0.22 7.09 80.34 8.79
2/9/2021 10:45:00 PM 0.38 32.684 0.219 7.1 80.23 8.39
2/9/2021 11:00:00 PM 0.22 32.396 0.218 7.09 80.24 8.36
2/9/2021 11:15:00 PM 0.11 32.198 0.218 7.1 80.31 8.14
2/9/2021 11:30:00 PM 0.05 32.09 0.217 7.1 80.4 8.53
2/9/2021 11:45:00 PM 0.02 32.036 0.216 7.1 80.37 8.81
2/10/2021 12:00:00 AM -0.01 31.982 0.216 7.1 80.39 7.95
2/10/2021 12:15:00 AM -0.02 31.964 0.215 7.1 80.4 8.49
2/10/2021 12:30:00 AM -0.03 31.946 0.214 7.11 80.7 8.88
2/10/2021 12:45:00 AM -0.04 31.928 0.213 7.11 80.81 8.33
2/10/2021 1:00:00 AM -0.04 31.928 0.212 7.11 81.06 8.14
2/10/2021 1:15:00 AM -0.05 31.91 0.211 7.12 81.24 8.37
2/10/2021 1:30:00 AM -0.05 31.91 0.209 7.12 81.16 8.25
2/10/2021 1:45:00 AM -0.05 31.91 0.208 7.12 81.5 7.97
2/10/2021 2:00:00 AM -0.05 31.91 0.206 7.12 81.83 8.15
2/10/2021 2:15:00 AM -0.05 31.91 0.204 7.12 81.82 7.68
2/10/2021 2:30:00 AM -0.05 31.91 0.202 7.12 81.79 7.15
2/10/2021 2:45:00 AM -0.05 31.91 0.227 7.17 78.3 5.71
2/10/2021 3:00:00 AM -0.05 31.91 0.227 7.16 78.12 4.54
2/10/2021 3:15:00 AM -0.05 31.91 0.227 7.15 78.05 4.33
2/10/2021 3:30:00 AM -0.05 31.91 0.226 7.13 78.38 4.58
2/10/2021 3:45:00 AM -0.05 31.91 0.226 7.11 78.45 5.49
2/10/2021 4:00:00 AM -0.05 31.91 0.226 7.1 78.41 5.48
2/10/2021 4:15:00 AM -0.05 31.91 0.225 7.09 78.52 6.33
2/10/2021 4:30:00 AM -0.06 31.892 0.225 7.07 78.5 6.5
2/10/2021 4:45:00 AM -0.06 31.892 0.224 7.07 78.47 6.65
2/10/2021 5:00:00 AM -0.06 31.892 0.223 7.06 78.55 6.87
2/10/2021 5:15:00 AM -0.06 31.892 0.222 7.05 78.6 6.74
2/10/2021 5:30:00 AM -0.06 31.892 0.221 7.06 78.81 6.7
2/10/2021 5:45:00 AM -0.06 31.892 0.22 7.06 78.96 6.68
2/10/2021 6:00:00 AM -0.06 31.892 0.219 7.06 79.31 6.97
2/10/2021 6:15:00 AM -0.06 31.892 0.217 7.05 79.56 6.54
2/10/2021 6:30:00 AM -0.06 31.892 0.216 7.05 79.53 6.64
2/10/2021 6:45:00 AM -0.06 31.892 0.215 7.05 79.72 6.62
2/10/2021 7:00:00 AM -0.06 31.892 0.214 7.04 79.7 6.63
2/10/2021 7:15:00 AM -0.06 31.892 0.212 7.05 79.89 6.51
2/10/2021 7:30:00 AM -0.06 31.892 0.212 7.05 80.12 6.97
2/10/2021 7:45:00 AM -0.06 31.892 0.211 7.05 80.32 6.68
2/10/2021 8:00:00 AM -0.06 31.892 0.209 7.07 80.47 6.8
2/10/2021 8:15:00 AM -0.06 31.892 0.208 7.08 80.55 6.54
2/10/2021 8:30:00 AM -0.05 31.91 0.207 7.09 80.71 6.77
2/10/2021 8:45:00 AM -0.05 31.91 0.205 7.11 80.81 6.6
2/10/2021 9:00:00 AM -0.05 31.91 0.204 7.14 81.01 6.77
2/10/2021 9:15:00 AM -0.05 31.91 0.202 7.14 81.01 6.57
2/10/2021 9:30:00 AM -0.05 31.91 0.228 7.18 78.87 5.85
2/10/2021 9:45:00 AM -0.05 31.91 0.225 7.13 78.59 4.14
2/10/2021 10:00:00 AM -0.05 31.91 0.222 7.12 78.3 3.55
2/10/2021 10:15:00 AM -0.05 31.91 0.22 7.1 78.15 3.31
2/10/2021 10:30:00 AM -0.05 31.91 0.219 7.1 78.19 3.25
2/10/2021 10:45:00 AM -0.05 31.91 0.218 7.09 78.29 3.81
2/10/2021 11:00:00 AM -0.05 31.91 0.216 7.1 78.34 4.24
2/10/2021 11:15:00 AM -0.04 31.928 0.215 7.1 78.26 4.48
2/10/2021 11:30:00 AM -0.04 31.928 0.213 7.1 78.53 4.85
2/10/2021 11:45:00 AM -0.03 31.946 0.211 7.09 78.86 4.76
2/10/2021 12:00:00 PM -0.03 31.946 0.21 7.1 78.94 4.87
2/10/2021 12:15:00 PM -0.03 31.946 0.208 7.1 79.18 4.95
2/10/2021 12:30:00 PM -0.03 31.946 0.207 7.1 79.17 4.82
2/10/2021 12:45:00 PM -0.03 31.946 0.206 7.1 79.13 5.04
2/10/2021 1:00:00 PM -0.03 31.946 0.206 7.1 79.06 5.13
2/10/2021 1:15:00 PM -0.03 31.946 0.205 7.09 79.41 5.12
2/10/2021 1:30:00 PM -0.03 31.946 0.205 7.09 79.19 4.98
2/10/2021 1:45:00 PM -0.03 31.946 0.204 7.09 79.54 5.07
2/10/2021 2:00:00 PM -0.03 31.946 0.204 7.08 79.57 5.05
2/10/2021 2:15:00 PM -0.03 31.946 0.203 7.07 79.71 5.11
2/10/2021 2:30:00 PM -0.03 31.946 0.203 7.07 80.09 4.91
2/10/2021 2:45:00 PM -0.03 31.946 0.203 7.07 80.21 4.74
2/10/2021 3:00:00 PM -0.03 31.946 0.202 7.06 80.22 4.88
2/10/2021 3:15:00 PM -0.04 31.928 0.202 7.06 80.37 4.54
2/10/2021 3:30:00 PM -0.04 31.928 0.2 7.06 80.37 4.35
2/10/2021 3:45:00 PM -0.04 31.928 0.199 7.06 80.63 4.29
2/10/2021 4:00:00 PM -0.04 31.928 0.197 7.06 80.6 4.26
2/10/2021 4:15:00 PM -0.04 31.928 0.227 7.16 78.29 4.76
2/10/2021 4:30:00 PM -0.04 31.928 0.226 7.13 78.21 4.74
2/10/2021 4:45:00 PM -0.04 31.928 0.225 7.12 78.18 4.54
2/10/2021 5:00:00 PM -0.04 31.928 0.224 7.1 78.09 4.46
2/10/2021 5:15:00 PM -0.05 31.91 0.222 7.1 77.93 4.34
2/10/2021 5:30:00 PM -0.05 31.91 0.222 7.09 77.98 4.45
2/10/2021 5:45:00 PM -0.05 31.91 0.221 7.09 77.97 4.81
2/10/2021 6:00:00 PM -0.05 31.91 0.221 7.09 77.85 4.95
2/10/2021 6:15:00 PM -0.05 31.91 0.22 7.08 77.81 5.23
2/10/2021 6:30:00 PM -0.05 31.91 0.22 7.08 77.99 5.6
2/10/2021 6:45:00 PM -0.05 31.91 0.219 7.09 77.85 5.5
2/10/2021 7:00:00 PM -0.05 31.91 0.218 7.09 78.03 5.63
2/10/2021 7:15:00 PM -0.05 31.91 0.218 7.09 78.07 5.43
2/10/2021 7:30:00 PM -0.05 31.91 0.218 7.08 78.16 5.86
2/10/2021 7:45:00 PM -0.06 31.892 0.217 7.08 78.25 9.6
2/10/2021 8:00:00 PM -0.05 31.91 0.217 7.08 78.35 9.2
2/10/2021 8:15:00 PM -0.05 31.91 0.217 7.08 78.37 8.52
2/10/2021 8:30:00 PM -0.06 31.892 0.216 7.08 78.32 7.53
2/10/2021 8:45:00 PM -0.06 31.892 0.216 7.08 78.51 6.87
2/10/2021 9:00:00 PM -0.06 31.892 0.215 7.07 78.74 6.95
2/10/2021 9:15:00 PM -0.06 31.892 0.215 7.07 78.55 7.22
2/10/2021 9:30:00 PM -0.06 31.892 0.215 7.07 78.71 7.48
2/10/2021 9:45:00 PM -0.06 31.892 0.215 7.07 78.65 7.65
2/10/2021 10:00:00 PM -0.06 31.892 0.214 7.06 78.69 7.9
2/10/2021 10:15:00 PM -0.06 31.892 0.214 7.06 78.82 7.87
2/10/2021 10:30:00 PM 0 32 0.214 7.06 79.05 8.28
2/10/2021 10:45:00 PM 0.24 32.432 0.213 7.06 79.18 8.42
2/10/2021 11:00:00 PM 0.18 32.324 0.213 7.06 79.21 7.82
2/10/2021 11:15:00 PM 0.09 32.162 0.212 7.06 79.24 8.4
2/10/2021 11:30:00 PM 0.03 32.054 0.212 7.06 79.37 8.41
2/10/2021 11:45:00 PM 0 32 0.212 7.06 79.29 8.08
2/11/2021 12:00:00 AM -0.02 31.964 0.212 7.05 79.38 8.11
2/11/2021 12:15:00 AM -0.03 31.946 0.211 7.06 79.59 7.88
2/11/2021 12:30:00 AM -0.04 31.928 0.211 7.07 79.64 7.84
2/11/2021 12:45:00 AM -0.04 31.928 0.211 7.06 79.58 7.74
2/11/2021 1:00:00 AM -0.05 31.91 0.21 7.06 79.68 7.88
2/11/2021 1:15:00 AM -0.05 31.91 0.21 7.06 79.74 7.82
2/11/2021 1:30:00 AM -0.05 31.91 0.21 7.05 79.82 7.21
2/11/2021 1:45:00 AM -0.05 31.91 0.209 7.05 79.77 7.49
2/11/2021 2:00:00 AM -0.05 31.91 0.209 7.04 79.86 7.61
2/11/2021 2:15:00 AM -0.05 31.91 0.208 7.04 80.07 7.77
2/11/2021 2:30:00 AM -0.05 31.91 0.208 7.04 80.12 7.46
2/11/2021 2:45:00 AM -0.06 31.892 0.208 7.04 80.02 7.76
2/11/2021 3:00:00 AM -0.06 31.892 0.207 7.04 80.08 7.48
2/11/2021 3:15:00 AM -0.06 31.892 0.207 7.04 80.22 7.77
2/11/2021 3:30:00 AM -0.06 31.892 0.206 7.04 80.44 8.32
2/11/2021 3:45:00 AM -0.06 31.892 0.206 7.04 80.72 8.01
2/11/2021 4:00:00 AM -0.06 31.892 0.205 7.04 80.72 8.06
2/11/2021 4:15:00 AM -0.06 31.892 0.204 7.04 80.91 8.86
2/11/2021 4:30:00 AM -0.06 31.892 0.203 7.04 81.05 8.88
2/11/2021 4:45:00 AM -0.06 31.892 0.203 7.03 81.27 8.08
2/11/2021 5:00:00 AM -0.06 31.892 0.202 7.03 81.19 8.16
2/11/2021 5:15:00 AM -0.06 31.892 0.201 7.04 81.35 7.87
2/11/2021 5:30:00 AM -0.06 31.892 0.2 7.04 81.39 7.64
2/11/2021 5:45:00 AM -0.06 31.892 0.2 7.04 81.44 7.77
2/11/2021 6:00:00 AM -0.06 31.892 0.199 7.04 81.29 7.58
2/11/2021 6:15:00 AM -0.06 31.892 0.198 7.05 81.39 7
2/11/2021 6:30:00 AM -0.06 31.892 0.197 7.04 81.24 6.96
2/11/2021 6:45:00 AM -0.06 31.892 0.236 7.17 78.34 6.89
2/11/2021 7:00:00 AM -0.06 31.892 0.233 7.11 78.39 6.76
2/11/2021 7:15:00 AM -0.06 31.892 0.232 7.1 78.32 6.16
2/11/2021 7:30:00 AM -0.06 31.892 0.231 7.1 78.46 6.22
2/11/2021 7:45:00 AM -0.06 31.892 0.23 7.09 78.51 6.38
2/11/2021 8:00:00 AM -0.06 31.892 0.229 7.09 78.34 6.33
2/11/2021 8:15:00 AM -0.06 31.892 0.229 7.08 78.33 6.84
2/11/2021 8:30:00 AM -0.06 31.892 0.228 7.08 78.28 7.37
2/11/2021 8:45:00 AM -0.06 31.892 0.228 7.07 78.11 8.06
2/11/2021 9:00:00 AM -0.06 31.892 0.228 7.07 78.08 8.48
2/11/2021 9:15:00 AM -0.06 31.892 0.228 7.07 78.17 9.01
2/11/2021 9:30:00 AM -0.06 31.892 0.227 7.06 78.29 9.19
2/11/2021 9:45:00 AM -0.06 31.892 0.227 7.06 78.31 9.08
2/11/2021 10:00:00 AM -0.06 31.892 0.226 7.06 78.54 9.64
2/11/2021 10:15:00 AM -0.06 31.892 0.226 7.06 78.42 11.83
2/11/2021 10:30:00 AM -0.06 31.892 0.225 7.06 78.7 11.46
2/11/2021 10:45:00 AM -0.05 31.91 0.225 7.05 78.84 10.78
2/11/2021 11:00:00 AM -0.05 31.91 0.225 7.05 78.76 10.24
2/11/2021 11:15:00 AM -0.05 31.91 0.224 7.05 78.85 10.38
2/11/2021 11:30:00 AM -0.05 31.91 0.224 7.05 79.04 10.34
2/11/2021 11:45:00 AM -0.05 31.91 0.223 7.05 78.89 10.17
2/11/2021 12:00:00 PM -0.05 31.91 0.222 7.05 79.32 10.54
2/11/2021 12:15:00 PM -0.05 31.91 0.221 7.05 79.27 10.05
2/11/2021 12:30:00 PM -0.05 31.91 0.221 7.05 79.46 10.09
2/11/2021 12:45:00 PM -0.05 31.91 0.22 7.05 79.54 10.4
2/11/2021 1:00:00 PM -0.05 31.91 0.219 7.05 79.59 9.87
2/11/2021 1:15:00 PM -0.05 31.91 0.219 7.05 79.76 10.03
2/11/2021 1:30:00 PM -0.05 31.91 0.218 7.05 79.75 9.81
2/11/2021 1:45:00 PM -0.05 31.91 0.218 7.05 79.98 9.88
2/11/2021 2:00:00 PM -0.05 31.91 0.217 7.05 79.93 10.53
2/11/2021 2:15:00 PM -0.05 31.91 0.216 7.05 80.18 10
2/11/2021 2:30:00 PM -0.05 31.91 0.216 7.05 80.34 10.13
2/11/2021 2:45:00 PM -0.05 31.91 0.215 7.05 80.45 10.26
2/11/2021 3:00:00 PM -0.05 31.91 0.215 7.05 80.37 10.1
2/11/2021 3:15:00 PM -0.05 31.91 0.214 7.05 80.6 10.22
2/11/2021 3:30:00 PM -0.05 31.91 0.214 7.05 80.8 10.06
2/11/2021 3:45:00 PM -0.05 31.91 0.213 7.04 80.82 10.26
2/11/2021 4:00:00 PM -0.06 31.892 0.213 7.04 80.86 10.23
2/11/2021 4:15:00 PM -0.05 31.91 0.212 7.04 81.13 9.91
2/11/2021 4:30:00 PM -0.06 31.892 0.212 7.04 81.07 9.96
2/11/2021 4:45:00 PM -0.06 31.892 0.211 7.04 81.09 9.88
2/11/2021 5:00:00 PM -0.06 31.892 0.211 7.04 81.21 9.38
2/11/2021 5:15:00 PM -0.06 31.892 0.21 7.04 81.19 9.29
2/11/2021 5:30:00 PM -0.06 31.892 0.209 7.04 81.29 8.92
2/11/2021 5:45:00 PM -0.06 31.892 0.208 7.04 81.32 9.15
2/11/2021 6:00:00 PM -0.06 31.892 0.207 7.04 81.4 8.34
2/11/2021 6:15:00 PM -0.06 31.892 0.205 7.04 81.28 7.96
2/11/2021 6:30:00 PM -0.06 31.892 0.204 7.04 81.58 8.68
2/11/2021 6:45:00 PM -0.06 31.892 0.203 7.04 81.54 8.71
2/11/2021 7:00:00 PM -0.06 31.892 0.202 7.05 81.44 8.82
2/11/2021 7:15:00 PM -0.06 31.892 0.2 7.05 81.65 8.95
2/11/2021 7:30:00 PM -0.06 31.892 0.199 7.05 81.67 8.96
2/11/2021 7:45:00 PM -0.06 31.892 0.198 7.05 81.73 8.98
2/11/2021 8:00:00 PM -0.06 31.892 0.232 7.12 78.93 8.5
2/11/2021 8:15:00 PM -0.06 31.892 0.231 7.15 78.81 7.98
2/11/2021 8:30:00 PM -0.06 31.892 0.229 7.15 78.96 8.96
2/11/2021 8:45:00 PM -0.06 31.892 0.229 7.15 79.14 9.41
2/11/2021 9:00:00 PM -0.06 31.892 0.228 7.15 79.05 9.42
2/11/2021 9:15:00 PM -0.06 31.892 0.228 7.15 79.06 9.71
2/11/2021 9:30:00 PM -0.06 31.892 0.228 7.14 78.95 10.05
2/11/2021 9:45:00 PM -0.06 31.892 0.227 7.14 78.9 10.54
2/11/2021 10:00:00 PM -0.06 31.892 0.227 7.14 79.06 10.32
2/11/2021 10:15:00 PM -0.06 31.892 0.227 7.13 79.13 10.53
2/11/2021 10:30:00 PM 0.02 32.036 0.226 7.12 79.08 10.98
2/11/2021 10:45:00 PM 0.23 32.414 0.226 7.13 78.94 10.83
2/11/2021 11:00:00 PM 0.1 32.18 0.226 7.12 79.19 11.14
2/11/2021 11:15:00 PM 0.03 32.054 0.226 7.12 79.12 11.3
2/11/2021 11:30:00 PM 0 32 0.225 7.11 79.15 11.37
2/11/2021 11:45:00 PM -0.03 31.946 0.225 7.11 79.32 11.47
2/12/2021 12:00:00 AM -0.04 31.928 0.224 7.11 79.48 11.75
2/12/2021 12:15:00 AM -0.05 31.91 0.224 7.11 79.94 11.34
2/12/2021 12:30:00 AM -0.05 31.91 0.223 7.11 80.08 11.46
2/12/2021 12:45:00 AM -0.05 31.91 0.222 7.11 80.31 11.2
2/12/2021 1:00:00 AM -0.05 31.91 0.222 7.11 80.25 11.39
2/12/2021 1:15:00 AM -0.06 31.892 0.222 7.11 80.3 11.09
2/12/2021 1:30:00 AM -0.06 31.892 0.221 7.11 80.42 11.02
2/12/2021 1:45:00 AM -0.06 31.892 0.221 7.11 80.55 11.06
2/12/2021 2:00:00 AM -0.06 31.892 0.22 7.11 80.93 10.85
2/12/2021 2:15:00 AM -0.06 31.892 0.219 7.11 81.31 10.98
2/12/2021 2:30:00 AM -0.06 31.892 0.219 7.11 81.43 10.5
2/12/2021 2:45:00 AM -0.06 31.892 0.218 7.11 81.67 11.07
2/12/2021 3:00:00 AM -0.06 31.892 0.218 7.11 81.74 11
2/12/2021 3:15:00 AM -0.06 31.892 0.217 7.11 82.31 10.76
2/12/2021 3:30:00 AM -0.06 31.892 0.216 7.11 82.58 10.79
2/12/2021 3:45:00 AM -0.06 31.892 0.215 7.11 82.62 11.48
2/12/2021 4:00:00 AM -0.06 31.892 0.214 7.11 83.19 11.47
2/12/2021 4:15:00 AM -0.06 31.892 0.212 7.11 83.2 11.14
2/12/2021 4:30:00 AM -0.06 31.892 0.208 7.12 83.5 10.91
2/12/2021 4:45:00 AM -0.06 31.892 0.203 7.12 83.11 10.89
2/12/2021 5:00:00 AM -0.06 31.892 0.225 7.15 79.94 9.17
2/12/2021 5:15:00 AM -0.06 31.892 0.224 7.15 79.72 6.76
2/12/2021 5:30:00 AM -0.06 31.892 0.222 7.16 79.54 7.79
2/12/2021 5:45:00 AM -0.06 31.892 0.221 7.17 79.37 7.94
2/12/2021 6:00:00 AM -0.06 31.892 0.22 7.16 79.28 8.53
2/12/2021 6:15:00 AM -0.06 31.892 0.219 7.16 79.3 9.01
2/12/2021 6:30:00 AM -0.06 31.892 0.218 7.16 79.5 8.94
2/12/2021 6:45:00 AM -0.06 31.892 0.217 7.16 79.67 9.27
2/12/2021 7:00:00 AM -0.06 31.892 0.216 7.16 79.8 9.53
2/12/2021 7:15:00 AM -0.06 31.892 0.216 7.15 79.69 9.68
2/12/2021 7:30:00 AM -0.06 31.892 0.216 7.15 79.84 9.85
2/12/2021 7:45:00 AM -0.06 31.892 0.215 7.15 79.91 9.9
2/12/2021 8:00:00 AM -0.06 31.892 0.215 7.15 79.96 9.8
2/12/2021 8:15:00 AM -0.06 31.892 0.214 7.15 80.05 9.77
2/12/2021 8:30:00 AM -0.06 31.892 0.214 7.15 80.03 10.4
2/12/2021 8:45:00 AM -0.06 31.892 0.214 7.15 80.18 10.29
2/12/2021 9:00:00 AM -0.06 31.892 0.213 7.15 80.1 10.05
2/12/2021 9:15:00 AM -0.06 31.892 0.213 7.15 80.05 9.23
2/12/2021 9:30:00 AM -0.06 31.892 0.213 7.15 80.13 8.94
2/12/2021 9:45:00 AM -0.06 31.892 0.213 7.15 80.25 8.87
2/12/2021 10:00:00 AM -0.06 31.892 0.213 7.15 80.1 8.83
2/12/2021 10:15:00 AM -0.06 31.892 0.213 7.15 80.23 8.89
2/12/2021 10:30:00 AM -0.06 31.892 0.213 7.15 80.34 9.02
2/12/2021 10:45:00 AM -0.06 31.892 0.213 7.15 80.58 8.87
2/12/2021 11:00:00 AM -0.06 31.892 0.212 7.15 80.66 8.89
2/12/2021 11:15:00 AM -0.06 31.892 0.212 7.15 80.49 8.77
2/12/2021 11:30:00 AM -0.06 31.892 0.211 7.15 80.71 8.99
2/12/2021 11:45:00 AM -0.06 31.892 0.211 7.15 80.32 9.07
2/12/2021 12:00:00 PM -0.06 31.892 0.211 7.15 80.47 9.13
2/12/2021 12:15:00 PM -0.06 31.892 0.211 7.15 80.41 9.52
2/12/2021 12:30:00 PM -0.06 31.892 0.211 7.16 80.71 9.72
2/12/2021 12:45:00 PM -0.06 31.892 0.211 7.16 80.89 9.49
2/12/2021 1:00:00 PM -0.06 31.892 0.21 7.16 80.94 9.53
2/12/2021 1:15:00 PM -0.06 31.892 0.21 7.16 81.1 9.41
2/12/2021 1:30:00 PM -0.06 31.892 0.21 7.16 81.36 9.39
2/12/2021 1:45:00 PM -0.06 31.892 0.209 7.16 81.47 9.62
2/12/2021 2:00:00 PM -0.06 31.892 0.209 7.16 81.89 9.34
2/12/2021 2:15:00 PM -0.06 31.892 0.209 7.16 82.03 9.23
2/12/2021 2:30:00 PM -0.06 31.892 0.209 7.16 82.39 9.27
2/12/2021 2:45:00 PM -0.06 31.892 0.208 7.16 82.24 9.54
2/12/2021 3:00:00 PM -0.06 31.892 0.208 7.16 82.56 9.37
2/12/2021 3:15:00 PM -0.06 31.892 0.208 7.16 82.88 9.59
2/12/2021 3:30:00 PM -0.06 31.892 0.207 7.16 83.03 9.4
2/12/2021 3:45:00 PM -0.06 31.892 0.207 7.16 82.85 9.03
2/12/2021 4:00:00 PM -0.06 31.892 0.207 7.16 83.17 8.74
2/12/2021 4:15:00 PM -0.06 31.892 0.207 7.16 83.69 9.28
2/12/2021 4:30:00 PM -0.06 31.892 0.207 7.16 84.3 9.31
2/12/2021 4:45:00 PM -0.06 31.892 0.207 7.16 84.11 9.45
2/12/2021 5:00:00 PM -0.06 31.892 0.206 7.16 84.54 9.7
2/12/2021 5:15:00 PM -0.06 31.892 0.206 7.16 84.9 9.33
2/12/2021 5:30:00 PM -0.06 31.892 0.206 7.16 85.18 9.44
2/12/2021 5:45:00 PM -0.06 31.892 0.206 7.16 85.39 9.27
2/12/2021 6:00:00 PM -0.06 31.892 0.206 7.16 85.3 9.59
2/12/2021 6:15:00 PM -0.06 31.892 0.206 7.16 85.63 9.72
2/12/2021 6:30:00 PM -0.06 31.892 0.206 7.16 86.48 10.01
2/12/2021 6:45:00 PM -0.06 31.892 0.205 7.15 86.58 9.65
2/12/2021 7:00:00 PM -0.06 31.892 0.205 7.15 86.75 9.48
2/12/2021 7:15:00 PM -0.06 31.892 0.205 7.15 86.92 9.85
2/12/2021 7:30:00 PM -0.06 31.892 0.205 7.15 86.71 10.28
2/12/2021 7:45:00 PM -0.06 31.892 0.205 7.15 87.2 9.8
2/12/2021 8:00:00 PM -0.06 31.892 0.205 7.15 86.97 9.78
2/12/2021 8:15:00 PM -0.06 31.892 0.205 7.15 87.2 9.25
2/12/2021 8:30:00 PM -0.06 31.892 0.205 7.15 87.31 9.85
2/12/2021 8:45:00 PM -0.06 31.892 0.205 7.14 87.16 9.98
2/12/2021 9:00:00 PM -0.06 31.892 0.205 7.14 87.24 9.44
2/12/2021 9:15:00 PM -0.06 31.892 0.205 7.14 87.08 9.45
2/12/2021 9:30:00 PM -0.06 31.892 0.205 7.14 87.44 9.19
2/12/2021 9:45:00 PM -0.06 31.892 0.204 7.14 87.73 9.36
2/12/2021 10:00:00 PM -0.06 31.892 0.204 7.14 87.97 9.67
2/12/2021 10:15:00 PM -0.06 31.892 0.203 7.14 88.04 10.64
2/12/2021 10:30:00 PM 0.16 32.288 0.202 7.14 88.55 11.44
2/12/2021 10:45:00 PM 0.19 32.342 0.201 7.15 88.15 9.71
2/12/2021 11:00:00 PM 0.06 32.108 0.2 7.14 88.88 9.13
2/12/2021 11:15:00 PM 0 32 0.198 7.14 88.96 8.74
2/12/2021 11:30:00 PM -0.02 31.964 0.196 7.13 88.71 8.72
2/12/2021 11:45:00 PM -0.04 31.928 0.226 7.19 82.78 9.37
2/13/2021 12:00:00 AM -0.05 31.91 0.226 7.17 82.6 11.16
2/13/2021 12:15:00 AM -0.05 31.91 0.226 7.17 82.62 11.62
2/13/2021 12:30:00 AM -0.06 31.892 0.225 7.17 82.39 12.13
2/13/2021 12:45:00 AM -0.06 31.892 0.224 7.17 82.29 12.21
2/13/2021 1:00:00 AM -0.06 31.892 0.223 7.17 82.32 12.21
2/13/2021 1:15:00 AM -0.06 31.892 0.223 7.16 82.4 12.49
2/13/2021 1:30:00 AM -0.06 31.892 0.223 7.16 82.37 12.42
2/13/2021 1:45:00 AM -0.06 31.892 0.222 7.15 82.48 12.83
2/13/2021 2:00:00 AM -0.06 31.892 0.222 7.15 82.18 12.59
2/13/2021 2:15:00 AM -0.06 31.892 0.221 7.15 82.31 12.58
2/13/2021 2:30:00 AM -0.06 31.892 0.221 7.14 82.3 12.81
2/13/2021 2:45:00 AM -0.06 31.892 0.22 7.14 82.36 12.59
2/13/2021 3:00:00 AM -0.06 31.892 0.22 7.14 82.46 12.37
2/13/2021 3:15:00 AM -0.06 31.892 0.219 7.14 82.48 12.7
2/13/2021 3:30:00 AM -0.06 31.892 0.219 7.14 82.19 12.84
2/13/2021 3:45:00 AM -0.06 31.892 0.218 7.14 82.34 12.42
2/13/2021 4:00:00 AM -0.06 31.892 0.217 7.13 82.41 12.58
2/13/2021 4:15:00 AM -0.07 31.874 0.217 7.14 82.3 12.74
2/13/2021 4:30:00 AM -0.07 31.874 0.216 7.14 82.37 12.97
2/13/2021 4:45:00 AM -0.07 31.874 0.216 7.14 82.45 12.93
2/13/2021 5:00:00 AM -0.07 31.874 0.215 7.14 82.72 12.9
2/13/2021 5:15:00 AM -0.07 31.874 0.215 7.14 82.75 12.75
2/13/2021 5:30:00 AM -0.07 31.874 0.214 7.14 82.82 12.85
2/13/2021 5:45:00 AM -0.07 31.874 0.214 7.13 83.31 13.08
2/13/2021 6:00:00 AM -0.07 31.874 0.213 7.13 83.51 13.05
2/13/2021 6:15:00 AM -0.07 31.874 0.213 7.14 83.64 13.07
2/13/2021 6:30:00 AM -0.07 31.874 0.213 7.13 83.96 13.1
2/13/2021 6:45:00 AM -0.07 31.874 0.212 7.13 83.95 13.03
2/13/2021 7:00:00 AM -0.07 31.874 0.212 7.13 83.78 13.19
2/13/2021 7:15:00 AM -0.07 31.874 0.212 7.13 84.13 13.17
2/13/2021 7:30:00 AM -0.07 31.874 0.212 7.13 84.08 13.23
2/13/2021 7:45:00 AM -0.07 31.874 0.211 7.13 84.35 13.24
2/13/2021 8:00:00 AM -0.07 31.874 0.211 7.13 84.07 13.25
2/13/2021 8:15:00 AM -0.07 31.874 0.211 7.13 83.85 13.24
2/13/2021 8:30:00 AM -0.07 31.874 0.211 7.13 83.58 13.27
2/13/2021 8:45:00 AM -0.07 31.874 0.21 7.13 83.74 13.32
2/13/2021 9:00:00 AM -0.07 31.874 0.21 7.14 84.28 13.28
2/13/2021 9:15:00 AM -0.07 31.874 0.209 7.14 84.27 13.26
2/13/2021 9:30:00 AM -0.07 31.874 0.209 7.13 84.65 13.24
2/13/2021 9:45:00 AM -0.07 31.874 0.208 7.13 84.62 13.26
2/13/2021 10:00:00 AM -0.07 31.874 0.208 7.13 84.89 13.31
2/13/2021 10:15:00 AM -0.07 31.874 0.207 7.14 84.86 13.34
2/13/2021 10:30:00 AM -0.07 31.874 0.206 7.14 85.27 13.32
2/13/2021 10:45:00 AM -0.07 31.874 0.205 7.13 85.2 13.23
2/13/2021 11:00:00 AM -0.07 31.874 0.204 7.13 85.55 13.27
2/13/2021 11:15:00 AM -0.07 31.874 0.203 7.13 86.27 13.12
2/13/2021 11:30:00 AM -0.07 31.874 0.202 7.13 86.83 13.07
2/13/2021 11:45:00 AM -0.06 31.892 0.2 7.13 87.15 12.96
2/13/2021 12:00:00 PM -0.06 31.892 0.198 7.13 87.36 12.57
2/13/2021 12:15:00 PM -0.06 31.892 0.196 7.13 87.51 12.36
2/13/2021 12:30:00 PM -0.06 31.892 0.225 7.15 81.58 11.08
2/13/2021 12:45:00 PM -0.06 31.892 0.224 7.17 81.56 13.03
2/13/2021 1:00:00 PM -0.06 31.892 0.223 7.18 81.34 13.04
2/13/2021 1:15:00 PM -0.06 31.892 0.222 7.18 80.95 13.03
2/13/2021 1:30:00 PM -0.06 31.892 0.221 7.18 80.88 13.2
2/13/2021 1:45:00 PM -0.06 31.892 0.221 7.18 80.72 13.28
2/13/2021 2:00:00 PM -0.06 31.892 0.22 7.18 80.76 13.23
2/13/2021 2:15:00 PM -0.06 31.892 0.22 7.18 80.56 13.35
2/13/2021 2:30:00 PM -0.06 31.892 0.22 7.18 80.52 13.32
2/13/2021 2:45:00 PM -0.06 31.892 0.219 7.18 80.61 13.15
2/13/2021 3:00:00 PM -0.06 31.892 0.219 7.17 80.6 13.29
2/13/2021 3:15:00 PM -0.06 31.892 0.219 7.17 80.89 13.16
2/13/2021 3:30:00 PM -0.05 31.91 0.218 7.17 80.76 13.33
2/13/2021 3:45:00 PM 0.13 32.234 0.218 7.18 80.8 13.03
2/13/2021 4:00:00 PM 0.03 32.054 0.218 7.18 80.95 13.15
2/13/2021 4:15:00 PM -0.02 31.964 0.217 7.17 80.8 13.05
2/13/2021 4:30:00 PM -0.04 31.928 0.217 7.17 81.09 13.03
2/13/2021 4:45:00 PM -0.05 31.91 0.216 7.17 80.87 13.09
2/13/2021 5:00:00 PM -0.05 31.91 0.216 7.17 80.9 13.1
2/13/2021 5:15:00 PM -0.06 31.892 0.215 7.17 80.87 13.01
2/13/2021 5:30:00 PM -0.06 31.892 0.215 7.17 81 13.06
2/13/2021 5:45:00 PM -0.06 31.892 0.214 7.17 81.19 13.09
2/13/2021 6:00:00 PM -0.06 31.892 0.214 7.16 81.02 13.06
2/13/2021 6:15:00 PM -0.06 31.892 0.213 7.16 81.35 12.95
2/13/2021 6:30:00 PM -0.06 31.892 0.213 7.16 81.23 13.01
2/13/2021 6:45:00 PM -0.06 31.892 0.212 7.16 81.31 12.85
2/13/2021 7:00:00 PM -0.06 31.892 0.212 7.16 81.28 12.86
2/13/2021 7:15:00 PM -0.06 31.892 0.212 7.16 81.36 12.94
2/13/2021 7:30:00 PM -0.06 31.892 0.211 7.16 81.4 12.93
2/13/2021 7:45:00 PM -0.06 31.892 0.211 7.16 81.42 12.95
2/13/2021 8:00:00 PM -0.07 31.874 0.211 7.16 81.18 12.9
2/13/2021 8:15:00 PM -0.07 31.874 0.21 7.16 81.38 12.92
2/13/2021 8:30:00 PM -0.07 31.874 0.21 7.16 81.42 12.89
2/13/2021 8:45:00 PM -0.07 31.874 0.21 7.16 81.37 12.81
2/13/2021 9:00:00 PM -0.07 31.874 0.21 7.16 81.29 12.96
2/13/2021 9:15:00 PM -0.07 31.874 0.209 7.16 81.2 12.92
2/13/2021 9:30:00 PM -0.07 31.874 0.209 7.16 81.22 12.96
2/13/2021 9:45:00 PM -0.07 31.874 0.209 7.16 81.08 12.86
2/13/2021 10:00:00 PM -0.07 31.874 0.209 7.16 81.25 12.88
2/13/2021 10:15:00 PM -0.07 31.874 0.209 7.16 81.34 12.65
2/13/2021 10:30:00 PM -0.07 31.874 0.208 7.16 81.4 12.75
2/13/2021 10:45:00 PM -0.07 31.874 0.208 7.16 81.25 12.83
2/13/2021 11:00:00 PM -0.07 31.874 0.208 7.16 81.42 12.88
2/13/2021 11:15:00 PM -0.07 31.874 0.208 7.16 81.26 12.78
2/13/2021 11:30:00 PM -0.07 31.874 0.207 7.16 81.23 12.93
2/13/2021 11:45:00 PM -0.07 31.874 0.207 7.16 81.2 12.89
2/14/2021 12:00:00 AM -0.07 31.874 0.207 7.16 81.14 12.79
2/14/2021 12:15:00 AM -0.07 31.874 0.206 7.16 81.11 12.86
2/14/2021 12:30:00 AM -0.07 31.874 0.206 7.16 81.1 12.86
2/14/2021 12:45:00 AM -0.07 31.874 0.206 7.16 81.1 12.91
2/14/2021 1:00:00 AM -0.07 31.874 0.205 7.16 81.09 12.82
2/14/2021 1:15:00 AM -0.07 31.874 0.205 7.16 81.06 12.77
2/14/2021 1:30:00 AM -0.07 31.874 0.204 7.16 81.16 12.78
2/14/2021 1:45:00 AM -0.07 31.874 0.204 7.16 81.05 12.79
2/14/2021 2:00:00 AM -0.07 31.874 0.203 7.16 81.23 12.49
2/14/2021 2:15:00 AM -0.07 31.874 0.202 7.16 80.97 12.66
2/14/2021 2:30:00 AM -0.07 31.874 0.2 7.16 81.01 12.6
2/14/2021 2:45:00 AM -0.07 31.874 0.199 7.16 81.12 12.71
2/14/2021 3:00:00 AM -0.07 31.874 0.198 7.16 81.06 12.73
2/14/2021 3:15:00 AM -0.07 31.874 0.197 7.16 81.02 12.63
2/14/2021 3:30:00 AM -0.07 31.874 0.196 7.16 80.97 12.65
2/14/2021 3:45:00 AM -0.07 31.874 0.194 7.16 80.82 12.37
2/14/2021 4:00:00 AM -0.07 31.874 0.192 7.16 80.68 12.54
2/14/2021 4:15:00 AM -0.07 31.874 0.229 7.21 79.48 10.74
2/14/2021 4:30:00 AM -0.07 31.874 0.23 7.2 79.54 11.03
2/14/2021 4:45:00 AM -0.07 31.874 0.229 7.21 79.82 11.43
2/14/2021 5:00:00 AM -0.07 31.874 0.228 7.21 80.06 11.63
2/14/2021 5:15:00 AM -0.07 31.874 0.227 7.21 80.11 11.45
2/14/2021 5:30:00 AM -0.07 31.874 0.227 7.21 80.12 11.62
2/14/2021 5:45:00 AM -0.07 31.874 0.226 7.2 80.28 12.09
2/14/2021 6:00:00 AM -0.07 31.874 0.225 7.2 80.3 11.83
2/14/2021 6:15:00 AM -0.07 31.874 0.225 7.2 80.16 11.75
2/14/2021 6:30:00 AM -0.07 31.874 0.224 7.2 80.16 11.78
2/14/2021 6:45:00 AM -0.07 31.874 0.224 7.19 80.28 11.87
2/14/2021 7:00:00 AM -0.07 31.874 0.224 7.19 80.05 11.83
2/14/2021 7:15:00 AM -0.07 31.874 0.223 7.19 80.1 11.78
2/14/2021 7:30:00 AM -0.07 31.874 0.223 7.18 80.2 11.93
2/14/2021 7:45:00 AM -0.07 31.874 0.223 7.18 80.24 11.87
2/14/2021 8:00:00 AM -0.07 31.874 0.222 7.18 80.25 11.93
2/14/2021 8:15:00 AM -0.07 31.874 0.222 7.18 80.42 11.74
2/14/2021 8:30:00 AM -0.07 31.874 0.221 7.18 80.43 11.81
2/14/2021 8:45:00 AM 0.2 32.36 0.221 7.18 80.44 11.29
2/14/2021 9:00:00 AM 0.07 32.126 0.221 7.18 80.39 11.72
2/14/2021 9:15:00 AM 0.01 32.018 0.22 7.18 80.34 11.72
2/14/2021 9:30:00 AM -0.02 31.964 0.22 7.17 80.3 11.54
2/14/2021 9:45:00 AM -0.04 31.928 0.22 7.17 80.23 11.54
2/14/2021 10:00:00 AM -0.05 31.91 0.219 7.17 80.24 11.75
2/14/2021 10:15:00 AM -0.05 31.91 0.219 7.17 80.25 11.52
2/14/2021 10:30:00 AM -0.05 31.91 0.218 7.17 80.22 11.61
2/14/2021 10:45:00 AM -0.05 31.91 0.218 7.16 80.38 11.51
2/14/2021 11:00:00 AM -0.05 31.91 0.217 7.16 80.45 11.48
2/14/2021 11:15:00 AM -0.06 31.892 0.217 7.16 80.47 11.12
2/14/2021 11:30:00 AM -0.06 31.892 0.217 7.16 80.53 11.17
2/14/2021 11:45:00 AM -0.06 31.892 0.216 7.16 80.33 11.28
2/14/2021 12:00:00 PM -0.06 31.892 0.216 7.16 80.57 11.46
2/14/2021 12:15:00 PM -0.06 31.892 0.216 7.16 80.68 11.51
2/14/2021 12:30:00 PM -0.06 31.892 0.215 7.16 80.61 11.73
2/14/2021 12:45:00 PM -0.06 31.892 0.215 7.16 80.82 11.66
2/14/2021 1:00:00 PM -0.06 31.892 0.215 7.16 80.87 11.5
2/14/2021 1:15:00 PM -0.06 31.892 0.215 7.16 80.89 11.56
2/14/2021 1:30:00 PM -0.06 31.892 0.214 7.16 81 11.63
2/14/2021 1:45:00 PM -0.06 31.892 0.214 7.16 81.1 11.5
2/14/2021 2:00:00 PM -0.06 31.892 0.214 7.16 81.03 11.44
2/14/2021 2:15:00 PM -0.06 31.892 0.213 7.16 81.09 11.37
2/14/2021 2:30:00 PM -0.06 31.892 0.213 7.16 81.24 11.3
2/14/2021 2:45:00 PM -0.06 31.892 0.212 7.16 81.3 11.55
2/14/2021 3:00:00 PM -0.06 31.892 0.212 7.15 81.36 11.49
2/14/2021 3:15:00 PM -0.06 31.892 0.212 7.15 81.2 11.42
2/14/2021 3:30:00 PM -0.06 31.892 0.211 7.15 81.1 11.59
2/14/2021 3:45:00 PM -0.06 31.892 0.211 7.15 80.94 11.68
2/14/2021 4:00:00 PM -0.06 31.892 0.211 7.15 81 11.88
2/14/2021 4:15:00 PM -0.06 31.892 0.211 7.15 81.02 11.75
2/14/2021 4:30:00 PM -0.06 31.892 0.211 7.15 81.06 11.42
2/14/2021 4:45:00 PM -0.06 31.892 0.211 7.15 81.07 11.23
2/14/2021 5:00:00 PM -0.07 31.874 0.21 7.14 81.17 11.59
2/14/2021 5:15:00 PM -0.07 31.874 0.21 7.14 81.24 11.5
2/14/2021 5:30:00 PM -0.07 31.874 0.21 7.14 81.34 11.54
2/14/2021 5:45:00 PM -0.07 31.874 0.209 7.14 81.1 11.62
2/14/2021 6:00:00 PM -0.07 31.874 0.209 7.14 81.09 11.67
2/14/2021 6:15:00 PM -0.07 31.874 0.209 7.14 80.96 11.63
2/14/2021 6:30:00 PM -0.07 31.874 0.208 7.14 81.01 11.74
2/14/2021 6:45:00 PM -0.07 31.874 0.207 7.14 81.01 11.83
2/14/2021 7:00:00 PM -0.07 31.874 0.206 7.14 80.92 11.83
2/14/2021 7:15:00 PM -0.07 31.874 0.204 7.13 81.05 11.76
2/14/2021 7:30:00 PM -0.07 31.874 0.203 7.14 80.9 11.68
2/14/2021 7:45:00 PM -0.07 31.874 0.201 7.14 80.68 11.81
2/14/2021 8:00:00 PM -0.07 31.874 0.199 7.14 80.6 12.14
2/14/2021 8:15:00 PM -0.07 31.874 0.196 7.14 80.43 12.19
2/14/2021 8:30:00 PM -0.07 31.874 0.194 7.14 80.25 12.41
2/14/2021 8:45:00 PM -0.07 31.874 0.238 7.16 78.83 9.16
2/14/2021 9:00:00 PM -0.07 31.874 0.236 7.16 78.99 12.76
2/14/2021 9:15:00 PM -0.07 31.874 0.233 7.14 79.01 13.31
2/14/2021 9:30:00 PM -0.07 31.874 0.232 7.15 79.06 13.36
2/14/2021 9:45:00 PM -0.07 31.874 0.232 7.15 79.09 13.28
2/14/2021 10:00:00 PM -0.07 31.874 0.231 7.15 79.04 13.2
2/14/2021 10:15:00 PM -0.07 31.874 0.23 7.15 79.23 13.18
2/14/2021 10:30:00 PM -0.07 31.874 0.23 7.15 79.37 13.32
2/14/2021 10:45:00 PM -0.07 31.874 0.229 7.15 79.49 13.36
2/14/2021 11:00:00 PM -0.07 31.874 0.229 7.15 79.42 13.21
2/14/2021 11:15:00 PM -0.07 31.874 0.229 7.15 79.34 13.35
2/14/2021 11:30:00 PM -0.07 31.874 0.228 7.15 79.49 13.29
2/14/2021 11:45:00 PM -0.07 31.874 0.228 7.16 79.5 13.28
2/15/2021 12:00:00 AM -0.07 31.874 0.228 7.15 79.42 13.37
2/15/2021 12:15:00 AM -0.07 31.874 0.228 7.15 79.45 13.28
2/15/2021 12:30:00 AM -0.07 31.874 0.228 7.15 79.4 13.09
2/15/2021 12:45:00 AM 0.14 32.252 0.228 7.15 79.45 12.8
2/15/2021 1:00:00 AM 0.05 32.09 0.228 7.15 79.52 13.11
2/15/2021 1:15:00 AM -0.01 31.982 0.228 7.15 79.55 13.11
2/15/2021 1:30:00 AM -0.03 31.946 0.228 7.14 79.65 13.12
2/15/2021 1:45:00 AM -0.04 31.928 0.228 7.14 79.53 12.9
2/15/2021 2:00:00 AM -0.05 31.91 0.228 7.14 79.76 13.39
2/15/2021 2:15:00 AM -0.06 31.892 0.228 7.14 79.56 13.24
2/15/2021 2:30:00 AM -0.06 31.892 0.228 7.14 79.66 13.12
2/15/2021 2:45:00 AM -0.06 31.892 0.228 7.14 79.85 13.29
2/15/2021 3:00:00 AM -0.06 31.892 0.228 7.13 79.75 13.09
2/15/2021 3:15:00 AM -0.06 31.892 0.228 7.13 79.8 12.92
2/15/2021 3:30:00 AM -0.06 31.892 0.228 7.13 79.74 12.8
2/15/2021 3:45:00 AM -0.06 31.892 0.228 7.13 79.83 12.76
2/15/2021 4:00:00 AM -0.06 31.892 0.228 7.13 79.98 12.79
2/15/2021 4:15:00 AM -0.06 31.892 0.228 7.13 80.01 12.84
2/15/2021 4:30:00 AM -0.06 31.892 0.228 7.13 79.92 12.84
2/15/2021 4:45:00 AM -0.07 31.874 0.228 7.13 80.03 12.83
2/15/2021 5:00:00 AM -0.07 31.874 0.228 7.13 80.02 12.75
2/15/2021 5:15:00 AM -0.07 31.874 0.228 7.13 80.11 12.89
2/15/2021 5:30:00 AM -0.07 31.874 0.228 7.13 80.02 12.6
2/15/2021 5:45:00 AM -0.07 31.874 0.229 7.13 79.99 12.59
2/15/2021 6:00:00 AM -0.07 31.874 0.229 7.13 80.09 12.93
2/15/2021 6:15:00 AM -0.07 31.874 0.229 7.12 80.22 12.68
2/15/2021 6:30:00 AM -0.07 31.874 0.229 7.12 80.13 12.87
2/15/2021 6:45:00 AM -0.07 31.874 0.229 7.12 80.24 12.84
2/15/2021 7:00:00 AM -0.07 31.874 0.229 7.12 80.21 13.25
2/15/2021 7:15:00 AM -0.07 31.874 0.229 7.12 80.28 12.85
2/15/2021 7:30:00 AM -0.07 31.874 0.229 7.12 80.45 12.92
2/15/2021 7:45:00 AM -0.07 31.874 0.229 7.12 80.52 13.03
2/15/2021 8:00:00 AM -0.07 31.874 0.229 7.11 80.52 12.72
2/15/2021 8:15:00 AM -0.07 31.874 0.229 7.11 80.53 12.7
2/15/2021 8:30:00 AM -0.07 31.874 0.229 7.11 80.82 12.68
2/15/2021 8:45:00 AM -0.07 31.874 0.229 7.11 80.7 12.58
2/15/2021 9:00:00 AM -0.07 31.874 0.229 7.11 80.71 12.86
2/15/2021 9:15:00 AM -0.07 31.874 0.229 7.11 80.7 12.61
2/15/2021 9:30:00 AM -0.07 31.874 0.229 7.1 80.84 12.47
2/15/2021 9:45:00 AM -0.07 31.874 0.229 7.1 80.77 12.45
2/15/2021 10:00:00 AM -0.07 31.874 0.229 7.1 80.74 12.56
2/15/2021 10:15:00 AM -0.06 31.892 0.229 7.1 80.83 12.7
2/15/2021 10:30:00 AM -0.06 31.892 0.228 7.1 80.96 12.55
2/15/2021 10:45:00 AM -0.06 31.892 0.228 7.1 80.82 12.59
2/15/2021 11:00:00 AM -0.06 31.892 0.228 7.1 81.03 12.64
2/15/2021 11:15:00 AM -0.06 31.892 0.228 7.09 81.05 12.77
2/15/2021 11:30:00 AM -0.06 31.892 0.228 7.09 81.27 12.45
2/15/2021 11:45:00 AM -0.06 31.892 0.228 7.09 81.2 12.51
2/15/2021 12:00:00 PM -0.07 31.874 0.227 7.09 81.23 12.82
2/15/2021 12:15:00 PM -0.07 31.874 0.227 7.08 81.31 12.71
2/15/2021 12:30:00 PM -0.07 31.874 0.227 7.08 81.42 12.7
2/15/2021 12:45:00 PM -0.07 31.874 0.227 7.08 81.55 12.71
2/15/2021 1:00:00 PM -0.07 31.874 0.227 7.08 81.81 12.97
2/15/2021 1:15:00 PM -0.06 31.892 0.227 7.08 81.96 12.99
2/15/2021 1:30:00 PM -0.06 31.892 0.226 7.08 81.96 12.79
2/15/2021 1:45:00 PM -0.06 31.892 0.226 7.08 82.22 12.8
2/15/2021 2:00:00 PM -0.06 31.892 0.226 7.08 82.14 12.68
2/15/2021 2:15:00 PM -0.06 31.892 0.226 7.08 81.94 12.57
2/15/2021 2:30:00 PM -0.06 31.892 0.226 7.08 82.14 12.76
2/15/2021 2:45:00 PM -0.06 31.892 0.226 7.08 82.3 12.76
2/15/2021 3:00:00 PM -0.07 31.874 0.226 7.08 82.64 12.7
2/15/2021 3:15:00 PM -0.07 31.874 0.226 7.07 82.72 12.79
2/15/2021 3:30:00 PM -0.07 31.874 0.226 7.07 82.69 12.67
2/15/2021 3:45:00 PM -0.07 31.874 0.226 7.07 82.7 12.95
2/15/2021 4:00:00 PM -0.07 31.874 0.226 7.07 82.97 12.7
2/15/2021 4:15:00 PM -0.07 31.874 0.225 7.07 83.42 12.63
2/15/2021 4:30:00 PM -0.07 31.874 0.225 7.07 83.66 12.48
2/15/2021 4:45:00 PM -0.07 31.874 0.225 7.07 83.72 12.22
2/15/2021 5:00:00 PM -0.07 31.874 0.225 7.07 83.65 12.46
2/15/2021 5:15:00 PM -0.07 31.874 0.225 7.06 83.31 12.51
2/15/2021 5:30:00 PM -0.07 31.874 0.224 7.07 83.34 12.75
2/15/2021 5:45:00 PM -0.07 31.874 0.224 7.06 83.32 12.41
2/15/2021 6:00:00 PM -0.07 31.874 0.224 7.06 83.11 12.48
2/15/2021 6:15:00 PM -0.07 31.874 0.224 7.06 83.14 12.29
2/15/2021 6:30:00 PM -0.07 31.874 0.224 7.06 83.37 12.53
2/15/2021 6:45:00 PM -0.07 31.874 0.224 7.06 83.39 12.47
2/15/2021 7:00:00 PM -0.07 31.874 0.223 7.05 83.32 12.63
2/15/2021 7:15:00 PM -0.07 31.874 0.223 7.05 83.55 12.96
2/15/2021 7:30:00 PM -0.07 31.874 0.223 7.05 83.33 12.68
2/15/2021 7:45:00 PM -0.07 31.874 0.223 7.05 83.32 12.58
2/15/2021 8:00:00 PM -0.07 31.874 0.223 7.04 83.32 12.53
2/15/2021 8:15:00 PM -0.07 31.874 0.223 7.04 83.46 12.43
2/15/2021 8:30:00 PM -0.07 31.874 0.222 7.03 83.51 12.72
2/15/2021 8:45:00 PM -0.07 31.874 0.222 7.03 83.59 12.61
2/15/2021 9:00:00 PM -0.07 31.874 0.221 7.02 83.74 12.97
2/15/2021 9:15:00 PM -0.07 31.874 0.221 7.02 83.96 12.95
2/15/2021 9:30:00 PM -0.07 31.874 0.22 7.02 83.96 12.76
2/15/2021 9:45:00 PM -0.07 31.874 0.219 7.01 84.07 12.96
2/15/2021 10:00:00 PM -0.07 31.874 0.218 7.02 83.88 12.66
2/15/2021 10:15:00 PM -0.07 31.874 0.217 7.02 83.45 12.97
2/15/2021 10:30:00 PM 0.02 32.036 0.215 7.02 83.49 13.14
2/15/2021 10:45:00 PM 0.03 32.054 0.214 7.02 82.96 12.98
2/15/2021 11:00:00 PM -0.02 31.964 0.212 7.02 82.82 13.14
2/15/2021 11:15:00 PM -0.04 31.928 0.21 7.01 82.22 13.14
2/15/2021 11:30:00 PM -0.05 31.91 0.238 7.03 78.32 12.01
2/15/2021 11:45:00 PM -0.05 31.91 0.237 7.08 78.56 12.45
2/16/2021 12:00:00 AM -0.06 31.892 0.236 7.08 78.71 12.62
2/16/2021 12:15:00 AM -0.06 31.892 0.236 7.09 78.96 12.46
2/16/2021 12:30:00 AM -0.06 31.892 0.235 7.08 79.16 12.21
2/16/2021 12:45:00 AM -0.06 31.892 0.235 7.08 79.16 12.29
2/16/2021 1:00:00 AM -0.06 31.892 0.235 7.08 79.65 11.93
2/16/2021 1:15:00 AM -0.06 31.892 0.234 7.08 79.69 12.21
2/16/2021 1:30:00 AM -0.06 31.892 0.234 7.07 79.77 12.43
2/16/2021 1:45:00 AM -0.06 31.892 0.234 7.07 79.85 12.12
2/16/2021 2:00:00 AM -0.06 31.892 0.234 7.07 80 12.33
2/16/2021 2:15:00 AM -0.06 31.892 0.234 7.06 79.9 12.68
2/16/2021 2:30:00 AM -0.06 31.892 0.234 7.06 79.97 12.56
2/16/2021 2:45:00 AM -0.06 31.892 0.234 7.05 79.99 12.49
2/16/2021 3:00:00 AM -0.06 31.892 0.234 7.05 79.91 12.23
2/16/2021 3:15:00 AM -0.07 31.874 0.234 7.05 79.98 12.33
2/16/2021 3:30:00 AM -0.07 31.874 0.233 7.05 80.09 12.58
2/16/2021 3:45:00 AM -0.07 31.874 0.233 7.05 79.86 12.42
2/16/2021 4:00:00 AM -0.07 31.874 0.233 7.04 79.8 12.3
2/16/2021 4:15:00 AM -0.07 31.874 0.233 7.04 80.04 12.49
2/16/2021 4:30:00 AM -0.07 31.874 0.233 7.04 80.06 12.51
2/16/2021 4:45:00 AM -0.07 31.874 0.233 7.04 79.82 12.68
2/16/2021 5:00:00 AM -0.07 31.874 0.233 7.04 79.82 12.62
2/16/2021 5:15:00 AM -0.07 31.874 0.233 7.03 79.9 12.5
2/16/2021 5:30:00 AM -0.07 31.874 0.233 7.03 79.87 12.41
2/16/2021 5:45:00 AM -0.07 31.874 0.233 7.03 79.79 12.52
2/16/2021 6:00:00 AM -0.07 31.874 0.233 7.03 79.63 12.51
2/16/2021 6:15:00 AM -0.07 31.874 0.233 7.03 79.51 12.47
2/16/2021 6:30:00 AM -0.07 31.874 0.233 7.03 79.61 12.63
2/16/2021 6:45:00 AM -0.07 31.874 0.233 7.03 79.65 12.53
2/16/2021 7:00:00 AM -0.07 31.874 0.233 7.03 79.71 12.58
2/16/2021 7:15:00 AM -0.07 31.874 0.233 7.03 79.74 12.47
2/16/2021 7:30:00 AM -0.07 31.874 0.233 7.03 79.72 12.41
2/16/2021 7:45:00 AM -0.07 31.874 0.233 7.03 79.65 12.61
2/16/2021 8:00:00 AM -0.07 31.874 0.233 7.03 79.72 12.31
2/16/2021 8:15:00 AM -0.07 31.874 0.234 7.03 79.68 12.86
2/16/2021 8:30:00 AM -0.07 31.874 0.233 7.02 79.7 12.57
2/16/2021 8:45:00 AM -0.07 31.874 0.233 7.02 79.85 12.57
2/16/2021 9:00:00 AM -0.07 31.874 0.234 7.03 79.97 12.55
2/16/2021 9:15:00 AM -0.07 31.874 0.233 7.02 79.82 12.69
2/16/2021 9:30:00 AM -0.06 31.892 0.233 7.02 79.79 12.48
2/16/2021 9:45:00 AM -0.06 31.892 0.234 7.02 79.83 12.4
2/16/2021 10:00:00 AM -0.06 31.892 0.234 7.02 79.79 12.51
2/16/2021 10:15:00 AM -0.06 31.892 0.234 7.02 79.96 12.47
2/16/2021 10:30:00 AM -0.06 31.892 0.234 7.02 79.8 12.46
2/16/2021 10:45:00 AM -0.06 31.892 0.234 7.02 79.88 12.39
2/16/2021 11:00:00 AM -0.06 31.892 0.234 7.02 79.73 12.38
2/16/2021 11:15:00 AM -0.06 31.892 0.234 7.02 79.62 12.29
2/16/2021 11:30:00 AM -0.06 31.892 0.234 7.02 79.76 12.05
2/16/2021 11:45:00 AM -0.06 31.892 0.234 7.02 79.7 12.31
2/16/2021 12:00:00 PM -0.06 31.892 0.234 7.02 79.78 12.39
2/16/2021 12:15:00 PM -0.06 31.892 0.234 7.02 79.65 12.6
2/16/2021 12:30:00 PM -0.07 31.874 0.234 7.02 79.72 12.33
2/16/2021 12:45:00 PM -0.07 31.874 0.234 7.02 79.79 12.52
2/16/2021 1:00:00 PM -0.07 31.874 0.235 7.02 79.59 12.42
2/16/2021 1:15:00 PM -0.07 31.874 0.235 7.02 79.65 12.48
2/16/2021 1:30:00 PM -0.07 31.874 0.235 7.02 79.65 12.52
2/16/2021 1:45:00 PM -0.07 31.874 0.235 7.02 79.58 12.57
2/16/2021 2:00:00 PM -0.07 31.874 0.235 7.01 79.58 12.78
2/16/2021 2:15:00 PM -0.07 31.874 0.235 7.02 79.93 12.87
2/16/2021 2:30:00 PM -0.07 31.874 0.235 7.02 79.85 13.05
2/16/2021 2:45:00 PM -0.07 31.874 0.235 7.02 79.77 12.98
2/16/2021 3:00:00 PM -0.01 31.982 0.235 7.02 79.71 12.27
2/16/2021 3:15:00 PM -0.02 31.964 0.235 7.02 79.72 12.11
2/16/2021 3:30:00 PM -0.05 31.91 0.235 7.02 79.74 12.45
2/16/2021 3:45:00 PM -0.06 31.892 0.235 7.02 79.76 12.58
2/16/2021 4:00:00 PM -0.07 31.874 0.235 7.02 79.8 12.88
2/16/2021 4:15:00 PM -0.07 31.874 0.235 7.02 79.65 12.89
2/16/2021 4:30:00 PM -0.07 31.874 0.235 7.02 79.58 12.83
2/16/2021 4:45:00 PM -0.07 31.874 0.235 7 79.69 12.79
2/16/2021 5:00:00 PM -0.07 31.874 0.235 6.99 79.68 12.64
2/16/2021 5:15:00 PM -0.07 31.874 0.235 6.99 79.62 12.83
2/16/2021 5:30:00 PM -0.07 31.874 0.235 6.98 79.64 12.44
2/16/2021 5:45:00 PM -0.07 31.874 0.235 6.97 79.52 12.83
2/16/2021 6:00:00 PM -0.07 31.874 0.236 6.97 79.6 12.48
2/16/2021 6:15:00 PM -0.07 31.874 0.236 6.96 79.52 12.92
2/16/2021 6:30:00 PM -0.07 31.874 0.236 6.98 79.49 12.75
2/16/2021 6:45:00 PM -0.07 31.874 0.236 6.98 79.42 12.45
2/16/2021 7:00:00 PM -0.07 31.874 0.236 6.98 79.6 12.75
2/16/2021 7:15:00 PM -0.07 31.874 0.236 6.97 79.75 12.49
2/16/2021 7:30:00 PM -0.07 31.874 0.236 6.96 79.55 12.9
2/16/2021 7:45:00 PM -0.07 31.874 0.236 6.96 79.57 12.91
2/16/2021 8:00:00 PM -0.08 31.856 0.236 6.96 79.51 12.79
2/16/2021 8:15:00 PM -0.08 31.856 0.236 6.95 79.59 13.17
2/16/2021 8:30:00 PM -0.08 31.856 0.236 6.96 79.43 13.03
2/16/2021 8:45:00 PM -0.08 31.856 0.236 6.95 79.41 13
2/16/2021 9:00:00 PM -0.08 31.856 0.236 6.95 79.57 13.08
2/16/2021 9:15:00 PM -0.08 31.856 0.236 6.94 79.48 13.06
2/16/2021 9:30:00 PM -0.08 31.856 0.236 6.94 79.4 13.1
2/16/2021 9:45:00 PM -0.08 31.856 0.236 6.94 79.69 13.08
2/16/2021 10:00:00 PM -0.08 31.856 0.236 6.94 79.55 13.15
2/16/2021 10:15:00 PM -0.08 31.856 0.236 6.94 79.49 13.19
2/16/2021 10:30:00 PM -0.04 31.928 0.236 6.95 79.47 13.05
2/16/2021 10:45:00 PM -0.06 31.892 0.236 6.95 79.65 13.2
2/16/2021 11:00:00 PM -0.07 31.874 0.236 6.95 79.62 13.13
2/16/2021 11:15:00 PM -0.07 31.874 0.236 6.94 79.59 13.19
2/16/2021 11:30:00 PM -0.08 31.856 0.237 6.94 79.49 13.33
2/16/2021 11:45:00 PM -0.08 31.856 0.237 6.94 79.29 13.23
2/17/2021 12:00:00 AM -0.08 31.856 0.237 6.93 79.42 13.33
2/17/2021 12:15:00 AM -0.08 31.856 0.237 6.94 79.38 13.4
2/17/2021 12:30:00 AM -0.08 31.856 0.237 6.94 79.25 13.21
2/17/2021 12:45:00 AM -0.08 31.856 0.237 6.94 79.23 13.39
2/17/2021 1:00:00 AM -0.08 31.856 0.237 6.94 79.15 13.15
2/17/2021 1:15:00 AM -0.08 31.856 0.237 6.93 79.18 13.27
2/17/2021 1:30:00 AM -0.08 31.856 0.237 6.94 79.19 13.32
2/17/2021 1:45:00 AM -0.08 31.856 0.237 6.93 79.34 13.45
2/17/2021 2:00:00 AM -0.08 31.856 0.237 6.94 79.15 13.53
2/17/2021 2:15:00 AM -0.08 31.856 0.237 6.95 79.3 13.49
2/17/2021 2:30:00 AM -0.08 31.856 0.237 6.94 79.2 13.33
2/17/2021 2:45:00 AM -0.08 31.856 0.237 6.93 79.1 13.34
2/17/2021 3:00:00 AM -0.08 31.856 0.237 6.93 79.13 13.36
2/17/2021 3:15:00 AM -0.08 31.856 0.237 6.93 78.88 13.53
2/17/2021 3:30:00 AM -0.08 31.856 0.237 6.93 78.91 13.47
2/17/2021 3:45:00 AM -0.08 31.856 0.237 6.93 78.81 13.52
2/17/2021 4:00:00 AM -0.08 31.856 0.237 6.93 78.83 13.5
2/17/2021 4:15:00 AM -0.08 31.856 0.237 6.93 78.63 13.49
2/17/2021 4:30:00 AM -0.08 31.856 0.237 6.93 78.95 13.47
2/17/2021 4:45:00 AM -0.08 31.856 0.237 6.94 78.91 13.45
2/17/2021 5:00:00 AM -0.08 31.856 0.237 6.93 78.93 13.43
2/17/2021 5:15:00 AM -0.08 31.856 0.237 6.93 78.83 13.5
2/17/2021 5:30:00 AM -0.08 31.856 0.237 6.93 78.93 13.38
2/17/2021 5:45:00 AM -0.08 31.856 0.237 6.93 78.95 13.37
2/17/2021 6:00:00 AM -0.08 31.856 0.237 6.93 78.91 13.46
2/17/2021 6:15:00 AM -0.08 31.856 0.237 6.93 78.9 13.56
2/17/2021 6:30:00 AM -0.08 31.856 0.237 6.93 78.86 13.45
2/17/2021 6:45:00 AM -0.08 31.856 0.237 6.93 78.89 13.54
2/17/2021 7:00:00 AM -0.07 31.874 0.237 6.93 78.71 13.48
2/17/2021 7:15:00 AM -0.08 31.856 0.237 6.93 78.58 13.43
2/17/2021 7:30:00 AM -0.08 31.856 0.237 6.93 78.72 13.54
2/17/2021 7:45:00 AM -0.08 31.856 0.237 6.93 78.57 13.57
2/17/2021 8:00:00 AM -0.08 31.856 0.237 6.93 78.68 13.58
2/17/2021 8:15:00 AM -0.08 31.856 0.237 6.93 78.57 13.57
2/17/2021 8:30:00 AM -0.08 31.856 0.237 6.93 78.61 13.49
2/17/2021 8:45:00 AM -0.08 31.856 0.237 6.93 78.61 13.58
2/17/2021 9:00:00 AM -0.07 31.874 0.237 6.93 78.81 13.48
2/17/2021 9:15:00 AM -0.07 31.874 0.237 6.93 78.65 13.52
2/17/2021 9:30:00 AM -0.07 31.874 0.237 6.93 78.59 13.44
2/17/2021 9:45:00 AM -0.07 31.874 0.237 6.93 78.55 13.38
2/17/2021 10:00:00 AM -0.07 31.874 0.237 6.93 78.76 13.29
2/17/2021 10:15:00 AM -0.07 31.874 0.237 6.93 78.39 13.21
2/17/2021 10:30:00 AM -0.07 31.874 0.237 6.93 78.38 13.29
2/17/2021 10:45:00 AM -0.07 31.874 0.237 6.93 78.18 13.32
2/17/2021 11:00:00 AM -0.07 31.874 0.237 6.92 78.24 13.25
2/17/2021 11:15:00 AM -0.07 31.874 0.237 6.92 78.24 13.43
2/17/2021 11:30:00 AM -0.07 31.874 0.237 6.92 78.32 13.56
2/17/2021 11:45:00 AM -0.07 31.874 0.237 6.92 78.35 13.63
2/17/2021 12:00:00 PM -0.07 31.874 0.237 6.92 78.47 13.59
2/17/2021 12:15:00 PM -0.06 31.892 0.237 6.92 78.41 13.65
2/17/2021 12:30:00 PM -0.06 31.892 0.237 6.92 78.56 13.55
2/17/2021 12:45:00 PM -0.07 31.874 0.237 6.92 78.59 13.63
2/17/2021 1:00:00 PM -0.06 31.892 0.237 6.92 78.58 13.61
2/17/2021 1:15:00 PM -0.06 31.892 0.237 6.92 78.33 13.48
2/17/2021 1:30:00 PM -0.06 31.892 0.237 6.92 78.49 13.52
2/17/2021 1:45:00 PM -0.06 31.892 0.237 6.92 78.37 13.56
2/17/2021 2:00:00 PM -0.06 31.892 0.237 6.92 78.41 13.59
2/17/2021 2:15:00 PM -0.06 31.892 0.237 6.92 78.59 13.42
2/17/2021 2:30:00 PM -0.06 31.892 0.237 6.92 78.46 13.49
2/17/2021 2:45:00 PM -0.06 31.892 0.237 6.92 78.75 13.46
2/17/2021 3:00:00 PM -0.06 31.892 0.237 6.92 78.6 13.28
2/17/2021 3:15:00 PM -0.06 31.892 0.237 6.92 78.67 13.33
2/17/2021 3:30:00 PM -0.06 31.892 0.237 6.92 78.69 13.35
2/17/2021 3:45:00 PM -0.06 31.892 0.237 6.92 78.51 13.31
2/17/2021 4:00:00 PM -0.06 31.892 0.237 6.92 78.52 13.27
2/17/2021 4:15:00 PM -0.07 31.874 0.237 6.92 78.64 13.13
2/17/2021 4:30:00 PM -0.07 31.874 0.237 6.92 78.77 13.12
2/17/2021 4:45:00 PM -0.07 31.874 0.237 6.92 78.79 13.16
2/17/2021 5:00:00 PM -0.07 31.874 0.237 6.92 78.68 13.11
2/17/2021 5:15:00 PM -0.07 31.874 0.237 6.92 78.98 13.21
2/17/2021 5:30:00 PM -0.07 31.874 0.237 6.92 79.08 13.29
2/17/2021 5:45:00 PM -0.07 31.874 0.237 6.93 79.43 13.13
2/17/2021 6:00:00 PM -0.07 31.874 0.237 6.93 79.4 13.31
2/17/2021 6:15:00 PM -0.07 31.874 0.237 6.93 79.63 13.42
2/17/2021 6:30:00 PM -0.07 31.874 0.237 6.93 79.56 13.24
2/17/2021 6:45:00 PM -0.07 31.874 0.237 6.93 79.88 13.06
2/17/2021 7:00:00 PM -0.07 31.874 0.237 6.93 79.6 13.33
2/17/2021 7:15:00 PM -0.07 31.874 0.237 6.93 79.65 13.23
2/17/2021 7:30:00 PM -0.07 31.874 0.237 6.93 79.32 13.17
2/17/2021 7:45:00 PM -0.07 31.874 0.236 6.93 79.76 13.14
2/17/2021 8:00:00 PM -0.07 31.874 0.236 6.92 79.73 13.26
2/17/2021 8:15:00 PM -0.07 31.874 0.236 6.93 79.69 12.95
2/17/2021 8:30:00 PM -0.07 31.874 0.236 6.92 79.49 12.93
2/17/2021 8:45:00 PM -0.07 31.874 0.236 6.92 79.68 12.98
2/17/2021 9:00:00 PM -0.07 31.874 0.236 6.92 79.51 13
2/17/2021 9:15:00 PM -0.07 31.874 0.236 6.92 79.17 13.03
2/17/2021 9:30:00 PM -0.07 31.874 0.236 6.92 79.19 13.25
2/17/2021 9:45:00 PM -0.07 31.874 0.236 6.93 79.36 12.91
2/17/2021 10:00:00 PM -0.07 31.874 0.236 6.93 79.53 12.92
2/17/2021 10:15:00 PM -0.07 31.874 0.236 6.93 79.62 12.79
2/17/2021 10:30:00 PM -0.02 31.964 0.236 6.94 79.75 13.07
2/17/2021 10:45:00 PM -0.05 31.91 0.236 6.94 80.02 13.07
2/17/2021 11:00:00 PM -0.06 31.892 0.236 6.94 80.18 12.94
2/17/2021 11:15:00 PM -0.06 31.892 0.236 6.94 79.7 13.27
2/17/2021 11:30:00 PM -0.07 31.874 0.236 6.94 79.6 13.14
2/17/2021 11:45:00 PM -0.07 31.874 0.236 6.93 79.45 13.18
2/18/2021 12:00:00 AM -0.07 31.874 0.236 6.93 79.59 13.3
2/18/2021 12:15:00 AM -0.07 31.874 0.236 6.93 79.33 13.19
2/18/2021 12:30:00 AM -0.07 31.874 0.236 6.93 79.2 13.24
2/18/2021 12:45:00 AM -0.07 31.874 0.236 6.93 79.27 13.33
2/18/2021 1:00:00 AM -0.07 31.874 0.236 6.92 79.57 13.18
2/18/2021 1:15:00 AM -0.07 31.874 0.236 6.92 79.61 13.2
2/18/2021 1:30:00 AM -0.07 31.874 0.236 6.93 79.74 13.22
2/18/2021 1:45:00 AM -0.07 31.874 0.236 6.93 79.79 13.24
2/18/2021 2:00:00 AM -0.07 31.874 0.236 6.93 79.79 13.23
2/18/2021 2:15:00 AM -0.07 31.874 0.236 6.94 79.92 13.19
2/18/2021 2:30:00 AM -0.07 31.874 0.236 6.93 79.85 13.27
2/18/2021 2:45:00 AM -0.07 31.874 0.236 6.93 80.06 13.19
2/18/2021 3:00:00 AM -0.07 31.874 0.236 6.93 80.31 13.05
2/18/2021 3:15:00 AM -0.07 31.874 0.236 6.93 79.95 13.4
2/18/2021 3:30:00 AM -0.07 31.874 0.236 6.93 79.83 13.29
2/18/2021 3:45:00 AM -0.07 31.874 0.236 6.93 79.9 13.29
2/18/2021 4:00:00 AM -0.07 31.874 0.236 6.93 79.61 13.33
2/18/2021 4:15:00 AM -0.07 31.874 0.236 6.93 79.44 13.43
2/18/2021 4:30:00 AM -0.07 31.874 0.236 6.94 79.77 13.17
2/18/2021 4:45:00 AM -0.07 31.874 0.236 6.93 79.62 13.08
2/18/2021 5:00:00 AM -0.07 31.874 0.236 6.93 79.56 13.1
2/18/2021 5:15:00 AM -0.07 31.874 0.236 6.94 79.6 12.98
2/18/2021 5:30:00 AM -0.07 31.874 0.236 6.93 79.98 13.02
2/18/2021 5:45:00 AM -0.07 31.874 0.236 6.93 79.71 13.08
2/18/2021 6:00:00 AM -0.07 31.874 0.236 6.93 79.75 13.05
2/18/2021 6:15:00 AM -0.07 31.874 0.236 6.93 79.68 13.03
2/18/2021 6:30:00 AM -0.07 31.874 0.236 6.93 79.55 13.14
2/18/2021 6:45:00 AM -0.07 31.874 0.236 6.92 79.41 13.2
2/18/2021 7:00:00 AM -0.07 31.874 0.236 6.92 79.61 13.1
2/18/2021 7:15:00 AM -0.07 31.874 0.236 6.92 79.41 12.88
2/18/2021 7:30:00 AM -0.07 31.874 0.236 6.93 79.65 12.93
2/18/2021 7:45:00 AM -0.07 31.874 0.236 6.92 79.95 12.82
2/18/2021 8:00:00 AM -0.07 31.874 0.236 6.92 79.87 12.73
2/18/2021 8:15:00 AM -0.07 31.874 0.236 6.92 80.03 12.76
2/18/2021 8:30:00 AM -0.07 31.874 0.236 6.92 80 12.69
2/18/2021 8:45:00 AM -0.07 31.874 0.236 6.92 79.88 12.79
2/18/2021 9:00:00 AM -0.07 31.874 0.235 6.92 80.13 12.72
2/18/2021 9:15:00 AM -0.07 31.874 0.236 6.92 80.13 12.89
2/18/2021 9:30:00 AM -0.07 31.874 0.236 6.91 79.81 12.76
2/18/2021 9:45:00 AM -0.07 31.874 0.236 6.92 79.85 12.76
2/18/2021 10:00:00 AM -0.07 31.874 0.236 6.91 79.88 12.72
2/18/2021 10:15:00 AM -0.07 31.874 0.236 6.91 79.81 12.77
2/18/2021 10:30:00 AM -0.07 31.874 0.236 6.91 79.78 12.74
2/18/2021 10:45:00 AM -0.07 31.874 0.236 6.91 79.6 12.76
2/18/2021 11:00:00 AM -0.07 31.874 0.236 6.91 79.73 12.86
2/18/2021 11:15:00 AM -0.07 31.874 0.236 6.91 79.66 12.83
2/18/2021 11:30:00 AM -0.07 31.874 0.236 6.91 79.63 12.81
2/18/2021 11:45:00 AM -0.07 31.874 0.236 6.91 79.33 12.77
2/18/2021 12:00:00 PM -0.07 31.874 0.236 6.91 79.34 12.79
2/18/2021 12:15:00 PM -0.07 31.874 0.236 6.91 79.47 12.78
2/18/2021 12:30:00 PM -0.07 31.874 0.235 6.91 79.46 12.91
2/18/2021 12:45:00 PM -0.07 31.874 0.235 6.91 79.52 12.95
2/18/2021 1:00:00 PM -0.07 31.874 0.236 6.91 79.48 12.62
2/18/2021 1:15:00 PM -0.07 31.874 0.235 6.91 79.4 12.98
2/18/2021 1:30:00 PM -0.07 31.874 0.235 6.91 79.45 12.99
2/18/2021 1:45:00 PM -0.07 31.874 0.235 6.91 79.35 13.01
2/18/2021 2:00:00 PM -0.07 31.874 0.235 6.91 79.29 12.81
2/18/2021 2:15:00 PM -0.07 31.874 0.235 6.91 79.5 13
2/18/2021 2:30:00 PM -0.07 31.874 0.235 6.92 79.63 13.1
2/18/2021 2:45:00 PM -0.07 31.874 0.235 6.91 79.43 12.89
2/18/2021 3:00:00 PM -0.07 31.874 0.235 6.91 79.38 13.06
2/18/2021 3:15:00 PM -0.07 31.874 0.235 6.92 79.31 13.01
2/18/2021 3:30:00 PM -0.07 31.874 0.235 6.92 79.23 12.97
2/18/2021 3:45:00 PM -0.07 31.874 0.235 6.92 79.38 12.88
2/18/2021 4:00:00 PM -0.07 31.874 0.235 6.92 79.47 12.88
2/18/2021 4:15:00 PM -0.07 31.874 0.235 6.92 79.38 12.65
2/18/2021 4:30:00 PM -0.07 31.874 0.235 6.92 79.5 12.87
2/18/2021 4:45:00 PM -0.07 31.874 0.235 6.91 79.64 12.88
2/18/2021 5:00:00 PM -0.07 31.874 0.235 6.92 79.45 13
2/18/2021 5:15:00 PM -0.07 31.874 0.235 6.92 79.52 12.63
2/18/2021 5:30:00 PM -0.07 31.874 0.235 6.91 79.35 12.7
2/18/2021 5:45:00 PM -0.07 31.874 0.235 6.91 79.23 12.4
2/18/2021 6:00:00 PM -0.07 31.874 0.235 6.92 79.17 12.99
2/18/2021 6:15:00 PM -0.07 31.874 0.235 6.92 79 12.48
2/18/2021 6:30:00 PM -0.08 31.856 0.235 6.92 79.15 12.76
2/18/2021 6:45:00 PM -0.07 31.874 0.235 6.92 79.14 12.83
2/18/2021 7:00:00 PM -0.08 31.856 0.235 6.92 79.05 13
2/18/2021 7:15:00 PM -0.08 31.856 0.235 6.92 79.51 12.75
2/18/2021 7:30:00 PM -0.08 31.856 0.235 6.92 79.5 12.66
2/18/2021 7:45:00 PM -0.08 31.856 0.235 6.92 79.63 12.93
2/18/2021 8:00:00 PM -0.08 31.856 0.235 6.92 79.95 12.8
2/18/2021 8:15:00 PM -0.08 31.856 0.235 6.92 80.15 12.38
2/18/2021 8:30:00 PM -0.08 31.856 0.235 6.91 80.19 12.39
2/18/2021 8:45:00 PM -0.08 31.856 0.235 6.91 80.08 12.24
2/18/2021 9:00:00 PM -0.08 31.856 0.235 6.91 80.18 11.83
2/18/2021 9:15:00 PM -0.07 31.874 0.235 6.9 80.21 11.92
2/18/2021 9:30:00 PM -0.08 31.856 0.235 6.9 80.6 11.64
2/18/2021 9:45:00 PM -0.08 31.856 0.235 6.9 80.4 12.15
2/18/2021 10:00:00 PM -0.08 31.856 0.235 6.9 80.57 11.99
2/18/2021 10:15:00 PM -0.07 31.874 0.234 6.91 80.52 11.79
2/18/2021 10:30:00 PM -0.05 31.91 0.234 6.91 80.46 12.65
2/18/2021 10:45:00 PM -0.06 31.892 0.234 6.91 80.32 12
2/18/2021 11:00:00 PM -0.07 31.874 0.234 6.91 80.64 12.95
2/18/2021 11:15:00 PM -0.07 31.874 0.234 6.91 80.34 12.45
2/18/2021 11:30:00 PM -0.07 31.874 0.234 6.92 80.25 12.74
2/18/2021 11:45:00 PM -0.07 31.874 0.234 6.91 80 12.95
2/19/2021 12:00:00 AM -0.07 31.874 0.234 6.91 80.28 12.35
2/19/2021 12:15:00 AM -0.07 31.874 0.234 6.91 80.5 12.44
2/19/2021 12:30:00 AM -0.07 31.874 0.234 6.9 80.34 12.48
2/19/2021 12:45:00 AM -0.07 31.874 0.234 6.9 80.46 12.16
2/19/2021 1:00:00 AM -0.07 31.874 0.234 6.9 80.18 11.65
2/19/2021 1:15:00 AM -0.07 31.874 0.234 6.89 79.91 11.91
2/19/2021 1:30:00 AM -0.07 31.874 0.234 6.92 79.87 12.01
2/19/2021 1:45:00 AM -0.07 31.874 0.234 6.91 79.53 11.46
2/19/2021 2:00:00 AM -0.07 31.874 0.233 6.9 79.85 11.47
2/19/2021 2:15:00 AM -0.07 31.874 0.233 6.9 79.48 12.33
2/19/2021 2:30:00 AM -0.07 31.874 0.233 6.9 79.31 11.71
2/19/2021 2:45:00 AM -0.07 31.874 0.233 6.9 79.7 11.48
2/19/2021 3:00:00 AM -0.07 31.874 0.233 6.9 79.75 11.75
2/19/2021 3:15:00 AM -0.07 31.874 0.233 6.9 79.58 11.45
2/19/2021 3:30:00 AM -0.07 31.874 0.232 6.9 80.29 11.49
2/19/2021 3:45:00 AM -0.07 31.874 0.232 6.9 80.09 11.77
2/19/2021 4:00:00 AM -0.07 31.874 0.232 6.89 80.19 11.26
2/19/2021 4:15:00 AM -0.07 31.874 0.232 6.9 80.31 11.77
2/19/2021 4:30:00 AM -0.07 31.874 0.231 6.9 80.25 11.63
2/19/2021 4:45:00 AM -0.07 31.874 0.231 6.9 80.52 11.85
2/19/2021 5:00:00 AM -0.07 31.874 0.231 6.9 80.28 12.03
2/19/2021 5:15:00 AM -0.07 31.874 0.231 6.93 80.2 11.7
2/19/2021 5:30:00 AM -0.07 31.874 0.23 6.93 80.06 11.78
2/19/2021 5:45:00 AM -0.07 31.874 0.23 6.92 79.8 12.08
2/19/2021 6:00:00 AM -0.07 31.874 0.23 6.91 80.05 11.59
2/19/2021 6:15:00 AM -0.07 31.874 0.229 6.91 80.13 11.9
2/19/2021 6:30:00 AM -0.07 31.874 0.229 6.92 80.86 11.98
2/19/2021 6:45:00 AM -0.07 31.874 0.228 6.91 80.82 11.86
2/19/2021 7:00:00 AM -0.07 31.874 0.228 6.92 80.15 11.59
2/19/2021 7:15:00 AM -0.07 31.874 0.227 6.92 80.21 11.48
2/19/2021 7:30:00 AM -0.07 31.874 0.226 6.92 79.94 11.07
2/19/2021 7:45:00 AM -0.07 31.874 0.226 6.91 79.68 11.7
2/19/2021 8:00:00 AM -0.07 31.874 0.225 6.9 79.46 11.76
2/19/2021 8:15:00 AM -0.07 31.874 0.224 6.9 79.17 11.58
2/19/2021 8:30:00 AM -0.07 31.874 0.223 6.89 79.03 11.61
2/19/2021 8:45:00 AM -0.07 31.874 0.25 6.89 72.73 11.43
2/19/2021 9:00:00 AM -0.07 31.874 0.249 6.92 72.83 8.44
2/19/2021 9:15:00 AM -0.07 31.874 0.249 6.92 72.9 10.29
2/19/2021 9:30:00 AM -0.07 31.874 0.248 6.92 72.89 10.48
2/19/2021 9:45:00 AM -0.07 31.874 0.247 6.92 72.91 10.36
2/19/2021 10:00:00 AM -0.07 31.874 0.246 6.92 73.07 10.38
2/19/2021 10:15:00 AM -0.07 31.874 0.246 6.91 73.11 9.87
2/19/2021 10:30:00 AM -0.07 31.874 0.246 6.91 73.08 10.48
2/19/2021 10:45:00 AM -0.07 31.874 0.245 6.9 73.47 10.21
2/19/2021 11:00:00 AM -0.07 31.874 0.245 6.9 73.62 9.84
2/19/2021 11:15:00 AM -0.07 31.874 0.245 6.9 73.56 9.57
2/19/2021 11:30:00 AM -0.07 31.874 0.244 6.89 73.69 10.67
2/19/2021 11:45:00 AM -0.07 31.874 0.244 6.89 73.61 10.18
2/19/2021 12:00:00 PM -0.07 31.874 0.244 6.89 73.74 10.2
2/19/2021 12:15:00 PM -0.07 31.874 0.244 6.89 73.68 11.03
2/19/2021 12:30:00 PM -0.07 31.874 0.244 6.88 73.85 10.58
2/19/2021 12:45:00 PM -0.07 31.874 0.244 6.88 73.87 9.76
2/19/2021 1:00:00 PM -0.07 31.874 0.243 6.88 73.84 10.7
2/19/2021 1:15:00 PM -0.07 31.874 0.243 6.87 73.91 10.59
2/19/2021 1:30:00 PM -0.07 31.874 0.243 6.87 73.81 10.87
2/19/2021 1:45:00 PM -0.07 31.874 0.243 6.87 73.91 9.96
2/19/2021 2:00:00 PM -0.07 31.874 0.243 6.87 73.82 10.4
2/19/2021 2:15:00 PM -0.07 31.874 0.242 6.87 73.82 9.55
2/19/2021 2:30:00 PM -0.07 31.874 0.242 6.87 73.87 9.39
2/19/2021 2:45:00 PM -0.07 31.874 0.242 6.86 74.03 10.04
2/19/2021 3:00:00 PM -0.07 31.874 0.242 6.86 73.92 9.6
2/19/2021 3:15:00 PM -0.07 31.874 0.241 6.86 74.15 10.03
2/19/2021 3:30:00 PM -0.07 31.874 0.241 6.86 73.98 9.32
2/19/2021 3:45:00 PM -0.07 31.874 0.241 6.86 73.99 9.57
2/19/2021 4:00:00 PM -0.07 31.874 0.241 6.86 74.22 9.53
2/19/2021 4:15:00 PM -0.07 31.874 0.241 6.86 74.34 9.87
2/19/2021 4:30:00 PM -0.07 31.874 0.241 6.85 74.32 9.14
2/19/2021 4:45:00 PM -0.07 31.874 0.241 6.85 74.42 9.54
2/19/2021 5:00:00 PM -0.07 31.874 0.24 6.86 74.42 8.56
2/19/2021 5:15:00 PM -0.07 31.874 0.24 6.86 74.57 8.38
2/19/2021 5:30:00 PM -0.07 31.874 0.24 6.86 74.73 7.92
2/19/2021 5:45:00 PM -0.07 31.874 0.24 6.86 74.68 8.65
2/19/2021 6:00:00 PM -0.07 31.874 0.24 6.86 75.08 8.54
2/19/2021 6:15:00 PM -0.07 31.874 0.24 6.86 75.32 7.44
2/19/2021 6:30:00 PM -0.07 31.874 0.239 6.86 75.26 8.36
2/19/2021 6:45:00 PM -0.07 31.874 0.239 6.87 75.15 8.5
2/19/2021 7:00:00 PM -0.07 31.874 0.239 6.86 75.52 8.19
2/19/2021 7:15:00 PM -0.07 31.874 0.239 6.86 75.41 8.48
2/19/2021 7:30:00 PM -0.07 31.874 0.238 6.86 75.51 7.48
2/19/2021 7:45:00 PM -0.07 31.874 0.238 6.86 75.69 7.35
2/19/2021 8:00:00 PM -0.07 31.874 0.238 6.86 75.73 7.14
2/19/2021 8:15:00 PM -0.07 31.874 0.238 6.86 75.8 8
2/19/2021 8:30:00 PM -0.07 31.874 0.238 6.85 76.02 8.15
2/19/2021 8:45:00 PM -0.07 31.874 0.237 6.85 76.12 7.61
2/19/2021 9:00:00 PM -0.07 31.874 0.237 6.85 76.36 7.78
2/19/2021 9:15:00 PM -0.07 31.874 0.237 6.85 76.39 8.35
2/19/2021 9:30:00 PM -0.07 31.874 0.237 6.85 76.15 7.67
2/19/2021 9:45:00 PM -0.07 31.874 0.237 6.85 76.5 7.8
2/19/2021 10:00:00 PM -0.07 31.874 0.236 6.85 76.65 7.92
2/19/2021 10:15:00 PM -0.07 31.874 0.236 6.85 76.44 7.79
2/19/2021 10:30:00 PM -0.05 31.91 0.236 6.85 76.65 6.98
2/19/2021 10:45:00 PM -0.05 31.91 0.236 6.86 76.97 5.8
2/19/2021 11:00:00 PM -0.06 31.892 0.236 6.86 76.98 6.98
2/19/2021 11:15:00 PM -0.06 31.892 0.236 6.86 77.42 7.99
2/19/2021 11:30:00 PM -0.06 31.892 0.235 6.85 77.74 7.17
2/19/2021 11:45:00 PM -0.06 31.892 0.235 6.84 78.16 6.35
2/20/2021 12:00:00 AM -0.06 31.892 0.235 6.85 78.3 6.38
2/20/2021 12:15:00 AM -0.06 31.892 0.234 6.86 78.48 6.18
2/20/2021 12:30:00 AM -0.06 31.892 0.234 6.87 78.77 5.82
2/20/2021 12:45:00 AM -0.06 31.892 0.234 6.87 79.11 6.18
2/20/2021 1:00:00 AM -0.06 31.892 0.234 6.86 79.23 6.85
2/20/2021 1:15:00 AM -0.06 31.892 0.233 6.86 79.49 6.7
2/20/2021 1:30:00 AM -0.06 31.892 0.233 6.86 80.18 7.76
2/20/2021 1:45:00 AM -0.06 31.892 0.233 6.85 80.27 7.23
2/20/2021 2:00:00 AM -0.06 31.892 0.233 6.85 80.35 6.86
2/20/2021 2:15:00 AM -0.06 31.892 0.232 6.85 80.94 6.56
2/20/2021 2:30:00 AM -0.06 31.892 0.232 6.84 81.22 7.43
2/20/2021 2:45:00 AM -0.06 31.892 0.232 6.84 81.49 7.45
2/20/2021 3:00:00 AM -0.06 31.892 0.232 6.85 82.14 5.53
2/20/2021 3:15:00 AM -0.07 31.874 0.231 6.84 82.31 6.43
2/20/2021 3:30:00 AM -0.07 31.874 0.231 6.84 82.22 7.09
2/20/2021 3:45:00 AM -0.07 31.874 0.231 6.84 82.46 6.48
2/20/2021 4:00:00 AM -0.07 31.874 0.231 6.84 82.91 6.45
2/20/2021 4:15:00 AM -0.07 31.874 0.231 6.84 83.13 6.74
2/20/2021 4:30:00 AM -0.07 31.874 0.231 6.84 83.85 6.74
2/20/2021 4:45:00 AM -0.07 31.874 0.23 6.84 83.61 7.3
2/20/2021 5:00:00 AM -0.07 31.874 0.23 6.84 83.24 7.82
2/20/2021 5:15:00 AM -0.07 31.874 0.23 6.84 83.49 8.55
2/20/2021 5:30:00 AM -0.07 31.874 0.23 6.83 83.72 7.39
2/20/2021 5:45:00 AM -0.07 31.874 0.229 6.84 84.02 6.94
2/20/2021 6:00:00 AM -0.07 31.874 0.229 6.83 83.93 7.96
2/20/2021 6:15:00 AM -0.07 31.874 0.229 6.83 84.14 8.55
2/20/2021 6:30:00 AM -0.07 31.874 0.229 6.83 84.55 7.79
2/20/2021 6:45:00 AM -0.07 31.874 0.228 6.83 85.17 6.82
2/20/2021 7:00:00 AM -0.07 31.874 0.228 6.84 85.32 9.23
2/20/2021 7:15:00 AM -0.07 31.874 0.227 6.84 85.84 8.82
2/20/2021 7:30:00 AM -0.07 31.874 0.227 6.84 85.56 9.08
2/20/2021 7:45:00 AM -0.07 31.874 0.227 6.83 85.45 8.84
2/20/2021 8:00:00 AM -0.07 31.874 0.226 6.82 86.06 8.79
2/20/2021 8:15:00 AM -0.07 31.874 0.226 6.82 85.32 8.16
2/20/2021 8:30:00 AM -0.07 31.874 0.225 6.82 84.9 8
2/20/2021 8:45:00 AM -0.07 31.874 0.224 6.82 85.32 8.66
2/20/2021 9:00:00 AM -0.07 31.874 0.223 6.82 85.38 8.28
2/20/2021 9:15:00 AM -0.07 31.874 0.222 6.82 84.54 8.46
2/20/2021 9:30:00 AM -0.07 31.874 0.221 6.82 84.44 7.29
2/20/2021 9:45:00 AM -0.07 31.874 0.219 6.83 84.01 7.41
2/20/2021 10:00:00 AM -0.07 31.874 0.218 6.83 83.17 7.03
2/20/2021 10:15:00 AM -0.06 31.892 0.216 6.83 82.15 7.26
2/20/2021 10:30:00 AM -0.06 31.892 0.215 6.82 81.4 7.48
2/20/2021 10:45:00 AM -0.06 31.892 0.238 6.83 72.87 8.12
2/20/2021 11:00:00 AM -0.06 31.892 0.238 6.84 73.02 5.04
2/20/2021 11:15:00 AM -0.06 31.892 0.238 6.84 73.22 5.42
2/20/2021 11:30:00 AM -0.06 31.892 0.237 6.85 73.4 6.04
2/20/2021 11:45:00 AM -0.06 31.892 0.237 6.85 73.75 5.31
2/20/2021 12:00:00 PM -0.06 31.892 0.236 6.85 73.86 5.12
2/20/2021 12:15:00 PM -0.06 31.892 0.235 6.85 74 5.65
2/20/2021 12:30:00 PM -0.06 31.892 0.235 6.86 74.15 5.89
2/20/2021 12:45:00 PM -0.06 31.892 0.235 6.86 74.07 5.33
2/20/2021 1:00:00 PM -0.06 31.892 0.235 6.86 74.18 5.19
2/20/2021 1:15:00 PM -0.06 31.892 0.234 6.86 74.18 5.22
2/20/2021 1:30:00 PM -0.06 31.892 0.234 6.86 74.22 5.97
2/20/2021 1:45:00 PM -0.06 31.892 0.234 6.86 74.45 6.72
2/20/2021 2:00:00 PM -0.06 31.892 0.234 6.86 74.65 6.58
2/20/2021 2:15:00 PM -0.06 31.892 0.234 6.86 74.56 6.06
2/20/2021 2:30:00 PM -0.06 31.892 0.234 6.86 74.54 6.04
2/20/2021 2:45:00 PM -0.06 31.892 0.234 6.86 74.75 5.97
2/20/2021 3:00:00 PM -0.06 31.892 0.233 6.86 74.59 5.39
2/20/2021 3:15:00 PM -0.06 31.892 0.233 6.86 74.68 5.55
2/20/2021 3:30:00 PM -0.06 31.892 0.233 6.86 74.7 5.64
2/20/2021 3:45:00 PM -0.06 31.892 0.233 6.86 74.9 5.63
2/20/2021 4:00:00 PM -0.06 31.892 0.233 6.86 74.97 6.07
2/20/2021 4:15:00 PM -0.06 31.892 0.233 6.86 74.91 5.81
2/20/2021 4:30:00 PM -0.06 31.892 0.233 6.86 75.02 5.32
2/20/2021 4:45:00 PM -0.06 31.892 0.233 6.86 75.14 5.16
2/20/2021 5:00:00 PM -0.06 31.892 0.233 6.86 75.05 5.84
2/20/2021 5:15:00 PM -0.06 31.892 0.233 6.86 74.83 6.32
2/20/2021 5:30:00 PM -0.06 31.892 0.232 6.86 74.81 5.97
2/20/2021 5:45:00 PM -0.06 31.892 0.232 6.86 75.09 6.07
2/20/2021 6:00:00 PM -0.06 31.892 0.232 6.86 75.1 5.62
2/20/2021 6:15:00 PM -0.06 31.892 0.231 6.86 75.06 5.44
2/20/2021 6:30:00 PM -0.06 31.892 0.231 6.86 74.99 5.9
2/20/2021 6:45:00 PM -0.06 31.892 0.23 6.86 75.19 6.18
2/20/2021 7:00:00 PM -0.06 31.892 0.23 6.86 74.97 5.42
2/20/2021 7:15:00 PM -0.06 31.892 0.23 6.86 75.08 6.65
2/20/2021 7:30:00 PM -0.05 31.91 0.229 6.86 75.33 5.94
2/20/2021 7:45:00 PM -0.05 31.91 0.229 6.86 75.34 5.64
2/20/2021 8:00:00 PM -0.05 31.91 0.229 6.86 75.27 5.57
2/20/2021 8:15:00 PM -0.05 31.91 0.228 6.86 75.21 6.49
2/20/2021 8:30:00 PM -0.05 31.91 0.228 6.86 75.33 9.63
2/20/2021 8:45:00 PM -0.05 31.91 0.228 6.86 75.46 10.5
2/20/2021 9:00:00 PM -0.05 31.91 0.227 6.86 75.6 10.03
2/20/2021 9:15:00 PM -0.05 31.91 0.227 6.86 75.61 9.95
2/20/2021 9:30:00 PM -0.05 31.91 0.226 6.86 75.67 10.19
2/20/2021 9:45:00 PM -0.05 31.91 0.226 6.86 75.73 9.84
2/20/2021 10:00:00 PM -0.05 31.91 0.226 6.86 76.13 9.77
2/20/2021 10:15:00 PM -0.05 31.91 0.225 6.86 76.39 9.69
2/20/2021 10:30:00 PM -0.05 31.91 0.225 6.86 76.32 9.76
2/20/2021 10:45:00 PM -0.05 31.91 0.225 6.86 76.51 9.64
2/20/2021 11:00:00 PM -0.05 31.91 0.224 6.86 76.57 8.34
2/20/2021 11:15:00 PM -0.06 31.892 0.224 6.86 76.45 7.31
2/20/2021 11:30:00 PM -0.06 31.892 0.224 6.86 76.58 6.47
2/20/2021 11:45:00 PM -0.06 31.892 0.223 6.86 76.49 5.71
2/21/2021 12:00:00 AM -0.06 31.892 0.223 6.86 76.71 4.97
2/21/2021 12:15:00 AM -0.06 31.892 0.222 6.86 76.8 6.79
2/21/2021 12:30:00 AM -0.06 31.892 0.222 6.86 76.98 6.26
2/21/2021 12:45:00 AM -0.06 31.892 0.221 6.86 76.75 5.62
2/21/2021 1:00:00 AM -0.06 31.892 0.221 6.87 77.19 5.77
2/21/2021 1:15:00 AM -0.06 31.892 0.22 6.87 77.23 5.7
2/21/2021 1:30:00 AM -0.06 31.892 0.219 6.87 77.22 5.33
2/21/2021 1:45:00 AM -0.06 31.892 0.219 6.87 77.21 5.39
2/21/2021 2:00:00 AM -0.06 31.892 0.218 6.86 77.44 6
2/21/2021 2:15:00 AM -0.06 31.892 0.217 6.86 77.75 5.66
2/21/2021 2:30:00 AM -0.06 31.892 0.215 6.86 77.71 6.21
2/21/2021 2:45:00 AM -0.06 31.892 0.214 6.86 77.27 6.14
2/21/2021 3:00:00 AM -0.06 31.892 0.212 6.86 77.28 5.62
2/21/2021 3:15:00 AM -0.06 31.892 0.211 6.86 77.2 6.16
2/21/2021 3:30:00 AM -0.06 31.892 0.21 6.86 76.61 6.15
2/21/2021 3:45:00 AM -0.06 31.892 0.209 6.86 76.43 6.06
2/21/2021 4:00:00 AM -0.06 31.892 0.208 6.87 76.24 6.04
2/21/2021 4:15:00 AM -0.06 31.892 0.206 6.86 75.98 9.13
2/21/2021 4:30:00 AM -0.06 31.892 0.229 6.87 72.56 9.2
2/21/2021 4:45:00 AM -0.06 31.892 0.232 6.89 72.44 5.81
2/21/2021 5:00:00 AM -0.06 31.892 0.233 6.9 72.78 5.03
2/21/2021 5:15:00 AM -0.06 31.892 0.232 6.9 72.93 5.08
2/21/2021 5:30:00 AM -0.06 31.892 0.233 6.91 73.06 6.21
2/21/2021 5:45:00 AM -0.06 31.892 0.233 6.91 73.32 5.85
2/21/2021 6:00:00 AM -0.06 31.892 0.232 6.91 73.59 5
2/21/2021 6:15:00 AM -0.06 31.892 0.232 6.91 73.88 5.84
2/21/2021 6:30:00 AM -0.06 31.892 0.232 6.91 73.82 6.4
2/21/2021 6:45:00 AM -0.06 31.892 0.232 6.91 74.09 5.76
2/21/2021 7:00:00 AM -0.06 31.892 0.231 6.91 74.2 5.12
2/21/2021 7:15:00 AM -0.06 31.892 0.231 6.91 74.14 6.39
2/21/2021 7:30:00 AM -0.06 31.892 0.23 6.91 74.39 11.06
2/21/2021 7:45:00 AM -0.06 31.892 0.231 6.91 74.39 9.2
2/21/2021 8:00:00 AM -0.06 31.892 0.23 6.9 74.45 9.37
2/21/2021 8:15:00 AM -0.06 31.892 0.23 6.89 74.9 9.83
2/21/2021 8:30:00 AM -0.06 31.892 0.23 6.89 74.81 9.1
2/21/2021 8:45:00 AM -0.06 31.892 0.229 6.88 75.08 8.31
2/21/2021 9:00:00 AM -0.06 31.892 0.229 6.89 75.25 7.5
2/21/2021 9:15:00 AM -0.06 31.892 0.229 6.88 75.22 6.97
2/21/2021 9:30:00 AM -0.06 31.892 0.228 6.89 75.38 6.63
2/21/2021 9:45:00 AM -0.06 31.892 0.228 6.88 75.43 8.86
2/21/2021 10:00:00 AM -0.06 31.892 0.228 6.87 75.36 7.37
2/21/2021 10:15:00 AM -0.06 31.892 0.227 6.87 75.58 7.7
2/21/2021 10:30:00 AM -0.06 31.892 0.227 6.87 75.21 7.97
2/21/2021 10:45:00 AM -0.06 31.892 0.227 6.87 75.42 8.28
2/21/2021 11:00:00 AM -0.06 31.892 0.226 6.86 75.34 7.98
2/21/2021 11:15:00 AM -0.05 31.91 0.226 6.86 75.34 11.92
2/21/2021 11:30:00 AM -0.05 31.91 0.225 6.87 75.45 10.91
2/21/2021 11:45:00 AM -0.05 31.91 0.225 6.88 75.51 10.8
2/21/2021 12:00:00 PM -0.05 31.91 0.225 6.88 76.18 10.7
2/21/2021 12:15:00 PM -0.05 31.91 0.224 6.88 76.31 11.4
2/21/2021 12:30:00 PM -0.05 31.91 0.224 6.88 76.41 10.82
2/21/2021 12:45:00 PM -0.05 31.91 0.224 6.88 76.45 10.77
2/21/2021 1:00:00 PM -0.05 31.91 0.224 6.87 76.37 10.69
2/21/2021 1:15:00 PM -0.05 31.91 0.223 6.87 76.35 11.39
2/21/2021 1:30:00 PM -0.05 31.91 0.223 6.88 76.62 11.51
2/21/2021 1:45:00 PM -0.05 31.91 0.223 6.89 76.71 10.89
2/21/2021 2:00:00 PM -0.05 31.91 0.223 6.87 76.52 11.34
2/21/2021 2:15:00 PM -0.05 31.91 0.222 6.86 76.38 11.33
2/21/2021 2:30:00 PM -0.05 31.91 0.222 6.86 76.55 12.01
2/21/2021 2:45:00 PM -0.05 31.91 0.222 6.87 76.46 12.3
2/21/2021 3:00:00 PM -0.05 31.91 0.222 6.87 76.56 12.58
2/21/2021 3:15:00 PM -0.05 31.91 0.221 6.87 76.54 12.72
2/21/2021 3:30:00 PM -0.05 31.91 0.221 6.87 76.74 12.36
2/21/2021 3:45:00 PM -0.06 31.892 0.221 6.86 76.76 12.11
2/21/2021 4:00:00 PM -0.06 31.892 0.22 6.86 76.46 12.03
2/21/2021 4:15:00 PM -0.06 31.892 0.22 6.86 76.4 11.93
2/21/2021 4:30:00 PM -0.06 31.892 0.219 6.86 76.7 11.49
2/21/2021 4:45:00 PM -0.06 31.892 0.219 6.86 76.76 12.24
2/21/2021 5:00:00 PM -0.06 31.892 0.219 6.85 76.96 11.61
2/21/2021 5:15:00 PM -0.06 31.892 0.218 6.85 76.77 11.6
2/21/2021 5:30:00 PM -0.06 31.892 0.218 6.85 76.64 11.42
2/21/2021 5:45:00 PM -0.06 31.892 0.218 6.84 76.68 11.61
2/21/2021 6:00:00 PM -0.06 31.892 0.217 6.85 76.47 11.31
2/21/2021 6:15:00 PM -0.06 31.892 0.217 6.85 76.25 10.98
2/21/2021 6:30:00 PM -0.06 31.892 0.217 6.85 76.17 11.88
2/21/2021 6:45:00 PM -0.06 31.892 0.217 6.85 75.91 11.28
2/21/2021 7:00:00 PM -0.06 31.892 0.216 6.85 75.79 11.04
2/21/2021 7:15:00 PM -0.06 31.892 0.216 6.85 75.54 10.71
2/21/2021 7:30:00 PM -0.06 31.892 0.215 6.85 75.51 11.22
2/21/2021 7:45:00 PM -0.06 31.892 0.215 6.85 75.7 11.57
2/21/2021 8:00:00 PM -0.06 31.892 0.214 6.84 75.53 11.67
2/21/2021 8:15:00 PM -0.06 31.892 0.213 6.84 75.65 11
2/21/2021 8:30:00 PM -0.06 31.892 0.213 6.84 75.48 10.84
2/21/2021 8:45:00 PM -0.06 31.892 0.212 6.84 75.19 11.1
2/21/2021 9:00:00 PM -0.06 31.892 0.211 6.84 75.2 11.1
2/21/2021 9:15:00 PM -0.06 31.892 0.21 6.83 75.14 11.15
2/21/2021 9:30:00 PM -0.06 31.892 0.208 6.83 75.01 10.89
2/21/2021 9:45:00 PM -0.06 31.892 0.207 6.83 74.69 10.55
2/21/2021 10:00:00 PM -0.06 31.892 0.205 6.83 74.53 11.44
2/21/2021 10:15:00 PM -0.06 31.892 0.204 6.83 74.49 10.91
2/21/2021 10:30:00 PM -0.06 31.892 0.202 6.83 74.23 11.53
2/21/2021 10:45:00 PM -0.06 31.892 0.2 6.84 73.81 11.52
2/21/2021 11:00:00 PM -0.06 31.892 0.233 6.82 71.41 11.67
2/21/2021 11:15:00 PM -0.06 31.892 0.232 6.83 71.64 7.29
2/21/2021 11:30:00 PM -0.06 31.892 0.232 6.84 71.72 8.92
2/21/2021 11:45:00 PM -0.06 31.892 0.231 6.84 71.86 10.05
2/22/2021 12:00:00 AM -0.06 31.892 0.23 6.85 71.9 10.43
2/22/2021 12:15:00 AM -0.06 31.892 0.229 6.85 71.97 10.46
2/22/2021 12:30:00 AM -0.06 31.892 0.229 6.85 72.09 9.83
2/22/2021 12:45:00 AM -0.06 31.892 0.229 6.85 72.27 9.1
2/22/2021 1:00:00 AM -0.06 31.892 0.228 6.85 72.47 8.49
2/22/2021 1:15:00 AM -0.06 31.892 0.228 6.84 72.47 8.75
2/22/2021 1:30:00 AM -0.06 31.892 0.227 6.84 72.4 7.93
2/22/2021 1:45:00 AM -0.06 31.892 0.227 6.84 72.38 8.55
2/22/2021 2:00:00 AM -0.06 31.892 0.227 6.84 72.51 10.16
2/22/2021 2:15:00 AM -0.06 31.892 0.227 6.84 72.66 11.68
2/22/2021 2:30:00 AM -0.06 31.892 0.226 6.84 72.92 10.5
2/22/2021 2:45:00 AM -0.06 31.892 0.226 6.84 73 11.65
2/22/2021 3:00:00 AM -0.06 31.892 0.225 6.84 73.04 11.44
2/22/2021 3:15:00 AM -0.06 31.892 0.225 6.84 73.12 10.47
2/22/2021 3:30:00 AM -0.06 31.892 0.224 6.84 73.41 11.34
2/22/2021 3:45:00 AM -0.03 31.946 0.224 6.84 73.66 11.11
2/22/2021 4:00:00 AM -0.04 31.928 0.223 6.84 73.39 12.21
2/22/2021 4:15:00 AM -0.05 31.91 0.223 6.84 73.38 11.16
2/22/2021 4:30:00 AM -0.05 31.91 0.222 6.84 73.19 9.63
2/22/2021 4:45:00 AM -0.05 31.91 0.222 6.84 73.69 10.11
2/22/2021 5:00:00 AM -0.05 31.91 0.222 6.84 74.06 9.98
2/22/2021 5:15:00 AM -0.05 31.91 0.221 6.84 74.1 8.84
2/22/2021 5:30:00 AM -0.05 31.91 0.221 6.84 74.13 8.13
2/22/2021 5:45:00 AM -0.05 31.91 0.22 6.84 74.51 8.91
2/22/2021 6:00:00 AM -0.05 31.91 0.22 6.84 74.57 8.74
2/22/2021 6:15:00 AM -0.05 31.91 0.219 6.84 74.78 7.93
2/22/2021 6:30:00 AM -0.05 31.91 0.219 6.83 74.72 7.22
2/22/2021 6:45:00 AM -0.05 31.91 0.218 6.84 74.95 7.19
2/22/2021 7:00:00 AM -0.05 31.91 0.218 6.84 75.11 6.35
2/22/2021 7:15:00 AM -0.05 31.91 0.217 6.84 75.16 6.95
2/22/2021 7:30:00 AM -0.05 31.91 0.217 6.84 75.17 7.14
2/22/2021 7:45:00 AM -0.05 31.91 0.217 6.84 75.03 8.55
2/22/2021 8:00:00 AM -0.05 31.91 0.216 6.84 75.11 7.71
2/22/2021 8:15:00 AM -0.05 31.91 0.216 6.84 75.26 7.97
2/22/2021 8:30:00 AM -0.05 31.91 0.216 6.84 75.01 7.73
2/22/2021 8:45:00 AM -0.05 31.91 0.215 6.84 75.29 7.75
2/22/2021 9:00:00 AM -0.05 31.91 0.215 6.84 75.17 8.21
2/22/2021 9:15:00 AM -0.05 31.91 0.215 6.83 75.22 9
2/22/2021 9:30:00 AM -0.05 31.91 0.215 6.83 75.13 8.72
2/22/2021 9:45:00 AM -0.05 31.91 0.214 6.83 75.16 8.93
2/22/2021 10:00:00 AM -0.05 31.91 0.214 6.83 75.28 8.6
2/22/2021 10:15:00 AM -0.06 31.892 0.213 6.84 75.05 8.38
2/22/2021 10:30:00 AM -0.06 31.892 0.213 6.84 75.26 7.9
2/22/2021 10:45:00 AM -0.06 31.892 0.213 6.83 75.05 8.7
2/22/2021 11:00:00 AM -0.05 31.91 0.212 6.84 75.17 8.01
2/22/2021 11:15:00 AM -0.06 31.892 0.212 6.84 75.1 8.2
2/22/2021 11:30:00 AM -0.06 31.892 0.211 6.84 75.25 7.84
2/22/2021 11:45:00 AM -0.05 31.91 0.211 6.84 75.25 7.23
2/22/2021 12:00:00 PM -0.05 31.91 0.211 6.84 75.09 6.73
2/22/2021 12:15:00 PM -0.06 31.892 0.21 6.84 74.97 7.2
2/22/2021 12:30:00 PM -0.06 31.892 0.21 6.84 74.67 6.85
2/22/2021 12:45:00 PM -0.06 31.892 0.21 6.84 74.85 7.67
2/22/2021 1:00:00 PM -0.06 31.892 0.209 6.84 74.6 7.56
2/22/2021 1:15:00 PM -0.06 31.892 0.209 6.84 74 7.2
2/22/2021 1:30:00 PM -0.06 31.892 0.208 6.84 74.22 7.3
2/22/2021 1:45:00 PM -0.06 31.892 0.208 6.84 74.38 6.88
2/22/2021 2:00:00 PM -0.06 31.892 0.207 6.84 74.03 7.5
2/22/2021 2:15:00 PM -0.06 31.892 0.206 6.84 73.81 6.9
2/22/2021 2:30:00 PM -0.06 31.892 0.206 6.85 73.8 7.1
2/22/2021 2:45:00 PM -0.06 31.892 0.205 6.85 73.67 7.16
2/22/2021 3:00:00 PM -0.06 31.892 0.204 6.85 73.56 7.83
2/22/2021 3:15:00 PM -0.06 31.892 0.203 6.85 73.58 7.56
2/22/2021 3:30:00 PM -0.06 31.892 0.201 6.85 73.5 7.86
2/22/2021 3:45:00 PM -0.06 31.892 0.2 6.85 73.21 7.44
2/22/2021 4:00:00 PM -0.06 31.892 0.199 6.85 72.83 8.18
2/22/2021 4:15:00 PM -0.06 31.892 0.198 6.85 72.77 8.37
2/22/2021 4:30:00 PM -0.06 31.892 0.197 6.85 72.62 7.96
2/22/2021 4:45:00 PM -0.06 31.892 0.196 6.85 72.5 8.16
2/22/2021 5:00:00 PM -0.06 31.892 0.195 6.85 72.17 7.81
2/22/2021 5:15:00 PM -0.06 31.892 0.195 6.86 71.88 7.64
2/22/2021 5:30:00 PM -0.06 31.892 0.195 6.86 71.63 7.78
2/22/2021 5:45:00 PM -0.06 31.892 0.224 6.9 70.58 9.36
2/22/2021 6:00:00 PM -0.06 31.892 0.225 6.93 70.74 5.43
2/22/2021 6:15:00 PM -0.06 31.892 0.226 6.94 70.91 5.61
2/22/2021 6:30:00 PM -0.06 31.892 0.226 6.94 70.95 5.27
2/22/2021 6:45:00 PM -0.06 31.892 0.226 6.94 70.89 4.6
2/22/2021 7:00:00 PM -0.06 31.892 0.225 6.94 71 4.69
2/22/2021 7:15:00 PM -0.06 31.892 0.225 6.94 71.13 5.13
2/22/2021 7:30:00 PM -0.06 31.892 0.225 6.94 71.24 4.88
2/22/2021 7:45:00 PM -0.06 31.892 0.224 6.94 71.4 5.02
2/22/2021 8:00:00 PM -0.06 31.892 0.224 6.93 71.5 4.93
2/22/2021 8:15:00 PM -0.06 31.892 0.224 6.93 71.62 5.18
2/22/2021 8:30:00 PM -0.06 31.892 0.223 6.93 72.05 5.18
2/22/2021 8:45:00 PM -0.06 31.892 0.223 6.93 71.93 5.22
2/22/2021 9:00:00 PM -0.06 31.892 0.222 6.93 72.13 6.19
2/22/2021 9:15:00 PM -0.06 31.892 0.221 6.93 72.13 4.98
2/22/2021 9:30:00 PM -0.06 31.892 0.221 6.93 72.17 5.08
2/22/2021 9:45:00 PM -0.06 31.892 0.22 6.92 72.31 5.1
2/22/2021 10:00:00 PM -0.06 31.892 0.219 6.92 71.95 4.91
2/22/2021 10:15:00 PM -0.06 31.892 0.218 6.92 72.25 4.78
2/22/2021 10:30:00 PM -0.05 31.91 0.218 6.92 72.26 7.34
2/22/2021 10:45:00 PM -0.04 31.928 0.217 6.92 72.61 6.64
2/22/2021 11:00:00 PM -0.04 31.928 0.216 6.92 72.75 5.68
2/22/2021 11:15:00 PM -0.04 31.928 0.216 6.92 72.67 5.78
2/22/2021 11:30:00 PM -0.04 31.928 0.215 6.92 72.71 5.93
2/22/2021 11:45:00 PM -0.05 31.91 0.214 6.92 72.94 5.61
2/23/2021 12:00:00 AM -0.04 31.928 0.213 6.92 73.16 5.46
2/23/2021 12:15:00 AM -0.05 31.91 0.213 6.92 72.89 5.53
2/23/2021 12:30:00 AM -0.04 31.928 0.212 6.91 73.13 5.54
2/23/2021 12:45:00 AM -0.04 31.928 0.211 6.91 73.09 5.74
2/23/2021 1:00:00 AM -0.04 31.928 0.211 6.92 72.98 5.77
2/23/2021 1:15:00 AM -0.05 31.91 0.21 6.92 73.04 5.91
2/23/2021 1:30:00 AM -0.05 31.91 0.21 6.92 73.38 4.69
2/23/2021 1:45:00 AM -0.05 31.91 0.209 6.92 73.48 6.12
2/23/2021 2:00:00 AM -0.05 31.91 0.209 6.92 73.59 8.88
2/23/2021 2:15:00 AM -0.05 31.91 0.208 6.92 73.35 6.98
2/23/2021 2:30:00 AM -0.05 31.91 0.208 6.92 73.29 7.59
2/23/2021 2:45:00 AM -0.05 31.91 0.207 6.92 73.18 6.48
2/23/2021 3:00:00 AM -0.05 31.91 0.207 6.92 73.58 6.87
2/23/2021 3:15:00 AM -0.05 31.91 0.206 6.92 73.29 6.32
2/23/2021 3:30:00 AM -0.05 31.91 0.205 6.92 73.33 7.44
2/23/2021 3:45:00 AM -0.05 31.91 0.205 6.92 73.2 7.51
2/23/2021 4:00:00 AM -0.05 31.91 0.204 6.92 72.78 6.37
2/23/2021 4:15:00 AM -0.05 31.91 0.204 6.92 72.81 7.07
2/23/2021 4:30:00 AM -0.05 31.91 0.203 6.92 72.6 6.43
2/23/2021 4:45:00 AM -0.05 31.91 0.202 6.92 72.41 6.66
2/23/2021 5:00:00 AM -0.05 31.91 0.2 6.92 72.41 6.96
2/23/2021 5:15:00 AM -0.05 31.91 0.199 6.92 72.22 7.79
2/23/2021 5:30:00 AM -0.06 31.892 0.198 6.92 72.4 7.05
2/23/2021 5:45:00 AM -0.06 31.892 0.197 6.92 72.16 6.34
2/23/2021 6:00:00 AM -0.06 31.892 0.195 6.93 71.95 6.5
2/23/2021 6:15:00 AM -0.06 31.892 0.194 6.93 71.63 6.16
2/23/2021 6:30:00 AM -0.06 31.892 0.193 6.93 71.55 6.24
2/23/2021 6:45:00 AM -0.06 31.892 0.192 6.93 71.11 7.51
2/23/2021 7:00:00 AM -0.06 31.892 0.218 7.03 69.82 8.32
2/23/2021 7:15:00 AM -0.06 31.892 0.22 7.04 69.97 3.47
2/23/2021 7:30:00 AM -0.06 31.892 0.221 7.05 70.01 3.33
2/23/2021 7:45:00 AM -0.06 31.892 0.221 7.05 70.12 6.7
2/23/2021 8:00:00 AM -0.06 31.892 0.221 7.04 70.34 5.38
2/23/2021 8:15:00 AM -0.06 31.892 0.221 7.04 70.41 5.14
2/23/2021 8:30:00 AM -0.06 31.892 0.221 7.04 70.57 4.63
2/23/2021 8:45:00 AM -0.06 31.892 0.221 7.04 70.65 4.67
2/23/2021 9:00:00 AM -0.06 31.892 0.221 7.03 70.79 4.69
2/23/2021 9:15:00 AM -0.06 31.892 0.22 7.03 70.82 4.69
2/23/2021 9:30:00 AM -0.06 31.892 0.22 7.03 71.18 4.31
2/23/2021 9:45:00 AM -0.06 31.892 0.22 7.02 71.43 5.67
2/23/2021 10:00:00 AM -0.06 31.892 0.219 7.02 71.4 6.11
2/23/2021 10:15:00 AM -0.06 31.892 0.219 7.02 71.3 5.22
2/23/2021 10:30:00 AM -0.06 31.892 0.218 7.01 71.46 6.04
2/23/2021 10:45:00 AM -0.06 31.892 0.217 7.01 71.56 6.09
2/23/2021 11:00:00 AM -0.06 31.892 0.217 7.01 71.83 5.14
2/23/2021 11:15:00 AM -0.06 31.892 0.216 7.01 71.57 5.11
2/23/2021 11:30:00 AM -0.06 31.892 0.215 7 71.81 6.06
2/23/2021 11:45:00 AM -0.06 31.892 0.214 7 71.9 6.01
2/23/2021 12:00:00 PM -0.06 31.892 0.214 7 71.89 5.76
2/23/2021 12:15:00 PM -0.06 31.892 0.213 7 71.77 5.95
2/23/2021 12:30:00 PM -0.06 31.892 0.213 7 72.09 5.46
2/23/2021 12:45:00 PM -0.06 31.892 0.212 6.99 72.05 5.83
2/23/2021 1:00:00 PM -0.06 31.892 0.211 6.99 71.73 6.07
2/23/2021 1:15:00 PM -0.06 31.892 0.211 6.99 72.06 6.73
2/23/2021 1:30:00 PM -0.06 31.892 0.21 6.99 71.9 6.26
2/23/2021 1:45:00 PM -0.06 31.892 0.21 6.99 71.99 5.95
2/23/2021 2:00:00 PM -0.06 31.892 0.209 6.99 71.83 6.27
2/23/2021 2:15:00 PM -0.06 31.892 0.209 6.99 71.87 5.95
2/23/2021 2:30:00 PM -0.06 31.892 0.208 6.99 71.88 5.32
2/23/2021 2:45:00 PM -0.06 31.892 0.208 6.98 71.73 7.53
2/23/2021 3:00:00 PM -0.06 31.892 0.207 6.98 71.85 10.41
2/23/2021 3:15:00 PM -0.06 31.892 0.207 6.98 71.82 9.84
2/23/2021 3:30:00 PM -0.06 31.892 0.207 6.98 72.04 10.12
2/23/2021 3:45:00 PM -0.06 31.892 0.206 6.98 71.99 10.02
2/23/2021 4:00:00 PM -0.06 31.892 0.206 6.98 72.06 10.06
2/23/2021 4:15:00 PM -0.06 31.892 0.205 6.98 72.3 10.02
2/23/2021 4:30:00 PM -0.06 31.892 0.205 6.98 72.23 10.54
2/23/2021 4:45:00 PM -0.06 31.892 0.205 6.98 72.23 10.32
2/23/2021 5:00:00 PM -0.06 31.892 0.204 6.98 72.35 10.24
2/23/2021 5:15:00 PM -0.06 31.892 0.204 6.98 72.56 10.12
2/23/2021 5:30:00 PM -0.06 31.892 0.203 6.98 72.34 9.91
2/23/2021 5:45:00 PM -0.06 31.892 0.203 6.98 72.2 10.24
2/23/2021 6:00:00 PM -0.06 31.892 0.202 6.98 72.14 10.1
2/23/2021 6:15:00 PM -0.06 31.892 0.201 6.98 72.05 10.45
2/23/2021 6:30:00 PM -0.06 31.892 0.2 6.98 71.98 10.66
2/23/2021 6:45:00 PM -0.06 31.892 0.198 6.98 71.9 10.94
2/23/2021 7:00:00 PM -0.06 31.892 0.197 6.98 71.59 10.71
2/23/2021 7:15:00 PM -0.06 31.892 0.196 6.98 71.03 10.86
2/23/2021 7:30:00 PM -0.06 31.892 0.195 6.98 70.9 11.02
2/23/2021 7:45:00 PM -0.06 31.892 0.194 6.98 70.74 10.74
2/23/2021 8:00:00 PM -0.06 31.892 0.194 6.98 70.35 10.64
2/23/2021 8:15:00 PM -0.06 31.892 0.226 7.04 69.11 9.09
2/23/2021 8:30:00 PM -0.06 31.892 0.226 7.06 69.08 4.92
2/23/2021 8:45:00 PM -0.06 31.892 0.226 7.06 68.91 5.22
2/23/2021 9:00:00 PM -0.06 31.892 0.226 7.05 68.82 8.16
2/23/2021 9:15:00 PM -0.06 31.892 0.225 7.05 68.89 9.16
2/23/2021 9:30:00 PM -0.06 31.892 0.225 7.04 68.82 9.25
2/23/2021 9:45:00 PM -0.06 31.892 0.225 7.04 68.9 9.4
2/23/2021 10:00:00 PM -0.06 31.892 0.225 7.04 69.15 10.26
2/23/2021 10:15:00 PM -99999.99 -179968 -99999.99 -99999.99 -99999.99 -99999.99
2/23/2021 10:30:00 PM -99999.99 -179968 -99999.99 -99999.99 -99999.99 -99999.99
2/23/2021 10:45:00 PM -99999.99 -179968 -99999.99 -99999.99 -99999.99 -99999.99
2/23/2021 11:00:00 PM -99999.99 -179968 -99999.99 -99999.99 -99999.99 -99999.99
2/23/2021 11:15:00 PM -99999.99 -179968 -99999.99 -99999.99 -99999.99 -99999.99
2/23/2021 11:30:00 PM -99999.99 -179968 -99999.99 -99999.99 -99999.99 -99999.99
2/23/2021 11:45:00 PM -99999.99 -179968 -99999.99 -99999.99 -99999.99 -99999.99
2/24/2021 12:00:00 AM -99999.99 -179968 -99999.99 -99999.99 -99999.99 -99999.99
2/24/2021 12:15:00 AM -99999.99 -179968 -99999.99 -99999.99 -99999.99 -99999.99
2/24/2021 12:30:00 AM -99999.99 -179968 -99999.99 -99999.99 -99999.99 -99999.99
2/24/2021 12:45:00 AM -99999.99 -179968 -99999.99 -99999.99 -99999.99 -99999.99
2/24/2021 1:00:00 AM -99999.99 -179968 -99999.99 -99999.99 -99999.99 -99999.99
2/24/2021 1:15:00 AM -99999.99 -179968 -99999.99 -99999.99 -99999.99 -99999.99
2/24/2021 1:30:00 AM -99999.99 -179968 -99999.99 -99999.99 -99999.99 -99999.99
2/24/2021 7:00:00 AM -0.06 31.892 0.233 7.03 69.04 9.56
2/24/2021 7:15:00 AM -0.06 31.892 0.233 7.03 68.87 9.79
2/24/2021 7:30:00 AM -0.06 31.892 0.233 7.02 68.88 10.2
2/24/2021 7:45:00 AM -0.06 31.892 0.232 7.02 68.96 10.36
2/24/2021 8:00:00 AM -0.06 31.892 0.232 7.02 68.73 10.27
2/24/2021 8:15:00 AM -0.06 31.892 0.231 7.02 68.9 9.98
2/24/2021 8:30:00 AM -0.06 31.892 0.23 7.02 69 10.17
2/24/2021 8:45:00 AM -0.06 31.892 0.231 7.02 68.97 9.75
2/24/2021 9:00:00 AM -0.06 31.892 0.23 7.02 68.94 9.45
2/24/2021 9:15:00 AM -0.06 31.892 0.23 7.02 68.92 9.44
2/24/2021 9:30:00 AM -0.06 31.892 0.229 7.02 69.07 9.13
2/24/2021 9:45:00 AM -0.06 31.892 0.229 7.01 69.18 9.54
2/24/2021 10:00:00 AM -0.06 31.892 0.229 7.01 69.05 9.48
2/24/2021 10:15:00 AM -0.06 31.892 0.229 7.01 69.06 9.47
2/24/2021 10:30:00 AM -0.06 31.892 0.228 7.01 69.08 9.68
2/24/2021 10:45:00 AM -0.06 31.892 0.228 7.01 69.2 9.89
2/24/2021 11:00:00 AM -0.06 31.892 0.228 7.01 69.31 9.96
2/24/2021 11:15:00 AM -0.06 31.892 0.228 7.01 69.37 10.03
2/24/2021 11:30:00 AM -0.06 31.892 0.228 7.01 69.33 9.83
2/24/2021 11:45:00 AM -0.06 31.892 0.228 7.01 69.44 10.01
2/24/2021 12:00:00 PM -0.06 31.892 0.227 7 69.27 10.15
2/24/2021 12:15:00 PM -0.06 31.892 0.227 7 69.46 10.15
2/24/2021 12:30:00 PM -0.06 31.892 0.227 6.99 69.43 10.25
2/24/2021 12:45:00 PM -0.06 31.892 0.226 6.98 69.43 10.24
2/24/2021 1:00:00 PM -0.06 31.892 0.226 6.97 69.59 10.22
2/24/2021 1:15:00 PM -0.06 31.892 0.226 6.97 69.56 10.18
2/24/2021 1:30:00 PM -0.06 31.892 0.226 6.96 69.5 9.91
2/24/2021 1:45:00 PM -0.06 31.892 0.226 6.96 69.62 10.03
2/24/2021 2:00:00 PM -0.06 31.892 0.225 6.96 69.44 9.88
2/24/2021 2:15:00 PM -0.06 31.892 0.225 6.96 69.45 9.24
2/24/2021 2:30:00 PM -0.06 31.892 0.225 6.96 69.5 9.98
2/24/2021 2:45:00 PM -0.06 31.892 0.224 6.95 69.63 10.04
2/24/2021 3:00:00 PM -0.05 31.91 0.224 6.95 69.63 9.82
2/24/2021 3:15:00 PM -0.05 31.91 0.224 6.95 69.65 9.98
2/24/2021 3:30:00 PM -0.05 31.91 0.224 6.94 70.01 10.14
2/24/2021 3:45:00 PM -0.05 31.91 0.223 6.94 70.12 9.98
2/24/2021 4:00:00 PM -0.06 31.892 0.223 6.94 70.22 10.03
2/24/2021 4:15:00 PM -0.06 31.892 0.223 6.94 70.22 9.81
2/24/2021 4:30:00 PM -0.06 31.892 0.222 6.93 69.99 10.06
2/24/2021 4:45:00 PM -0.06 31.892 0.222 6.93 70.3 9.89
2/24/2021 5:00:00 PM -0.06 31.892 0.221 6.93 69.9 10.61
2/24/2021 5:15:00 PM -0.06 31.892 0.221 6.93 70.07 10.55
2/24/2021 5:30:00 PM -0.06 31.892 0.22 6.93 70.54 10.32
2/24/2021 5:45:00 PM -0.06 31.892 0.22 6.93 70.63 10.45
2/24/2021 6:00:00 PM -0.06 31.892 0.219 6.93 70.63 10.41
2/24/2021 6:15:00 PM -0.06 31.892 0.219 6.93 70.37 10.6
2/24/2021 6:30:00 PM -0.06 31.892 0.218 6.93 70.65 10.06
2/24/2021 6:45:00 PM -0.06 31.892 0.218 6.93 70.17 10.63
2/24/2021 7:00:00 PM -0.06 31.892 0.217 6.93 70.46 10.89
2/24/2021 7:15:00 PM -0.06 31.892 0.217 6.93 70.34 10.17
2/24/2021 7:30:00 PM -0.06 31.892 0.216 6.92 70.3 9.81
2/24/2021 7:45:00 PM -0.06 31.892 0.216 6.92 70.59 9.72
2/24/2021 8:00:00 PM -0.06 31.892 0.215 6.92 70.04 10.37
2/24/2021 8:15:00 PM -0.06 31.892 0.214 6.92 70.5 10.27
2/24/2021 8:30:00 PM -0.06 31.892 0.214 6.91 70.53 10.64
2/24/2021 8:45:00 PM -0.06 31.892 0.213 6.91 70.51 10.07
2/24/2021 9:00:00 PM -0.06 31.892 0.213 6.91 70.32 10.41
2/24/2021 9:15:00 PM -0.06 31.892 0.212 6.91 70.57 10.83
2/24/2021 9:30:00 PM -0.06 31.892 0.212 6.91 70.6 10.52
2/24/2021 9:45:00 PM -0.06 31.892 0.212 6.91 70.6 10.78
2/24/2021 10:00:00 PM -0.06 31.892 0.211 6.91 70.97 11.11
2/24/2021 10:15:00 PM -0.06 31.892 0.211 6.9 70.84 10.65
2/24/2021 10:30:00 PM -0.06 31.892 0.211 6.9 70.83 10.01
2/24/2021 10:45:00 PM -0.04 31.928 0.21 6.9 70.84 10.17
2/24/2021 11:00:00 PM -0.05 31.91 0.21 6.9 70.8 10.05
2/24/2021 11:15:00 PM -0.05 31.91 0.209 6.9 70.87 10.27
2/24/2021 11:30:00 PM -0.05 31.91 0.209 6.9 70.87 10.78
2/24/2021 11:45:00 PM -0.05 31.91 0.208 6.89 70.8 11.19
2/25/2021 12:00:00 AM -0.05 31.91 0.207 6.89 70.71 11
2/25/2021 12:15:00 AM -0.05 31.91 0.206 6.89 70.71 10.8
2/25/2021 12:30:00 AM -0.05 31.91 0.206 6.89 70.64 10.8
2/25/2021 12:45:00 AM -0.05 31.91 0.204 6.89 70.41 10.68
2/25/2021 1:00:00 AM -0.05 31.91 0.203 6.88 70.36 10.94
2/25/2021 1:15:00 AM -0.06 31.892 0.201 6.88 70.26 10.32
2/25/2021 1:30:00 AM -0.06 31.892 0.2 6.88 70.06 11.37
2/25/2021 1:45:00 AM -0.06 31.892 0.199 6.88 70.03 10.85
2/25/2021 2:00:00 AM -0.06 31.892 0.199 6.88 69.9 11.14
2/25/2021 2:15:00 AM -0.06 31.892 0.234 6.91 69.15 11.43
2/25/2021 2:30:00 AM -0.06 31.892 0.234 6.93 69.22 10.61
2/25/2021 2:45:00 AM -0.06 31.892 0.232 6.94 69.23 11.3
2/25/2021 3:00:00 AM -0.06 31.892 0.232 6.94 69.16 11.35
2/25/2021 3:15:00 AM -0.06 31.892 0.231 6.95 69.25 12.11
2/25/2021 3:30:00 AM -0.06 31.892 0.231 6.95 69.16 12.31
2/25/2021 3:45:00 AM -0.06 31.892 0.23 6.95 69 12.1
2/25/2021 4:00:00 AM -0.06 31.892 0.23 6.95 68.99 12.19
2/25/2021 4:15:00 AM -0.06 31.892 0.23 6.95 68.93 11.8
2/25/2021 4:30:00 AM -0.06 31.892 0.23 6.95 68.84 11.98
2/25/2021 4:45:00 AM -0.06 31.892 0.23 6.95 68.97 12.08
2/25/2021 5:00:00 AM -0.06 31.892 0.229 6.95 68.83 12.2
2/25/2021 5:15:00 AM -0.06 31.892 0.229 6.95 68.89 12.21
2/25/2021 5:30:00 AM -0.06 31.892 0.229 6.95 68.94 12.35
2/25/2021 5:45:00 AM -0.06 31.892 0.229 6.95 68.94 12.53
2/25/2021 6:00:00 AM -0.06 31.892 0.229 6.95 69.05 12.54
2/25/2021 6:15:00 AM -0.06 31.892 0.228 6.95 68.86 12.35
2/25/2021 6:30:00 AM -0.06 31.892 0.229 6.95 68.7 12.38
2/25/2021 6:45:00 AM -0.06 31.892 0.228 6.95 68.96 11.99
2/25/2021 7:00:00 AM -0.06 31.892 0.228 6.95 68.92 12.3
2/25/2021 7:15:00 AM -0.06 31.892 0.228 6.95 68.97 12.1
2/25/2021 7:30:00 AM -0.06 31.892 0.227 6.95 69.03 12.1
2/25/2021 7:45:00 AM -0.06 31.892 0.227 6.95 69.15 11.86
2/25/2021 8:00:00 AM -0.06 31.892 0.227 6.95 69.06 11.87
2/25/2021 8:15:00 AM -0.06 31.892 0.227 6.95 69.17 12.06
2/25/2021 8:30:00 AM -0.06 31.892 0.226 6.94 69.1 12.26
2/25/2021 8:45:00 AM -0.06 31.892 0.226 6.94 69.35 12.06
2/25/2021 9:00:00 AM -0.06 31.892 0.226 6.94 69.2 11.96
2/25/2021 9:15:00 AM -0.06 31.892 0.225 6.94 69.4 12.01
2/25/2021 9:30:00 AM -0.06 31.892 0.225 6.94 69.31 11.96
2/25/2021 9:45:00 AM -0.06 31.892 0.225 6.94 69.35 11.99
2/25/2021 10:00:00 AM -0.06 31.892 0.224 6.94 69.14 12.07
2/25/2021 10:15:00 AM -0.06 31.892 0.224 6.94 69.3 11.96
2/25/2021 10:30:00 AM -0.06 31.892 0.223 6.94 69.35 11.98
2/25/2021 10:45:00 AM -0.06 31.892 0.223 6.94 69.55 12.07
2/25/2021 11:00:00 AM -0.06 31.892 0.222 6.94 69.74 12.08
2/25/2021 11:15:00 AM -0.05 31.91 0.222 6.94 69.67 12.35
2/25/2021 11:30:00 AM -0.05 31.91 0.221 6.94 69.69 12.31
2/25/2021 11:45:00 AM -0.05 31.91 0.221 6.94 70.03 12
2/25/2021 12:00:00 PM -0.05 31.91 0.22 6.94 69.9 12.17
2/25/2021 12:15:00 PM -0.05 31.91 0.22 6.94 69.98 11.97
2/25/2021 12:30:00 PM -0.05 31.91 0.22 6.93 69.86 12.19
2/25/2021 12:45:00 PM -0.04 31.928 0.22 6.93 70.06 11.87
2/25/2021 1:00:00 PM -0.04 31.928 0.219 6.93 69.93 11.47
2/25/2021 1:15:00 PM -0.04 31.928 0.219 6.93 70.26 11.7
2/25/2021 1:30:00 PM -0.05 31.91 0.219 6.93 70.31 11.89
2/25/2021 1:45:00 PM -0.04 31.928 0.218 6.93 70.31 11.72
2/25/2021 2:00:00 PM -0.04 31.928 0.218 6.93 70.34 11.78
2/25/2021 2:15:00 PM -0.04 31.928 0.218 6.93 70.25 12.16
2/25/2021 2:30:00 PM -0.04 31.928 0.217 6.93 70.29 12.14
2/25/2021 2:45:00 PM -0.04 31.928 0.217 6.93 70.33 12.15
2/25/2021 3:00:00 PM -0.04 31.928 0.216 6.93 70.52 12.06
2/25/2021 3:15:00 PM -0.04 31.928 0.216 6.93 70.29 12.28
2/25/2021 3:30:00 PM -0.04 31.928 0.215 6.93 70.37 12.24
2/25/2021 3:45:00 PM -0.04 31.928 0.215 6.93 70.5 12.14
2/25/2021 4:00:00 PM -0.04 31.928 0.215 6.93 70.49 12.25
2/25/2021 4:15:00 PM -0.05 31.91 0.214 6.93 70.44 12.08
2/25/2021 4:30:00 PM -0.05 31.91 0.214 6.94 70.21 11.84
2/25/2021 4:45:00 PM -0.05 31.91 0.213 6.93 70.73 11.94
2/25/2021 5:00:00 PM -0.05 31.91 0.213 6.93 70.8 11.91
2/25/2021 5:15:00 PM -0.05 31.91 0.212 6.93 70.73 7.34
2/25/2021 5:30:00 PM -0.05 31.91 0.212 6.93 70.83 11.78
2/25/2021 5:45:00 PM -0.05 31.91 0.211 6.93 70.89 12.28
2/25/2021 6:00:00 PM -0.05 31.91 0.21 6.93 70.95 12.2
2/25/2021 6:15:00 PM -0.05 31.91 0.209 6.93 70.92 12.05
2/25/2021 6:30:00 PM -0.05 31.91 0.208 6.93 70.75 11.91
2/25/2021 6:45:00 PM -0.06 31.892 0.207 6.93 70.95 11.7
2/25/2021 7:00:00 PM -0.06 31.892 0.205 6.93 70.89 10.22
2/25/2021 7:15:00 PM -0.06 31.892 0.204 6.93 70.87 9.04
2/25/2021 7:30:00 PM -0.06 31.892 0.202 6.93 70.6 9.21
2/25/2021 7:45:00 PM -0.06 31.892 0.2 6.93 70.58 8.58
2/25/2021 8:00:00 PM -0.06 31.892 0.198 6.93 70.43 9
2/25/2021 8:15:00 PM -0.06 31.892 0.197 6.94 70.34 8.62
2/25/2021 8:30:00 PM -0.06 31.892 0.235 6.96 69.42 10.22
2/25/2021 8:45:00 PM -0.06 31.892 0.232 6.95 69.17 7.22
2/25/2021 9:00:00 PM -0.06 31.892 0.23 6.94 69.01 6.52
2/25/2021 9:15:00 PM -0.07 31.874 0.228 6.94 68.86 6.3
2/25/2021 9:30:00 PM -0.07 31.874 0.227 6.95 68.99 7.26
2/25/2021 9:45:00 PM -0.07 31.874 0.226 6.95 69.13 7.51
2/25/2021 10:00:00 PM -0.07 31.874 0.225 6.95 69.1 8.94
2/25/2021 10:15:00 PM -0.07 31.874 0.225 6.95 69.04 8.78
2/25/2021 10:30:00 PM -0.05 31.91 0.224 6.95 68.99 9.07
2/25/2021 10:45:00 PM -0.06 31.892 0.223 6.95 68.92 8.37
2/25/2021 11:00:00 PM -0.06 31.892 0.223 6.95 68.97 7.71
2/25/2021 11:15:00 PM -0.06 31.892 0.222 6.95 68.9 8.21
2/25/2021 11:30:00 PM -0.06 31.892 0.222 6.95 68.9 7.98
2/25/2021 11:45:00 PM -0.07 31.874 0.221 6.95 68.78 9.24
2/26/2021 12:00:00 AM -0.07 31.874 0.221 6.95 68.77 8.73
2/26/2021 12:15:00 AM -0.07 31.874 0.22 6.95 68.87 8.65
2/26/2021 12:30:00 AM -0.07 31.874 0.22 6.95 68.8 9.06
2/26/2021 12:45:00 AM -0.07 31.874 0.22 6.95 68.66 8.74
2/26/2021 1:00:00 AM -0.07 31.874 0.219 6.95 68.67 9.1
2/26/2021 1:15:00 AM -0.07 31.874 0.219 6.95 68.72 8.72
2/26/2021 1:30:00 AM -0.07 31.874 0.218 6.95 68.72 9.02
2/26/2021 1:45:00 AM -0.07 31.874 0.218 6.95 68.87 8.26
2/26/2021 2:00:00 AM -0.07 31.874 0.217 6.96 68.89 8.53
2/26/2021 2:15:00 AM -0.07 31.874 0.217 6.96 69.07 8.31
2/26/2021 2:30:00 AM -0.07 31.874 0.217 6.96 68.95 8.2
2/26/2021 2:45:00 AM -0.07 31.874 0.217 6.96 69.04 8.43
2/26/2021 3:00:00 AM -0.07 31.874 0.216 6.96 69.02 8.26
2/26/2021 3:15:00 AM -0.07 31.874 0.216 6.96 69.15 9.26
2/26/2021 3:30:00 AM -0.07 31.874 0.216 6.96 69.32 9.51
2/26/2021 3:45:00 AM -0.07 31.874 0.216 6.96 69.32 8.85
2/26/2021 4:00:00 AM -0.07 31.874 0.215 6.96 69.23 9.03
2/26/2021 4:15:00 AM -0.07 31.874 0.215 6.96 69.32 8.67
2/26/2021 4:30:00 AM -0.07 31.874 0.215 6.96 69.35 9.11
2/26/2021 4:45:00 AM -0.07 31.874 0.214 6.96 69.39 8.06
2/26/2021 5:00:00 AM -0.07 31.874 0.214 6.96 69.58 8.11
2/26/2021 5:15:00 AM -0.07 31.874 0.214 6.96 69.64 8.26
2/26/2021 5:30:00 AM -0.07 31.874 0.214 6.96 69.61 8.38
2/26/2021 5:45:00 AM -0.07 31.874 0.213 6.96 69.68 7.62
2/26/2021 6:00:00 AM -0.07 31.874 0.213 6.96 69.92 8.61
2/26/2021 6:15:00 AM -0.07 31.874 0.213 6.96 69.95 7.97
2/26/2021 6:30:00 AM -0.07 31.874 0.212 6.96 70.02 8.61
2/26/2021 6:45:00 AM -0.07 31.874 0.212 6.96 69.87 7.88
2/26/2021 7:00:00 AM -0.07 31.874 0.212 6.96 69.82 7.47
2/26/2021 7:15:00 AM -0.07 31.874 0.212 6.96 69.88 7.64
2/26/2021 7:30:00 AM -0.07 31.874 0.212 6.96 69.88 7.4
2/26/2021 7:45:00 AM -0.07 31.874 0.211 6.96 70 7.83
2/26/2021 8:00:00 AM -0.07 31.874 0.211 6.96 70.1 8.38
2/26/2021 8:15:00 AM -0.07 31.874 0.211 6.96 70.34 9.11
2/26/2021 8:30:00 AM -0.07 31.874 0.21 6.96 70.37 9.58
2/26/2021 8:45:00 AM -0.07 31.874 0.21 6.96 70.52 9.21
2/26/2021 9:00:00 AM -0.07 31.874 0.21 6.96 70.52 9.57
2/26/2021 9:15:00 AM -0.07 31.874 0.21 6.96 70.72 9.3
2/26/2021 9:30:00 AM -0.07 31.874 0.21 6.95 70.57 9.5
2/26/2021 9:45:00 AM -0.07 31.874 0.21 6.95 70.61 9.21
2/26/2021 10:00:00 AM -0.07 31.874 0.209 6.96 70.46 8.81
2/26/2021 10:15:00 AM -0.07 31.874 0.209 6.95 70.25 8.72
2/26/2021 10:30:00 AM -0.07 31.874 0.209 6.96 70.39 9.19
2/26/2021 10:45:00 AM -0.07 31.874 0.209 6.96 70.52 9.46
2/26/2021 11:00:00 AM -0.07 31.874 0.209 6.95 70.69 9.12
2/26/2021 11:15:00 AM -0.06 31.892 0.209 6.95 70.6 8.53
2/26/2021 11:30:00 AM -0.06 31.892 0.209 6.95 70.53 9.04
2/26/2021 11:45:00 AM -0.06 31.892 0.209 6.95 70.53 8
2/26/2021 12:00:00 PM -0.06 31.892 0.209 6.95 70.44 8.54
2/26/2021 12:15:00 PM -0.06 31.892 0.209 6.96 70.39 8.64
2/26/2021 12:30:00 PM -0.06 31.892 0.208 6.96 70.53 8.31
2/26/2021 12:45:00 PM -0.06 31.892 0.208 6.95 70.54 8.76
2/26/2021 1:00:00 PM -0.06 31.892 0.208 6.95 70.42 9.01
2/26/2021 1:15:00 PM -0.05 31.91 0.208 6.95 70.43 8.73
2/26/2021 1:30:00 PM -0.05 31.91 0.208 6.95 70.4 8.99
2/26/2021 1:45:00 PM -0.05 31.91 0.207 6.95 70.5 8.61
2/26/2021 2:00:00 PM -0.05 31.91 0.207 6.95 70.62 8.95
2/26/2021 2:15:00 PM -0.05 31.91 0.207 6.95 70.69 8.78
2/26/2021 2:30:00 PM -0.05 31.91 0.207 6.95 70.65 8.25
2/26/2021 2:45:00 PM -0.05 31.91 0.207 6.95 70.56 8.64
2/26/2021 3:00:00 PM -0.05 31.91 0.206 6.95 70.7 8.96
2/26/2021 3:15:00 PM -0.05 31.91 0.206 6.95 70.56 9.71
2/26/2021 3:30:00 PM -0.04 31.928 0.206 6.95 70.66 12.12
2/26/2021 3:45:00 PM -0.04 31.928 0.206 6.95 70.93 12.49
2/26/2021 4:00:00 PM -0.04 31.928 0.206 6.95 70.87 12.49
2/26/2021 4:15:00 PM -0.03 31.946 0.205 6.95 70.89 12.74
2/26/2021 4:30:00 PM -0.03 31.946 0.205 6.95 70.99 12.75
2/26/2021 4:45:00 PM -0.03 31.946 0.205 6.95 71.04 12.79
2/26/2021 5:00:00 PM -0.03 31.946 0.204 6.95 70.96 12.83
2/26/2021 5:15:00 PM -0.03 31.946 0.204 6.95 70.92 12.76
2/26/2021 5:30:00 PM -0.02 31.964 0.204 6.95 71.02 11.22
2/26/2021 5:45:00 PM -0.03 31.946 0.203 6.95 71.08 10.12
2/26/2021 6:00:00 PM -0.03 31.946 0.202 6.95 71.08 10.7
2/26/2021 6:15:00 PM -0.03 31.946 0.202 6.95 71.11 10.32
2/26/2021 6:30:00 PM -0.03 31.946 0.201 6.95 71.11 10.44
2/26/2021 6:45:00 PM -0.04 31.928 0.2 6.95 71.07 10.28
2/26/2021 7:00:00 PM -0.04 31.928 0.199 6.95 71.12 10.84
2/26/2021 7:15:00 PM -0.04 31.928 0.198 6.95 71.22 10.47
2/26/2021 7:30:00 PM -0.05 31.91 0.197 6.95 71 10.35
2/26/2021 7:45:00 PM -0.05 31.91 0.196 6.95 71.03 10.44
2/26/2021 8:00:00 PM -0.05 31.91 0.195 6.95 70.97 10.43
2/26/2021 8:15:00 PM -0.05 31.91 0.194 6.95 71.05 9.75
2/26/2021 8:30:00 PM -0.06 31.892 0.193 6.95 70.91 9.37
2/26/2021 8:45:00 PM -0.06 31.892 0.232 6.96 70.62 10.82
2/26/2021 9:00:00 PM -0.06 31.892 0.231 6.94 70.27 12.44
2/26/2021 9:15:00 PM -0.06 31.892 0.23 6.95 69.89 12.3
2/26/2021 9:30:00 PM -0.07 31.874 0.229 6.95 69.59 11.79
2/26/2021 9:45:00 PM -0.07 31.874 0.228 6.95 69.51 11.6
2/26/2021 10:00:00 PM -0.07 31.874 0.227 6.95 69.58 11.6
2/26/2021 10:15:00 PM -0.07 31.874 0.226 6.95 69.52 11.28
2/26/2021 10:30:00 PM -0.07 31.874 0.226 6.95 69.5 10.82
2/26/2021 10:45:00 PM -0.07 31.874 0.225 6.95 69.44 9.83
2/26/2021 11:00:00 PM -0.07 31.874 0.225 6.95 69.77 8.87
2/26/2021 11:15:00 PM -0.07 31.874 0.224 6.95 69.69 8.62
2/26/2021 11:30:00 PM -0.07 31.874 0.224 6.95 69.43 7.89
2/26/2021 11:45:00 PM -0.07 31.874 0.224 6.95 69.55 7.58
2/27/2021 12:00:00 AM -0.07 31.874 0.224 6.95 69.45 11.08
2/27/2021 12:15:00 AM -0.08 31.856 0.224 6.95 69.42 11.45
2/27/2021 12:30:00 AM -0.08 31.856 0.224 6.95 69.52 11.8
2/27/2021 12:45:00 AM -0.08 31.856 0.224 6.95 69.53 11.4
2/27/2021 1:00:00 AM -0.07 31.874 0.224 6.95 69.69 11.17
2/27/2021 1:15:00 AM -0.07 31.874 0.224 6.95 69.74 10.9
2/27/2021 1:30:00 AM -0.07 31.874 0.224 6.95 69.88 11
2/27/2021 1:45:00 AM -0.07 31.874 0.223 6.96 69.95 11.57
2/27/2021 2:00:00 AM -0.08 31.856 0.223 6.96 69.89 11.22
2/27/2021 2:15:00 AM -0.07 31.874 0.223 6.96 69.73 11.41
2/27/2021 2:30:00 AM -0.07 31.874 0.223 6.95 69.69 11.88
2/27/2021 2:45:00 AM -0.07 31.874 0.223 6.95 69.77 12.12
2/27/2021 3:00:00 AM -0.08 31.856 0.223 6.95 69.98 11.83
2/27/2021 3:15:00 AM -0.08 31.856 0.223 6.95 69.85 12.15
2/27/2021 3:30:00 AM -0.07 31.874 0.223 6.94 69.91 12.36
2/27/2021 3:45:00 AM -0.07 31.874 0.222 6.95 70.04 12.67
2/27/2021 4:00:00 AM -0.07 31.874 0.222 6.95 70.22 11.44
2/27/2021 4:15:00 AM -0.07 31.874 0.222 6.94 70.27 9.74
2/27/2021 4:30:00 AM -0.07 31.874 0.222 6.94 70.34 9.97
2/27/2021 4:45:00 AM -0.07 31.874 0.222 6.94 70.31 9.67
2/27/2021 5:00:00 AM -0.07 31.874 0.222 6.94 70.51 10.47
2/27/2021 5:15:00 AM -0.07 31.874 0.222 6.94 70.54 8.63
2/27/2021 5:30:00 AM -0.07 31.874 0.222 6.94 70.43 7.86
2/27/2021 5:45:00 AM -0.07 31.874 0.222 6.94 70.55 9.85
2/27/2021 6:00:00 AM -0.07 31.874 0.222 6.94 70.56 10.39
2/27/2021 6:15:00 AM -0.08 31.856 0.222 6.94 70.62 10.99
2/27/2021 6:30:00 AM -0.07 31.874 0.222 6.94 70.48 11.21
2/27/2021 6:45:00 AM -0.08 31.856 0.221 6.94 70.47 11.53
2/27/2021 7:00:00 AM -0.08 31.856 0.221 6.93 70.49 11.5
2/27/2021 7:15:00 AM -0.08 31.856 0.221 6.93 70.57 11.98
2/27/2021 7:30:00 AM -0.08 31.856 0.221 6.93 70.48 12.37
2/27/2021 7:45:00 AM -0.07 31.874 0.221 6.93 70.7 11.93
2/27/2021 8:00:00 AM -0.07 31.874 0.221 6.92 70.59 12.37
2/27/2021 8:15:00 AM -0.07 31.874 0.22 6.93 70.43 12.29
2/27/2021 8:30:00 AM -0.07 31.874 0.22 6.93 70.72 12.11
2/27/2021 8:45:00 AM -0.07 31.874 0.22 6.93 70.6 12.02
2/27/2021 9:00:00 AM -0.07 31.874 0.22 6.93 70.66 12.31
2/27/2021 9:15:00 AM -0.07 31.874 0.22 6.93 70.85 12.16
2/27/2021 9:30:00 AM -0.07 31.874 0.22 6.93 70.85 11.86
2/27/2021 9:45:00 AM -0.07 31.874 0.219 6.93 70.82 11.59
2/27/2021 10:00:00 AM -0.07 31.874 0.219 6.92 70.71 12.18
2/27/2021 10:15:00 AM -0.07 31.874 0.219 6.92 70.88 11.56
2/27/2021 10:30:00 AM -0.07 31.874 0.219 6.92 70.99 11.54
2/27/2021 10:45:00 AM -0.05 31.91 0.219 6.92 70.8 11.18
2/27/2021 11:00:00 AM -0.06 31.892 0.219 6.93 70.94 11.02
2/27/2021 11:15:00 AM -0.06 31.892 0.219 6.93 71.09 10.83
2/27/2021 11:30:00 AM -0.06 31.892 0.218 6.92 71.08 10.58
2/27/2021 11:45:00 AM -0.06 31.892 0.218 6.92 71.07 11.05
2/27/2021 12:00:00 PM -0.06 31.892 0.218 6.92 71.2 10.9
2/27/2021 12:15:00 PM -0.05 31.91 0.218 6.92 71.23 11.31
2/27/2021 12:30:00 PM -0.05 31.91 0.217 6.92 71.5 11.27
2/27/2021 12:45:00 PM -0.05 31.91 0.217 6.92 71.61 11.28
2/27/2021 1:00:00 PM -0.05 31.91 0.217 6.92 71.28 10.91
2/27/2021 1:15:00 PM -0.05 31.91 0.217 6.92 71.51 10.73
2/27/2021 1:30:00 PM -0.04 31.928 0.217 6.91 71.92 11.15
2/27/2021 1:45:00 PM -0.04 31.928 0.216 6.91 71.82 11.12
2/27/2021 2:00:00 PM -0.04 31.928 0.216 6.91 71.68 11.81
2/27/2021 2:15:00 PM -0.04 31.928 0.216 6.91 71.41 11.95
2/27/2021 2:30:00 PM -0.04 31.928 0.216 6.91 72.02 11.87
2/27/2021 2:45:00 PM -0.03 31.946 0.216 6.91 71.62 11.44
2/27/2021 3:00:00 PM -0.03 31.946 0.216 6.91 71.46 11.69
2/27/2021 3:15:00 PM -0.02 31.964 0.216 6.9 71.68 12.02
2/27/2021 3:30:00 PM -0.02 31.964 0.216 6.9 71.64 12.55
2/27/2021 3:45:00 PM 0 32 0.216 6.9 71.54 12.56
2/27/2021 4:00:00 PM 0.01 32.018 0.216 6.9 71.46 12.62
2/27/2021 4:15:00 PM 0.02 32.036 0.216 6.9 71.54 12.97
2/27/2021 4:30:00 PM 0.03 32.054 0.215 6.9 71.32 12.91
2/27/2021 4:45:00 PM 0.04 32.072 0.215 6.9 71.4 13.08
2/27/2021 5:00:00 PM 0.04 32.072 0.215 6.89 71.7 12.96
2/27/2021 5:15:00 PM 0.04 32.072 0.215 6.9 71.76 12.73
2/27/2021 5:30:00 PM 0.04 32.072 0.215 6.9 71.55 12.63
2/27/2021 5:45:00 PM 0.04 32.072 0.215 6.89 71.98 12.72
2/27/2021 6:00:00 PM 0.04 32.072 0.215 6.9 71.59 12.68
2/27/2021 6:15:00 PM 0.03 32.054 0.214 6.9 71.77 12.14
2/27/2021 6:30:00 PM 0.03 32.054 0.214 6.9 72 12.1
2/27/2021 6:45:00 PM 0.03 32.054 0.214 6.9 72.06 11.99
2/27/2021 7:00:00 PM 0.03 32.054 0.214 6.89 71.99 11.3
2/27/2021 7:15:00 PM 0.02 32.036 0.214 6.89 71.92 11.79
2/27/2021 7:30:00 PM 0.02 32.036 0.214 6.9 72.11 11.81
2/27/2021 7:45:00 PM 0.01 32.018 0.213 6.89 71.81 11.58
2/27/2021 8:00:00 PM 0 32 0.213 6.89 71.96 11.23
2/27/2021 8:15:00 PM 0 32 0.213 6.89 71.92 11.05
2/27/2021 8:30:00 PM -0.01 31.982 0.213 6.89 71.96 11.45
2/27/2021 8:45:00 PM -0.02 31.964 0.213 6.88 72.29 11.7
2/27/2021 9:00:00 PM -0.02 31.964 0.213 6.88 72.16 12.23
2/27/2021 9:15:00 PM -0.03 31.946 0.213 6.88 72.36 12.25
2/27/2021 9:30:00 PM -0.04 31.928 0.212 6.89 72.14 12.31
2/27/2021 9:45:00 PM -0.04 31.928 0.212 6.89 71.84 12.36
2/27/2021 10:00:00 PM -0.05 31.91 0.212 6.88 71.41 12.43
2/27/2021 10:15:00 PM -0.05 31.91 0.212 6.88 71.88 11.92
2/27/2021 10:30:00 PM -0.06 31.892 0.212 6.88 71.96 11.98
2/27/2021 10:45:00 PM -0.06 31.892 0.211 6.88 71.87 12.17
2/27/2021 11:00:00 PM -0.06 31.892 0.211 6.87 71.73 12.11
2/27/2021 11:15:00 PM -0.07 31.874 0.211 6.87 71.9 11.59
2/27/2021 11:30:00 PM -0.07 31.874 0.211 6.87 71.95 11.5
2/27/2021 11:45:00 PM -0.07 31.874 0.21 6.87 71.9 11.03
2/28/2021 12:00:00 AM -0.08 31.856 0.21 6.87 71.7 11.4
2/28/2021 12:15:00 AM -0.08 31.856 0.209 6.86 71.94 11.22
2/28/2021 12:30:00 AM -0.08 31.856 0.209 6.87 71.89 11.67
2/28/2021 12:45:00 AM -0.08 31.856 0.208 6.86 72 12
2/28/2021 1:00:00 AM -0.08 31.856 0.208 6.86 71.65 12.48
2/28/2021 1:15:00 AM -0.08 31.856 0.207 6.85 71.89 11.65
2/28/2021 1:30:00 AM -0.08 31.856 0.206 6.85 71.7 11.77
2/28/2021 1:45:00 AM -0.08 31.856 0.205 6.84 71.76 13.45
2/28/2021 2:00:00 AM -0.08 31.856 0.205 6.84 71.54 13.44
2/28/2021 2:15:00 AM -0.08 31.856 0.204 6.84 71.44 13.52
2/28/2021 2:30:00 AM -0.08 31.856 0.203 6.84 71.62 13.48
2/28/2021 2:45:00 AM -0.08 31.856 0.202 6.84 71.52 13.48
2/28/2021 3:00:00 AM -0.08 31.856 0.201 6.83 71.52 13.07
2/28/2021 3:15:00 AM -0.08 31.856 0.2 6.83 71.31 13.13
2/28/2021 3:30:00 AM -0.08 31.856 0.235 6.82 70.31 13.55
2/28/2021 3:45:00 AM -0.08 31.856 0.235 6.84 69.83 13.71
2/28/2021 4:00:00 AM -0.08 31.856 0.233 6.85 69.64 13.09
2/28/2021 4:15:00 AM -0.08 31.856 0.232 6.85 69.59 13.14
2/28/2021 4:30:00 AM -0.08 31.856 0.231 6.84 69.77 12.59
2/28/2021 4:45:00 AM -0.08 31.856 0.23 6.84 69.77 13.22
2/28/2021 5:00:00 AM -0.08 31.856 0.229 6.83 69.88 12.73
2/28/2021 5:15:00 AM -0.08 31.856 0.229 6.83 69.84 13.04
2/28/2021 5:30:00 AM -0.08 31.856 0.229 6.82 69.82 12.69
2/28/2021 5:45:00 AM -0.08 31.856 0.228 6.82 69.82 12.7
2/28/2021 6:00:00 AM -0.08 31.856 0.228 6.81 69.82 12.66
2/28/2021 6:15:00 AM -0.08 31.856 0.227 6.81 69.77 12.42
2/28/2021 6:30:00 AM -0.08 31.856 0.227 6.8 69.88 12.5
2/28/2021 6:45:00 AM -0.08 31.856 0.227 6.8 69.97 12.82
2/28/2021 7:00:00 AM -0.08 31.856 0.226 6.79 69.91 12.7
2/28/2021 7:15:00 AM -0.08 31.856 0.226 6.79 69.68 12.41
2/28/2021 7:30:00 AM -0.08 31.856 0.226 6.79 69.79 12.91
2/28/2021 7:45:00 AM -0.08 31.856 0.225 6.79 69.63 12.86
2/28/2021 8:00:00 AM -0.08 31.856 0.225 6.79 69.63 12.5
2/28/2021 8:15:00 AM -0.08 31.856 0.225 6.78 69.57 12.38
2/28/2021 8:30:00 AM -0.08 31.856 0.225 6.78 69.69 12.63
2/28/2021 8:45:00 AM -0.07 31.874 0.225 6.78 69.5 12.46
2/28/2021 9:00:00 AM -0.07 31.874 0.225 6.78 69.54 12.57
2/28/2021 9:15:00 AM -0.07 31.874 0.225 6.78 69.7 13.45
2/28/2021 9:30:00 AM -0.07 31.874 0.225 6.78 69.71 13.45
2/28/2021 9:45:00 AM -0.07 31.874 0.226 6.78 69.54 13.37
2/28/2021 10:00:00 AM -0.07 31.874 0.226 6.78 69.75 13.45
2/28/2021 10:15:00 AM -0.07 31.874 0.226 6.77 69.6 13.63
2/28/2021 10:30:00 AM -0.06 31.892 0.226 6.77 69.46 13.71
2/28/2021 10:45:00 AM -0.06 31.892 0.226 6.76 69.51 13.68
2/28/2021 11:00:00 AM -0.05 31.91 0.226 6.75 69.56 13.55
2/28/2021 11:15:00 AM -0.05 31.91 0.226 6.74 69.8 13.37
2/28/2021 11:30:00 AM -0.04 31.928 0.226 6.73 69.74 13.67
2/28/2021 11:45:00 AM -0.04 31.928 0.226 6.72 69.76 13.6
2/28/2021 12:00:00 PM -0.03 31.946 0.226 6.72 69.75 13.59
2/28/2021 12:15:00 PM -0.03 31.946 0.226 6.72 69.66 13.59
2/28/2021 12:30:00 PM -0.02 31.964 0.226 6.71 69.61 13.42
2/28/2021 12:45:00 PM -0.02 31.964 0.226 6.71 69.78 13.65
2/28/2021 1:00:00 PM -0.01 31.982 0.226 6.71 69.87 13.65
2/28/2021 1:15:00 PM -0.01 31.982 0.226 6.7 69.86 13.65
2/28/2021 1:30:00 PM 0 32 0.226 6.7 69.78 13.65
2/28/2021 1:45:00 PM